[[{"header":{"parameterUnit":"m.s-1","parameterCategory":1,"la1":30.6,"la2":29.2853,"lo1":-89.7004,"lo2":-87.6739,"dy":0.0162,"dx":0.0183,"nx":112,"ny":82,"refTime":"2024-05-18T06:00:00:Z","depth":0,"parameterNumber":2,"parameterNumberName":"U-component_of_WINDS"},"data":[0.0,0.0,0.0,0.0,0.0,0.0,0.0,0.0,0.0,0.0,0.0,0.0,0.0,0.0,0.0,0.0,0.0,0.0,0.0,0.0,0.0,0.0,0.0,0.0,0.0,0.0,0.0,0.0,0.0,0.0,0.0,0.0,0.0,0.0,0.0,0.0,0.0,0.0,0.0,0.0,0.0,0.0,0.0,0.0,0.0,0.0,0.0,0.0,0.0,0.0,0.0,0.0,0.0,0.0,0.0,0.0,0.0,0.0,0.0,0.0,0.0,0.0,0.0,0.0,0.0,0.0,0.0,0.0,0.0,0.0,0.0,0.0,0.0,0.0,0.0,0.0,0.0,0.0,0.0,0.0,0.0,0.0,0.0,0.0,0.0,0.0,0.0,0.0,0.0,0.0,-1.4163,-1.4289,-1.4952,-1.541,-1.541,-1.541,-1.502,-1.4163,0.0,0.0,0.0,0.0,0.0,0.0,0.0,0.0,0.0,0.0,0.0,0.0,0.0,0.0,0.0,0.0,0.0,0.0,0.0,0.0,0.0,0.0,0.0,0.0,0.0,0.0,0.0,0.0,0.0,0.0,0.0,0.0,0.0,0.0,0.0,0.0,0.0,0.0,0.0,0.0,0.0,0.0,0.0,0.0,0.0,0.0,0.0,0.0,0.0,0.0,0.0,0.0,0.0,0.0,0.0,0.0,0.0,0.0,0.0,0.0,0.0,0.0,0.0,0.0,0.0,0.0,0.0,0.0,0.0,0.0,0.0,0.0,0.0,0.0,0.0,0.0,0.0,0.0,0.0,0.0,0.0,0.0,0.0,0.0,0.0,0.0,0.0,0.0,0.0,0.0,0.0,0.0,0.0,0.0,0.0,0.0,0.0,0.0,0.0,0.0,0.0,0.0,0.0,0.0,-1.4387,-1.5108,-1.5303,-1.541,-1.541,-1.541,-1.502,-1.4163,0.0,0.0,0.0,0.0,0.0,0.0,0.0,0.0,0.0,0.0,0.0,0.0,0.0,0.0,0.0,0.0,0.0,0.0,0.0,0.0,0.0,0.0,0.0,0.0,0.0,0.0,0.0,0.0,0.0,0.0,0.0,0.0,0.0,0.0,0.0,0.0,0.0,0.0,0.0,0.0,0.0,0.0,0.0,0.0,0.0,0.0,0.0,0.0,0.0,0.0,0.0,0.0,0.0,0.0,0.0,0.0,0.0,0.0,0.0,0.0,0.0,0.0,0.0,0.0,0.0,0.0,0.0,0.0,0.0,0.0,0.0,0.0,0.0,0.0,0.0,0.0,0.0,0.0,0.0,0.0,0.0,0.0,0.0,0.0,0.0,0.0,0.0,0.0,0.0,0.0,0.0,0.0,0.0,0.0,0.0,0.0,0.0,0.0,0.0,0.0,0.0,0.0,0.0,-1.4133,-1.4436,-1.5322,-1.541,-1.541,-1.541,-1.541,-1.502,-1.4163,-1.4104,0.0,0.0,0.0,0.0,0.0,0.0,0.0,0.0,0.0,0.0,0.0,0.0,0.0,0.0,0.0,0.0,0.0,0.0,0.0,0.0,0.0,0.0,0.0,0.0,0.0,0.0,0.0,0.0,0.0,0.0,0.0,0.0,0.0,0.0,0.0,0.0,0.0,0.0,0.0,0.0,0.0,0.0,0.0,0.0,0.0,0.0,0.0,0.0,0.0,0.0,0.0,0.0,0.0,0.0,0.0,0.0,0.0,0.0,0.0,0.0,0.0,0.0,0.0,0.0,0.0,0.0,0.0,0.0,0.0,0.0,0.0,0.0,0.0,0.0,0.0,0.0,0.0,0.0,0.0,0.0,0.0,0.0,0.0,0.0,0.0,0.0,0.0,0.0,0.0,0.0,0.0,0.0,0.0,0.0,0.0,0.0,0.0,0.0,0.0,0.0,0.0,0.0,-1.4609,-1.4767,-1.5352,-1.5508,-1.5527,-1.542,-1.5322,-1.4941,-1.4153,-1.4016,0.0,0.0,0.0,0.0,0.0,0.0,0.0,0.0,0.0,0.0,0.0,0.0,0.0,0.0,0.0,0.0,0.0,0.0,0.0,0.0,0.0,0.0,0.0,0.0,0.0,0.0,0.0,0.0,0.0,0.0,0.0,0.0,0.0,0.0,0.0,0.0,0.0,0.0,0.0,0.0,0.0,0.0,0.0,0.0,0.0,0.0,0.0,0.0,0.0,0.0,0.0,0.0,0.0,0.0,0.0,0.0,0.0,0.0,0.0,0.0,0.0,0.0,0.0,0.0,0.0,0.0,0.0,0.0,0.0,0.0,0.0,0.0,0.0,0.0,0.0,0.0,0.0,0.0,0.0,0.0,0.0,0.0,0.0,0.0,0.0,0.0,0.0,0.0,0.0,0.0,0.0,0.0,0.0,0.0,0.0,0.0,0.0,0.0,0.0,0.0,0.0,0.0,-1.5205,-1.5831,-1.5449,-1.5801,-1.588,-1.5449,-1.5049,-1.4629,-1.4133,-1.3743,0.0,0.0,0.0,0.0,0.0,0.0,0.0,0.0,0.0,0.0,0.0,0.0,0.0,0.0,0.0,0.0,0.0,0.0,0.0,0.0,0.0,0.0,0.0,0.0,0.0,0.0,0.0,0.0,0.0,0.0,0.0,0.0,0.0,0.0,0.0,0.0,0.0,0.0,0.0,0.0,0.0,0.0,0.0,0.0,0.0,0.0,0.0,0.0,0.0,0.0,0.0,0.0,0.0,0.0,0.0,0.0,0.0,0.0,0.0,0.0,0.0,0.0,0.0,0.0,0.0,0.0,0.0,0.0,0.0,0.0,0.0,0.0,0.0,0.0,0.0,0.0,0.0,0.0,0.0,0.0,0.0,0.0,0.0,0.0,0.0,0.0,0.0,0.0,0.0,0.0,0.0,0.0,0.0,0.0,0.0,0.0,0.0,0.0,0.0,0.0,0.0,0.0,-1.4795,-1.5439,-1.5811,-1.5723,-1.5703,-1.584,-1.542,-1.4883,-1.4153,0.0,0.0,0.0,0.0,0.0,0.0,0.0,0.0,0.0,0.0,0.0,0.0,0.0,0.0,0.0,0.0,0.0,0.0,0.0,0.0,0.0,0.0,0.0,0.0,0.0,0.0,0.0,0.0,0.0,0.0,0.0,0.0,0.0,0.0,0.0,0.0,0.0,0.0,0.0,0.0,0.0,0.0,0.0,0.0,0.0,0.0,0.0,0.0,0.0,0.0,0.0,0.0,0.0,0.0,0.0,0.0,0.0,0.0,0.0,0.0,0.0,0.0,0.0,0.0,0.0,0.0,0.0,0.0,0.0,0.0,0.0,0.0,0.0,0.0,0.0,0.0,0.0,0.0,0.0,0.0,0.0,0.0,0.0,0.0,0.0,0.0,0.0,0.0,0.0,0.0,0.0,0.0,0.0,0.0,0.0,0.0,0.0,0.0,0.0,0.0,0.0,0.0,-1.4075,-1.4746,-1.539,-1.584,-1.5713,-1.5684,-1.587,-1.5332,-1.4728,-1.4143,0.0,0.0,0.0,0.0,0.0,0.0,0.0,0.0,0.0,0.0,0.0,0.0,0.0,0.0,0.0,0.0,0.0,0.0,0.0,0.0,0.0,0.0,0.0,0.0,0.0,0.0,0.0,0.0,0.0,0.0,0.0,0.0,0.0,0.0,0.0,0.0,0.0,0.0,0.0,0.0,0.0,0.0,0.0,0.0,0.0,0.0,0.0,0.0,0.0,0.0,0.0,0.0,0.0,0.0,0.0,0.0,0.0,0.0,0.0,0.0,0.0,0.0,0.0,0.0,0.0,0.0,0.0,0.0,0.0,0.0,0.0,0.0,0.0,0.0,0.0,0.0,0.0,0.0,0.0,0.0,0.0,0.0,0.0,0.0,0.0,0.0,0.0,0.0,0.0,0.0,0.0,0.0,0.0,0.0,0.0,0.0,0.0,0.0,0.0,0.0,0.0,0.0,-1.4104,-1.5254,-1.5919,-1.5469,-1.5831,-1.5919,-1.5459,-1.4601,-1.4114,0.0,0.0,0.0,0.0,0.0,0.0,0.0,0.0,0.0,0.0,0.0,0.0,0.0,0.0,0.0,0.0,0.0,0.0,0.0,0.0,0.0,0.0,0.0,0.0,0.0,0.0,0.0,0.0,0.0,0.0,0.0,0.0,0.0,0.0,0.0,0.0,0.0,0.0,0.0,0.0,0.0,0.0,0.0,0.0,0.0,0.0,0.0,0.0,0.0,0.0,0.0,0.0,0.0,0.0,0.0,0.0,0.0,0.0,0.0,0.0,0.0,0.0,0.0,0.0,0.0,0.0,0.0,0.0,0.0,0.0,0.0,0.0,0.0,0.0,0.0,0.0,0.0,0.0,0.0,0.0,0.0,0.0,0.0,0.0,0.0,0.0,0.0,0.0,0.0,0.0,0.0,0.0,0.0,0.0,0.0,0.0,0.0,0.0,0.0,0.0,0.0,0.0,0.0,-1.4104,-1.4962,-1.5674,-1.588,-1.5703,-1.5674,-1.5889,-1.5078,-1.4463,-1.4124,0.0,0.0,0.0,0.0,0.0,0.0,0.0,0.0,0.0,0.0,0.0,0.0,0.0,0.0,0.0,0.0,0.0,0.0,0.0,0.0,0.0,0.0,0.0,0.0,0.0,0.0,0.0,0.0,0.0,0.0,0.0,0.0,0.0,0.0,0.0,0.0,0.0,0.0,0.0,0.0,0.0,0.0,0.0,0.0,0.0,0.0,0.0,0.0,0.0,0.0,0.0,0.0,0.0,0.0,0.0,0.0,0.0,0.0,0.0,0.0,0.0,0.0,0.0,0.0,0.0,0.0,0.0,0.0,0.0,0.0,0.0,0.0,0.0,0.0,0.0,0.0,0.0,0.0,0.0,0.0,0.0,0.0,0.0,0.0,0.0,0.0,0.0,0.0,0.0,0.0,0.0,0.0,0.0,0.0,0.0,0.0,0.0,0.0,0.0,0.0,0.0,0.0,-1.4104,-1.5029,-1.5703,-1.5791,-1.5723,-1.5703,-1.5791,-1.5176,-1.46,-1.4133,0.0,0.0,0.0,0.0,0.0,0.0,0.0,0.0,0.0,0.0,0.0,0.0,0.0,0.0,0.0,0.0,0.0,0.0,0.0,0.0,0.0,0.0,0.0,0.0,0.0,0.0,0.0,0.0,0.0,0.0,0.0,0.0,0.0,0.0,0.0,0.0,0.0,0.0,0.0,0.0,0.0,0.0,0.0,0.0,0.0,0.0,0.0,0.0,0.0,0.0,0.0,0.0,0.0,0.0,0.0,0.0,0.0,0.0,0.0,0.0,0.0,0.0,0.0,0.0,0.0,0.0,0.0,0.0,0.0,0.0,0.0,0.0,0.0,0.0,0.0,0.0,0.0,0.0,0.0,0.0,0.0,0.0,0.0,0.0,0.0,0.0,0.0,0.0,0.0,0.0,0.0,0.0,0.0,0.0,0.0,0.0,0.0,0.0,0.0,0.0,0.0,0.0,-1.4163,-1.5283,-1.5938,-1.5508,-1.586,-1.5919,-1.5449,-1.5029,-1.46,-1.4133,0.0,0.0,0.0,0.0,0.0,0.0,0.0,0.0,0.0,0.0,0.0,0.0,0.0,0.0,0.0,0.0,0.0,0.0,0.0,0.0,0.0,0.0,0.0,0.0,0.0,0.0,0.0,0.0,0.0,0.0,0.0,0.0,0.0,0.0,0.0,0.0,0.0,0.0,0.0,0.0,0.0,0.0,0.0,0.0,0.0,0.0,0.0,0.0,0.0,0.0,0.0,0.0,0.0,0.0,0.0,0.0,0.0,0.0,0.0,0.0,-1.8073,-1.7285,0.0,0.0,0.0,0.0,0.0,0.0,0.0,0.0,0.0,0.0,0.0,0.0,0.0,0.0,0.0,0.0,0.0,0.0,0.0,0.0,0.0,0.0,0.0,0.0,0.0,0.0,0.0,0.0,0.0,0.0,0.0,0.0,0.0,0.0,0.0,0.0,0.0,0.0,0.0,0.0,-1.46,-1.5508,-1.6056,-1.5958,-1.6036,-1.5919,-1.5449,-1.5029,-1.46,-1.4133,-1.335,0.0,0.0,0.0,0.0,0.0,0.0,0.0,0.0,0.0,0.0,0.0,0.0,0.0,0.0,0.0,0.0,0.0,0.0,0.0,0.0,0.0,0.0,0.0,0.0,0.0,0.0,0.0,0.0,0.0,0.0,0.0,0.0,0.0,0.0,0.0,0.0,0.0,0.0,0.0,0.0,0.0,0.0,0.0,0.0,0.0,0.0,0.0,0.0,0.0,0.0,0.0,0.0,0.0,0.0,0.0,0.0,0.0,0.0,0.0,-1.9384,-1.8543,0.0,0.0,0.0,0.0,0.0,0.0,0.0,0.0,0.0,0.0,0.0,0.0,0.0,0.0,0.0,0.0,0.0,0.0,0.0,0.0,0.0,0.0,0.0,0.0,0.0,0.0,0.0,0.0,0.0,0.0,0.0,0.0,0.0,0.0,0.0,0.0,0.0,0.0,0.0,0.0,-1.4443,-1.5429,-1.6007,-1.5801,-1.5968,-1.5919,-1.5449,-1.5215,-1.4733,-1.3904,-1.314,0.0,0.0,0.0,0.0,0.0,0.0,0.0,0.0,0.0,0.0,0.0,0.0,0.0,0.0,0.0,0.0,0.0,0.0,0.0,0.0,0.0,0.0,0.0,0.0,0.0,0.0,0.0,0.0,0.0,0.0,0.0,0.0,0.0,0.0,0.0,0.0,0.0,0.0,0.0,0.0,0.0,0.0,0.0,0.0,0.0,0.0,0.0,0.0,0.0,0.0,0.0,0.0,0.0,-2.2705,-2.2749,-2.2749,-2.2749,-2.2749,-2.2673,-2.128,-2.0451,-2.0024,-1.9045,0.0,0.0,0.0,0.0,0.0,0.0,0.0,0.0,0.0,0.0,0.0,0.0,0.0,0.0,0.0,0.0,0.0,0.0,0.0,0.0,0.0,0.0,-1.5557,-1.5205,-1.5694,-1.5801,-1.4277,0.0,0.0,0.0,0.0,0.0,0.0,0.0,0.0,0.0,0.0,0.0,-1.4416,-1.5469,-1.6075,-1.5684,-1.5967,-1.5997,-1.5459,-1.541,-1.4936,-1.3882,-1.3105,-1.2149,0.0,0.0,0.0,0.0,0.0,0.0,0.0,0.0,0.0,0.0,0.0,0.0,0.0,0.0,0.0,0.0,0.0,0.0,0.0,0.0,0.0,0.0,0.0,0.0,0.0,0.0,0.0,0.0,0.0,0.0,0.0,0.0,-2.1369,-2.0878,0.0,0.0,0.0,0.0,0.0,0.0,0.0,0.0,0.0,0.0,0.0,0.0,0.0,-2.3919,-2.3762,-2.4213,-2.4223,-2.3788,-2.4262,-2.4462,-2.4462,-2.4462,-2.4462,-2.4449,-2.4255,0.0,-2.1217,-2.0629,0.0,0.0,0.0,0.0,0.0,0.0,0.0,0.0,0.0,0.0,0.0,0.0,0.0,0.0,0.0,0.0,0.0,0.0,0.0,0.0,0.0,0.0,-1.6512,-1.6453,-1.6531,-1.6475,-1.5889,-1.5214,-1.4561,-1.4036,-1.3646,-1.3408,0.0,0.0,0.0,0.0,0.0,0.0,-1.5694,-1.6299,-1.659,-1.6531,-1.658,-1.6278,-1.5478,-1.541,-1.5177,-1.4665,-1.3904,-1.3085,-1.227,-1.1031,0.0,0.0,0.0,0.0,0.0,0.0,0.0,0.0,0.0,0.0,0.0,0.0,0.0,0.0,0.0,0.0,0.0,0.0,0.0,0.0,0.0,0.0,0.0,0.0,0.0,0.0,0.0,0.0,0.0,-2.183,-2.2202,-2.2377,-2.2208,-2.1741,0.0,0.0,0.0,0.0,0.0,0.0,0.0,0.0,0.0,-2.4654,-2.4917,-2.5187,-2.5454,-2.5985,-2.6113,-2.585,-2.6088,-2.6201,-2.6189,-2.5887,-2.5749,-2.5749,-2.5749,-2.5008,-2.3678,-2.2196,-2.1129,-2.0326,0.0,0.0,0.0,0.0,-1.8584,-1.824,-1.8476,-1.7806,-1.6882,-1.7263,0.0,0.0,0.0,0.0,0.0,0.0,0.0,-1.5781,-1.5781,-1.6436,-1.71,-1.71,-1.7275,-1.7334,-1.6936,-1.6545,-1.5967,-1.5011,-1.4679,-1.4424,-1.3919,-1.3685,0.0,0.0,0.0,-1.4083,-1.4221,-1.4764,-1.5056,-1.4866,-1.4848,-1.4617,-1.4109,-1.4055,-1.3775,-1.3148,-1.2622,-1.1961,-1.1182,-1.0285,-0.958,0.0,0.0,0.0,0.0,0.0,0.0,0.0,0.0,0.0,0.0,0.0,0.0,0.0,0.0,0.0,0.0,0.0,0.0,0.0,0.0,0.0,0.0,0.0,0.0,0.0,0.0,0.0,0.0,-2.2603,-2.2835,-2.3124,-2.2901,-2.2435,0.0,0.0,0.0,0.0,0.0,0.0,-2.5158,-2.5467,-2.5757,-2.6155,-2.6324,-2.6563,-2.6914,-2.7329,-2.7494,-2.7494,-2.7494,-2.7419,-2.7304,-2.6889,-2.6625,-2.6499,-2.6499,-2.6248,-2.5674,-2.374,-2.2623,-2.2033,-2.1041,-2.0652,-2.0621,-2.0426,-1.9894,-1.9327,-1.9775,-1.8824,-1.7481,-1.8007,-1.7364,-1.6349,-1.5879,0.0,0.0,0.0,0.0,-1.6427,-1.6427,-1.7005,-1.7539,-1.7539,-1.7783,-1.793,-1.7607,-1.7539,-1.7187,-1.5986,-1.5654,-1.5371,-1.4708,-1.4311,0.0,-1.3359,-1.3566,-1.376,-1.3616,-1.3859,-1.3949,-1.3713,-1.3639,-1.3442,-1.3143,-1.3028,-1.2726,-1.2143,-1.1684,-1.1128,-1.0439,-0.9706,-0.9191,-0.8898,0.0,0.0,0.0,0.0,0.0,0.0,0.0,0.0,0.0,0.0,0.0,0.0,0.0,0.0,0.0,0.0,0.0,0.0,0.0,0.0,0.0,0.0,0.0,0.0,0.0,0.0,0.0,0.0,0.0,-2.1837,-2.4108,0.0,0.0,0.0,0.0,-2.4109,-2.5063,-2.569,-2.5774,-2.6662,-2.7198,-2.7226,-2.7729,-2.8008,-2.8021,-2.8047,-2.8059,-2.8059,-2.8059,-2.7795,-2.7281,-2.7256,-2.6989,-2.6499,-2.6499,-2.6474,-2.6361,-2.5172,-2.4368,-2.3816,-2.317,-2.2932,-2.2945,-2.291,-2.2126,-2.1039,-2.068,-1.9642,-1.8541,-1.857,-1.8012,-1.7236,-1.6765,-1.6367,0.0,0.0,-1.6682,-1.7314,-1.7314,-1.7646,-1.7978,-1.7978,-1.7998,-1.8008,-1.7978,-1.7978,-1.7725,-1.6804,-1.6328,-1.6046,-1.6007,0.0,-1.4455,-1.5719,-1.4387,-1.3856,-1.5517,-1.5002,-1.4449,-1.4466,-1.423,-1.3876,-1.3418,-1.3145,-1.2978,-1.2948,-1.222,-1.16,-1.1256,-1.0217,-0.9519,-0.9198,-0.8664,0.0,0.0,0.0,0.0,0.0,0.0,0.0,0.0,0.0,0.0,0.0,0.0,0.0,0.0,0.0,0.0,0.0,0.0,0.0,0.0,0.0,0.0,0.0,0.0,0.0,0.0,0.0,0.0,-2.434,-2.4888,0.0,-2.4338,-2.4966,-2.5647,-2.6179,-2.6556,-2.6918,-2.7274,-2.7624,-2.7971,-2.8335,-2.8536,-2.8812,-2.9189,-2.9189,-2.9189,-2.9189,-2.8812,-2.8499,-2.8335,-2.7971,-2.7507,-2.7014,-2.7014,-2.6826,-2.6461,-2.6072,-2.5536,-2.4971,-2.4399,-2.4186,-2.406,-2.2832,-2.2102,-2.1518,-2.0208,-1.9439,-1.9053,-1.9053,-1.8857,-1.8574,-1.8418,-1.8262,-1.8169,-1.8169,-1.8369,-1.8603,-1.8603,-1.8721,-1.8838,-1.8838,-1.8613,-1.8383,-1.8383,-1.8169,-1.792,-1.7617,-1.7207,-1.6858,-1.6543,-1.6078,-1.5647,-1.5361,-1.4582,-1.4094,-1.4209,-1.3565,-1.3021,-1.2854,-1.255,-1.2231,-1.188,-1.1602,-1.1452,-1.1452,-1.1202,-1.0881,-1.0537,-1.001,-0.9546,-0.9217,-0.8851,-0.851,0.0,0.0,0.0,0.0,0.0,0.0,0.0,0.0,0.0,0.0,0.0,0.0,0.0,0.0,0.0,0.0,0.0,0.0,0.0,0.0,0.0,0.0,0.0,0.0,0.0,-2.4061,-2.4843,-2.5462,-2.5764,-2.5941,-2.6026,-2.627,-2.6763,-2.758,-2.7756,-2.7996,-2.836,-2.8561,-2.885,-2.9202,-2.9176,-2.9402,-2.9792,-2.9792,-2.9792,-2.9792,-2.9402,-2.9076,-2.8875,-2.8512,-2.8084,-2.7557,-2.7557,-2.7356,-2.704,-2.6851,-2.6549,-2.6113,-2.5586,-2.5162,-2.4704,-2.3467,-2.2575,-2.1796,-2.0243,-1.9754,-1.9697,-1.9541,-1.9502,-1.9473,-1.9336,-1.9287,-1.9287,-1.9287,-1.9287,-1.9287,-1.9287,-1.9287,-1.9287,-1.9287,-1.8955,-1.8527,-1.8199,-1.7796,-1.7432,-1.7123,-1.7359,-1.7401,-1.6764,-1.6412,-1.5917,-1.5115,-1.4291,-1.3691,-1.3459,-1.2753,-1.2231,-1.2037,-1.175,-1.1456,-1.1162,-1.0875,-1.07,-1.06,-1.0593,-1.0459,-1.0097,-0.984,-0.9546,-0.9217,-0.8858,-0.8617,-0.8543,0.0,0.0,0.0,0.0,0.0,0.0,0.0,0.0,0.0,0.0,0.0,0.0,0.0,0.0,0.0,0.0,0.0,0.0,0.0,0.0,0.0,0.0,0.0,-2.3106,-2.4587,-2.546,-2.4963,-2.6829,-2.772,-2.67,-2.7532,-2.816,-2.816,-2.8612,-2.8913,-2.8913,-2.949,-2.9792,-2.9792,-2.9792,-2.9792,-2.9792,-2.9792,-2.9792,-2.9792,-2.9792,-2.9503,-2.8913,-2.8913,-2.8612,-2.8134,-2.8134,-2.8122,-2.8059,-2.7496,-2.7258,-2.7183,-2.6713,-2.5873,-2.5004,-2.4969,-2.3672,-2.1849,-2.0934,-2.0605,-2.0537,-2.0078,-1.9932,-1.9853,-1.9453,-1.9326,-1.9326,-1.9326,-1.9326,-1.9326,-1.9326,-1.9326,-1.9326,-1.9326,-1.8994,-1.8379,-1.7423,-1.6909,-1.6332,-1.5376,-1.6655,-1.7613,-1.6706,-1.579,-1.5199,-1.5199,-1.3557,0.0,-1.3564,-1.2879,-1.2305,-1.2305,-1.2044,-1.175,-1.1415,-1.1156,-1.0901,-1.0613,-1.0586,-1.0445,-1.0097,-0.984,-0.9546,-0.9217,-0.8697,-0.8569,-0.8804,0.0,0.0,0.0,0.0,0.0,0.0,0.0,0.0,0.0,0.0,0.0,0.0,0.0,0.0,0.0,0.0,0.0,0.0,0.0,0.0,0.0,-2.3308,-2.4759,-2.4906,-2.5706,-2.665,-2.7634,-2.8298,-2.875,-2.8863,-2.9151,-2.9327,-2.9327,-2.9465,-2.9553,-2.9553,-2.9704,-2.9792,-2.9792,-2.9792,-2.9792,-2.9792,-2.9792,-2.9792,-2.9792,-2.9792,-2.9704,-2.9553,-2.9553,-2.9239,-2.8662,-2.8662,-2.8473,-2.8024,-2.7102,-2.6541,-2.6227,-2.641,-2.5873,-2.4898,-2.4192,-2.2675,-2.0934,-2.0683,-2.0605,-2.0586,-2.0458,-2.0429,-2.04,-2.0292,-2.0253,-2.0253,-2.0253,-2.0253,-2.0253,-2.0253,-2.0253,-2.0253,-2.0253,-1.9883,-1.9215,-1.7972,-1.7334,-1.6679,-1.5426,-1.5623,-1.5877,-1.5623,-1.5376,-1.5199,-1.5199,-1.4127,-1.3419,-1.3673,-1.2879,-1.2305,-1.2305,-1.2044,-1.175,-1.1415,-1.1156,-1.0901,-1.0613,-1.0354,-1.02,-1.009,-0.984,-0.9546,-0.9217,-0.9299,-0.9152,0.0,0.0,0.0,0.0,0.0,0.0,0.0,0.0,0.0,0.0,0.0,0.0,0.0,0.0,0.0,0.0,0.0,0.0,0.0,0.0,0.0,0.0,-2.4757,-2.6201,-2.6892,-2.7281,-2.7846,-2.8775,-2.9101,-2.9415,-2.9767,-2.9792,-2.9792,-2.9792,-2.9792,-2.9792,-2.9792,-2.9792,-2.9792,-2.9792,-2.9792,-2.9792,-2.9792,-2.9792,-2.9792,-2.9792,-2.9792,-2.9792,-2.9792,-2.9792,-2.9616,-2.9289,-2.9289,-2.9114,-2.8712,-2.7372,-2.6655,-2.6362,0.0,0.0,0.0,0.0,-2.1565,-2.0605,-2.0605,-2.0605,-2.0605,-2.0605,-2.0605,-2.0605,-2.0605,-2.0605,-2.0605,-2.0605,-2.0605,-2.0605,-2.0605,-2.0605,-2.0605,-2.0605,-2.0234,-1.9571,-1.8413,-1.7347,-1.6261,-1.511,-1.4408,0.0,-1.3983,-1.4307,-1.445,-1.4055,-1.3491,-1.3091,-1.3091,-1.2629,-1.2305,-1.2305,-1.2151,-1.1931,-1.1637,-1.1343,0.0,0.0,0.0,-1.0247,-1.012,-0.984,0.0,0.0,0.0,0.0,0.0,-0.9916,0.0,0.0,-0.961,-0.9644,0.0,0.0,0.0,0.0,0.0,0.0,0.0,0.0,0.0,0.0,0.0,0.0,0.0,0.0,0.0,0.0,-2.6273,-2.7291,-2.8687,-2.895,-2.8988,-2.8988,-2.9478,-2.9792,-2.9792,-2.9792,-2.9792,-2.9792,-2.9792,-2.9792,-2.9792,-2.9792,0.0,0.0,0.0,-2.9792,-2.9792,-2.9792,-2.9792,-2.9792,-2.9792,-2.9792,-2.9792,-2.9792,-2.9792,-2.9792,-2.9792,-2.9792,-2.9677,-2.7933,-2.7011,-2.6488,-2.4738,-2.3199,-2.1886,-2.0934,-2.0605,-2.0605,-2.0605,0.0,0.0,-2.0605,-2.0605,-2.0605,-2.0605,-2.0605,-2.0605,-2.0605,-2.0605,-2.0605,-2.0605,-2.0605,-2.0605,-2.0605,-2.0273,-1.9658,-1.8563,-1.7073,-1.5605,-1.4433,-1.3191,-1.2345,-1.2311,-1.2989,-1.3273,-1.2409,-1.2305,-1.2305,-1.2305,-1.2305,-1.2305,-1.2305,-1.2305,0.0,-1.1933,-1.163,-1.1349,-1.1062,-1.0834,-1.0539,-1.018,-0.998,-0.9866,-0.9833,-0.9866,-1.0151,-1.064,-1.0673,-1.0821,-1.1029,-1.0508,-1.0388,0.0,0.0,0.0,0.0,0.0,0.0,0.0,0.0,0.0,0.0,0.0,0.0,0.0,0.0,0.0,-2.5523,-2.7205,-2.8524,-2.885,-2.934,-2.9628,-2.9628,-2.9729,-2.9792,-2.9792,-2.9792,-2.9792,-2.9792,-2.9792,-2.9792,-2.9792,-2.9792,-2.9792,-2.9792,-2.9792,-2.9792,-2.9792,-2.9792,-2.9792,-2.9792,-2.9792,0.0,-2.9792,-2.9792,-2.9792,-2.9792,-2.9792,-2.9792,-2.9624,-2.7521,-2.5177,-2.2941,-2.3,-2.26,-2.1886,-2.0934,-2.0605,-2.0605,-2.0605,-2.0605,-2.0605,-2.0605,-2.0605,-2.0605,-2.0605,-2.0605,0.0,-2.0605,-2.0605,-2.0605,-2.0605,-2.0605,-2.0605,-2.0605,-2.0537,-1.986,-1.7661,-1.6929,-1.597,-1.3584,-1.2889,-1.2623,-1.2345,-1.2445,-1.2519,-1.2342,-1.2305,-1.2305,-1.2305,-1.2305,-1.2305,-1.2305,-1.2305,-1.2184,-1.1933,-1.1852,-1.1657,-1.1329,-1.1255,-1.1022,-1.0526,-1.0868,-1.0982,-1.0748,-1.0969,-1.1029,-1.0909,-1.1142,-1.1255,-1.1302,-1.1189,-1.1076,0.0,0.0,0.0,0.0,0.0,0.0,0.0,0.0,0.0,0.0,0.0,-2.3816,-2.4644,0.0,-2.6628,-2.7168,-2.8161,-2.9001,-2.9315,-2.9616,-2.9792,-2.9792,-2.9792,-2.9792,-2.9792,-2.9792,-2.9792,-2.9792,-2.9792,-2.9792,-2.9792,-2.9792,-2.9792,-2.9792,-2.9792,-2.9792,-2.9792,-2.9792,-2.9792,-2.9792,-2.9792,-2.9792,-2.9792,-2.9792,-2.9792,-2.9792,-2.9792,-2.9792,-2.9624,-2.7424,-2.5005,-2.2676,-2.2402,-2.1906,-2.1221,-2.0789,-2.0605,-2.0605,-2.0605,-2.0605,-2.0605,-2.0605,-2.0605,-2.0605,-2.0605,-2.0605,-2.0605,-2.0605,-2.0605,-2.0605,-2.0605,-2.0605,-2.0605,-2.0605,-2.0605,-2.0265,-1.8999,-1.7652,-1.6231,-1.4866,-1.3502,-1.2516,-1.2325,-1.2305,-1.2305,-1.2305,-1.2305,-1.2305,-1.2305,-1.2305,-1.2305,-1.2305,-1.2305,-1.2245,-1.2098,-1.1986,-1.1744,-1.1409,-1.1389,-1.1296,-1.1002,-1.1269,-1.1322,-1.1209,-1.1322,-1.143,-1.1464,-1.1577,-1.1724,-1.1864,-1.1864,-1.171,0.0,0.0,0.0,0.0,0.0,0.0,0.0,-2.2074,-2.2598,-2.3684,-2.4713,-2.5724,-2.665,-2.7231,-2.7896,-2.875,-2.8988,-2.9252,-2.9729,-2.9792,-2.9792,-2.9792,-2.9792,-2.9792,-2.9792,-2.9792,-2.9792,-2.9792,-2.9792,-2.9792,-2.9792,-2.9792,-2.9792,-2.9792,-2.9792,-2.9792,-2.9792,-2.9792,-2.9792,-2.9792,-2.9792,-2.9792,-2.9792,-2.9792,-2.9792,-2.9792,-2.9792,-2.9663,-2.9326,-2.7302,-2.5376,-2.3508,-2.2338,-2.1437,-2.0723,-2.0635,-2.0605,-2.0605,-2.0605,-2.0605,-2.0605,-2.0605,-2.0605,-2.0605,-2.0605,-2.0605,-2.0605,-2.0605,-2.0605,-2.0605,-2.0605,-2.0605,-2.0605,-2.0605,-2.0537,-2.0401,-2.0198,-1.8177,-1.6271,-1.6024,-1.4037,-1.2371,-1.2311,-1.2305,-1.2305,-1.2305,-1.2305,-1.2305,-1.2305,-1.2305,-1.2305,-1.2305,-1.2305,-1.2305,-1.2305,-1.2091,-1.183,-1.153,-1.1563,-1.1535,-1.1516,-1.1563,-1.1562,-1.1562,-1.1562,-1.1717,-1.1986,-1.1986,-1.2078,-1.2305,-1.2305,-1.2178,-2.3529,-2.2772,-2.2734,-2.4079,-2.371,-2.3511,0.0,-2.5493,-2.5448,-2.659,-2.7306,-2.7783,-2.7896,-2.8373,-2.875,-2.8875,-2.9365,-2.9716,-2.9779,-2.9792,-2.9792,-2.9792,-2.9792,-2.9792,-2.9792,-2.9792,-2.9792,-2.9792,-2.9792,-2.9792,-2.9792,-2.9792,-2.9792,-2.9792,-2.9792,-2.9792,-2.9792,-2.9792,-2.9792,-2.9792,-2.9792,-2.9792,-2.9792,-2.9792,-2.9792,-2.9792,-2.9792,-2.9236,-2.8187,-2.7005,-2.5574,-2.3959,-2.2468,-2.1592,-2.1073,-2.0752,-2.0605,-2.0605,-2.0605,-2.0605,-2.0605,-2.0605,-2.0605,-2.0605,-2.0605,-2.0605,-2.0605,-2.0605,-2.0605,-2.0605,-2.0605,-2.0605,-2.0605,-2.0605,-2.0273,-1.9716,-1.8781,-1.7332,-1.5872,-1.4682,-1.3523,-1.265,-1.2345,-1.2305,-1.2305,-1.2305,-1.2305,-1.2305,-1.2305,-1.2305,-1.2305,-1.2305,-1.2305,-1.2305,-1.2305,-1.2271,-1.2131,-1.1873,-1.2064,-1.2091,-1.1866,-1.2064,-1.2204,-1.2204,-1.2204,-1.2225,-1.2258,-1.2258,-1.2271,-1.2305,-1.2305,-1.2285,-2.4144,-2.3657,-2.3518,-2.4205,-2.4515,-2.4976,-2.6215,-2.6298,-2.6537,-2.7946,-2.8423,-2.8687,-2.9026,-2.9277,-2.9428,-2.9428,-2.9641,-2.9792,-2.9792,-2.9792,-2.9792,-2.9792,-2.9792,-2.9792,-2.9792,-2.9792,-2.9792,-2.9792,-2.9792,-2.9792,-2.9792,-2.9792,-2.9792,-2.9792,-2.9792,-2.9792,-2.9792,-2.9792,-2.9792,-2.9792,-2.9792,-2.9792,-2.9792,-2.9792,-2.9792,-2.9792,-2.9792,-2.9157,-2.8004,-2.6924,-2.5607,-2.4032,-2.2478,-2.1621,-2.1142,-2.0732,-2.0605,-2.0605,-2.0605,-2.0605,-2.0605,-2.0605,-2.0605,-2.0605,-2.0605,-2.0605,-2.0605,-2.0605,-2.0605,-2.0605,-2.0605,-2.0605,-2.0605,-2.0605,-2.0234,-1.9799,-1.9336,-1.764,-1.6007,-1.5255,-1.3855,-1.2744,-1.2623,-1.2596,-1.2596,-1.2596,-1.2412,-1.2305,-1.2305,-1.2305,-1.2305,-1.2305,-1.2305,-1.2305,-1.2305,-1.2305,-1.2251,-1.2131,-1.2231,-1.2245,-1.2124,-1.2238,-1.2305,-1.2305,-1.2305,-1.2305,-1.2305,-1.2305,-1.2305,-1.2305,-1.2305,-1.2392,-2.4556,-2.4262,-2.4067,-2.4368,-2.5021,-2.5787,-2.6549,-2.6839,-2.7293,-2.8612,-2.9013,-2.9289,-2.9716,-2.9792,-2.9792,-2.9792,-2.9792,-2.9792,-2.9792,-2.9792,-2.9792,-2.9792,-2.9792,-2.9792,-2.9792,-2.9792,-2.9792,-2.9792,-2.9792,-2.9792,-2.9792,-2.9792,-2.9792,-2.9792,-2.9792,-2.9792,-2.9792,-2.9792,-2.9792,-2.9792,-2.9792,-2.9792,-2.9792,-2.9792,-2.9792,-2.9792,-2.9792,-2.9157,-2.8004,-2.6924,-2.5642,-2.421,-2.2569,-2.1768,-2.1463,-2.086,-2.0605,-2.0605,-2.0605,-2.0605,-2.0605,-2.0605,-2.0605,-2.0605,-2.0605,-2.0605,-2.0605,-2.0605,-2.0605,-2.0605,-2.0605,-2.0605,-2.0605,-2.0605,-2.0146,-1.9691,-1.9496,-1.7674,-1.5917,-1.5538,-1.407,-1.2911,-1.2911,-1.2911,-1.2884,-1.2797,-1.2596,-1.2392,-1.2311,-1.2305,-1.2305,-1.2305,-1.2305,-1.2305,-1.2305,-1.2305,-1.2305,-1.2305,-1.2305,-1.2305,-1.2305,-1.2305,-1.2305,-1.2305,-1.2305,-1.2305,-1.2305,-1.2305,-1.2305,-1.2305,-1.2305,-1.2496,-2.5094,-2.4558,-2.4255,-2.5285,-2.5573,-2.5887,-2.7005,-2.767,-2.8222,-2.8762,-2.9377,-2.9779,-2.9792,-2.9792,-2.9792,-2.9792,-2.9792,-2.9792,-2.9792,-2.9792,-2.9792,-2.9792,-2.9792,-2.9792,-2.9792,-2.9792,-2.9792,-2.9792,-2.9792,-2.9792,-2.9792,-2.9792,-2.9792,-2.9792,-2.9792,-2.9792,-2.9792,-2.9792,-2.9792,-2.9792,-2.9792,-2.9792,-2.9792,-2.9792,-2.9792,-2.9792,-2.9792,-2.9157,-2.8004,-2.6924,-2.5839,-2.4598,-2.2647,-2.2129,-2.2314,-2.1075,-2.0605,-2.0605,-2.0605,-2.0605,-2.0605,-2.0605,-2.0605,-2.0605,-2.0605,-2.0605,-2.0605,-2.0605,-2.0605,-2.0605,-2.0605,-2.0605,-2.0605,-2.0605,-1.9959,-1.9147,-1.8472,-1.6899,-1.5407,-1.4758,-1.3842,-1.32,-1.32,-1.32,-1.3093,-1.2831,-1.2777,-1.2663,-1.2338,-1.2305,-1.2305,-1.2305,-1.2305,-1.2305,-1.2305,-1.2305,-1.2305,-1.2305,-1.2305,-1.2305,-1.2305,-1.2305,-1.2305,-1.2305,-1.2305,-1.2305,-1.2305,-1.2305,-1.2305,-1.2305,-1.2305,-1.2496,-2.4369,-2.4697,-2.5146,-2.5498,-2.6163,-2.6904,-2.7657,-2.826,-2.8812,-2.939,-2.9654,-2.9792,-2.9792,-2.9792,-2.9792,-2.9792,-2.9792,-2.9792,-2.9792,-2.9792,-2.9792,-2.9792,-2.9792,-2.9792,-2.9792,-2.9792,-2.9792,-2.9792,-2.9792,-2.9792,-2.9792,-2.9792,-2.9792,-2.9792,-2.9792,-2.9792,-2.9792,-2.9792,-2.9792,-2.9792,-2.9792,-2.9792,-2.9792,-2.9792,-2.9792,-2.9792,-2.9792,-2.8752,-2.7005,-2.6637,-2.5389,-2.3577,-2.2637,-2.2383,-2.2393,-2.1377,-2.1016,-2.0967,-2.0713,-2.0605,-2.0605,-2.0605,-2.0605,-2.0605,-2.0605,-2.0605,-2.0605,-2.0605,-2.0605,-2.0605,-2.0605,-2.0605,-2.0605,-2.0605,-2.0127,-1.9624,-1.9421,-1.7746,-1.6215,-1.5757,-1.4478,-1.346,-1.346,-1.346,-1.336,-1.31,-1.2712,-1.2418,-1.2311,-1.2305,-1.2305,-1.2305,-1.2305,-1.2305,-1.2305,-1.2305,-1.2305,-1.2305,-1.2305,-1.2305,-1.2305,-1.2305,-1.2305,-1.2305,-1.2305,-1.2305,-1.2305,-1.2305,-1.2305,-1.2305,-1.2543,-1.2797,-2.4519,-2.5071,-2.5699,-2.6101,-2.6741,-2.7482,-2.8235,-2.8487,-2.88,-2.9365,-2.9327,-2.9189,-2.9189,-2.9189,-2.9252,-2.9453,-2.9478,-2.9553,-2.9767,-2.9792,-2.9792,-2.9792,-2.9792,-2.9792,-2.9792,-2.9792,-2.9792,-2.9792,-2.9792,-2.9792,-2.9792,-2.9792,-2.9792,-2.9792,-2.9792,-2.9792,-2.9792,-2.9792,-2.9792,-2.9792,-2.9792,-2.9792,-2.9792,-2.9792,-2.9792,-2.9792,-2.9365,-2.8171,-2.6483,-2.6058,-2.4808,-2.3052,-2.2676,-2.2607,-2.2574,-2.1561,-2.1298,-2.1377,-2.0811,-2.0605,-2.0605,-2.0605,-2.0605,-2.0605,-2.0605,-2.0605,-2.0605,-2.0605,-2.0605,-2.0605,-2.0605,-2.0605,-2.0605,-2.0605,-2.0234,-1.9838,-1.9602,-1.8366,-1.7022,-1.6172,-1.512,-1.4234,-1.3842,-1.3673,-1.354,-1.3353,-1.2846,-1.2455,-1.2318,-1.2305,-1.2305,-1.2305,-1.2305,-1.2305,-1.2305,-1.2305,-1.2305,-1.2305,-1.2305,-1.2305,-1.2305,-1.2305,-1.2305,-1.2305,-1.2305,-1.2305,-1.2305,-1.2305,-1.2305,-1.2311,-1.2643,-1.2951,-2.5511,-2.5686,-2.5988,-2.7055,-2.7344,-2.7632,-2.8612,-2.8499,-2.8285,-2.875,-2.8461,-2.8097,-2.8072,-2.8109,-2.831,-2.8762,-2.89,-2.9164,-2.9716,-2.9792,-2.9792,-2.9792,-2.9792,-2.9792,-2.9792,-2.9792,-2.9792,-2.9792,-2.9792,-2.9792,-2.9792,-2.9792,-2.9792,-2.9792,-2.9792,-2.9792,-2.9792,-2.9792,-2.9792,-2.9792,-2.9792,-2.9792,-2.9792,-2.9753,-2.9702,-2.9663,-2.8518,-2.7412,-2.6348,-2.5252,-2.4125,-2.3052,-2.2705,-2.274,-2.2945,-2.1717,-2.1562,-2.1797,-2.0967,-2.0644,-2.0605,-2.0605,-2.0605,-2.0605,-2.0605,-2.0605,-2.0605,-2.0605,-2.0605,-2.0605,-2.0605,-2.0605,-2.0605,-2.0605,-2.0254,-1.9783,-1.9201,-1.8698,-1.7826,-1.6129,-1.5703,-1.5296,-1.4292,-1.3854,-1.362,-1.3606,-1.3146,-1.2697,-1.2365,-1.2311,-1.2305,-1.2305,-1.2318,-1.2318,-1.2305,-1.2318,-1.2318,-1.2305,-1.2305,-1.2305,-1.2305,-1.2305,-1.2305,-1.2305,-1.2305,-1.2305,-1.2305,-1.2305,-1.2311,-1.2331,-1.267,-1.2971,-2.6235,-2.6841,-2.7532,-2.7821,-2.821,-2.8473,-2.8348,-2.8524,-2.8599,-2.8373,-2.821,-2.7984,-2.757,-2.816,-2.8599,-2.836,-2.9026,-2.9616,-2.9779,-2.9792,-2.9792,-2.9792,-2.9792,-2.9792,-2.9792,-2.9792,-2.9792,-2.9792,-2.9792,-2.9792,-2.9792,-2.9792,-2.9792,-2.9792,-2.9792,-2.9792,-2.9792,-2.9792,-2.9792,-2.9792,-2.9792,-2.9792,-2.9753,-2.8937,-2.8518,-2.8466,-2.7371,-2.6254,-2.521,-2.4914,-2.4125,-2.3081,-2.2974,-2.3003,-2.3023,-2.2379,-2.2256,-2.2275,-2.1738,-2.1153,-2.0605,-2.0605,-2.0605,-2.0605,-2.0605,-2.0605,-2.0605,-2.0605,-2.0605,-2.0605,-2.0605,-2.0605,-2.0605,-2.0605,-2.0517,-2.0391,-2.0216,-1.9476,-1.8435,-1.7155,-1.5587,-1.4412,-1.413,-1.4021,-1.3901,-1.3633,-1.3327,-1.2979,-1.271,-1.2438,-1.2305,-1.2305,-1.2536,-1.2583,-1.2318,-1.2543,-1.2576,-1.2318,-1.2305,-1.2305,-1.2305,-1.2305,-1.2305,-1.2305,-1.2305,-1.2305,-1.2305,-1.2305,-1.2418,-1.2677,-1.2985,-1.3253,-2.7153,-2.7632,-2.816,-2.8411,-2.8511,-2.8486,-2.8185,-2.7971,-2.7682,-2.7118,-2.6829,-2.6565,-2.6264,-2.7105,-2.7821,-2.7758,-2.8687,-2.9503,-2.9754,-2.9792,-2.9792,-2.9792,-2.9792,-2.9792,-2.9792,-2.9792,-2.9792,-2.9792,-2.9792,-2.9792,-2.9792,-2.9792,-2.9792,-2.9792,-2.9792,-2.9792,-2.9792,-2.9792,-2.9792,-2.9792,-2.9792,-2.9792,-2.9753,-2.8636,-2.8096,-2.8004,-2.6449,-2.5378,-2.4745,-2.4253,-2.3671,-2.3091,-2.3091,-2.3091,-2.3042,-2.2666,-2.251,-2.2451,-2.2031,-2.1603,-2.1182,-2.1182,-2.1016,-2.0859,-2.0859,-2.0723,-2.0605,-2.0605,-2.0605,-2.0605,-2.0605,-2.0605,-2.0605,-2.0605,-2.0605,-2.0605,-2.0605,-2.0128,-1.9234,-1.7617,-1.5959,-1.465,-1.4166,-1.4088,-1.4035,-1.3861,-1.348,-1.3193,-1.3146,-1.2766,-1.2536,-1.2536,-1.2804,-1.2864,-1.2563,-1.269,-1.2656,-1.2318,-1.2305,-1.2305,-1.2305,-1.2305,-1.2305,-1.2305,-1.2305,-1.2305,-1.2305,-1.2432,-1.2623,-1.2797,-1.32,-1.3447,-2.8084,-2.8273,-2.8423,-2.8787,-2.8561,-2.816,-2.7946,-2.7178,-2.6311,-2.5624,-2.5134,-2.4763,-2.472,-2.5674,-2.665,-2.7128,-2.816,-2.9126,-2.9716,-2.9792,-2.9792,-2.9792,-2.9792,-2.9792,-2.9792,-2.9792,-2.9792,-2.9792,-2.9792,-2.9792,-2.9792,-2.9792,-2.9792,-2.9792,-2.9792,-2.9792,-2.9792,-2.9792,-2.9792,-2.9792,-2.9792,-2.9702,-2.9534,-2.8398,-2.7804,-2.755,-2.5493,-2.4585,-2.45,-2.3507,-2.3091,-2.3091,-2.3091,-2.3091,-2.3052,-2.2734,-2.2598,-2.2539,-2.2178,-2.2051,-2.2031,-2.1924,-2.1631,-2.1268,-2.121,-2.0967,-2.0683,-2.0625,-2.0605,-2.0605,-2.0605,-2.0605,-2.0605,-2.0605,-2.0605,-2.0605,-2.0605,-2.0489,-1.9795,-1.7698,-1.6437,-1.5379,-1.4292,-1.4088,-1.4088,-1.4088,-1.3621,-1.336,-1.3573,-1.312,-1.2797,-1.2844,-1.308,-1.3126,-1.2811,-1.2824,-1.2703,-1.2325,-1.2305,-1.2305,-1.2305,-1.2305,-1.2305,-1.2305,-1.2305,-1.2305,-1.2305,-1.2643,-1.2804,-1.2857,-1.338,-1.3626,-2.8725,-2.9139,-2.9415,-2.8988,-2.8813,-2.8423,-2.709,-2.6637,-2.621,-2.5159,-2.485,-2.465,-2.423,-2.5443,-2.6524,-2.6612,-2.7908,-2.9126,-2.9716,-2.9792,-2.9792,-2.9792,-2.9792,-2.9792,-2.9792,-2.9792,-2.9792,-2.9792,-2.9792,-2.9792,-2.9792,-2.9792,-2.9792,-2.9792,-2.9792,-2.9792,-2.9792,-2.9792,-2.9792,-2.9792,-2.9792,-2.9326,-2.8347,-2.729,-2.6254,-2.5284,-2.3963,-2.3387,-2.3387,-2.3178,-2.3091,-2.3091,-2.3091,-2.3091,-2.3081,-2.3013,-2.2984,-2.2974,-2.2906,-2.2877,-2.2769,-2.2119,-2.1836,-2.1709,-2.1307,-2.1142,-2.1045,-2.0713,-2.0605,-2.0605,-2.0605,-2.0605,-2.0605,-2.0605,-2.0605,-2.0605,-2.0605,-1.9883,-1.8877,-1.7545,-1.6437,-1.5379,-1.4292,-1.4088,-1.4088,-1.4088,-1.3794,-1.3547,-1.3593,-1.312,-1.2884,-1.3106,-1.3353,-1.3347,-1.2831,-1.2979,-1.2893,-1.2338,-1.2305,-1.2305,-1.2305,-1.2305,-1.2305,-1.2305,-1.2305,-1.2305,-1.2305,-1.2643,-1.2918,-1.314,-1.344,-1.3733,-2.9302,-2.9578,-2.9654,-2.9038,-2.8675,-2.8059,-2.6389,-2.5619,-2.4946,-2.4086,-2.3684,-2.3496,-2.354,-2.4669,-2.5699,-2.5996,-2.7168,-2.8373,-2.9227,-2.934,-2.9453,-2.9754,-2.9792,-2.9792,-2.9792,-2.9792,-2.9792,-2.9792,-2.9792,-2.9792,-2.9792,-2.9792,-2.9792,-2.9792,-2.9792,-2.9792,-2.9792,-2.9792,-2.9792,-2.9792,-2.9792,-2.9197,-2.8044,-2.7005,-2.588,-2.4745,-2.3594,-2.3091,-2.3091,-2.3091,-2.3091,-2.3091,-2.3091,-2.3091,-2.3091,-2.3091,-2.3091,-2.3091,-2.3091,-2.3091,-2.2994,-2.2412,-2.206,-2.1846,-2.1641,-2.125,-2.084,-2.0664,-2.0605,-2.0605,-2.0605,-2.0605,-2.0605,-2.0605,-2.0605,-2.0605,-2.0605,-2.0206,-1.9313,-1.7617,-1.6887,-1.5992,-1.4377,-1.4088,-1.4088,-1.4088,-1.3793,-1.366,-1.3854,-1.3487,-1.3273,-1.338,-1.3701,-1.3694,-1.3247,-1.3213,-1.3013,-1.2596,-1.2385,-1.2305,-1.2305,-1.2305,-1.2305,-1.2305,-1.2305,-1.2378,-1.2569,-1.2878,-1.3146,-1.34,-1.3734,-1.3948,-2.9694,-2.9845,-2.9628,-2.8925,-2.8423,-2.7632,-2.5837,-2.4682,-2.3803,-2.307,-2.2581,-2.2447,-2.2844,-2.3847,-2.4858,-2.5485,-2.644,-2.7532,-2.8712,-2.8888,-2.9101,-2.9729,-2.9792,-2.9792,-2.9792,-2.9792,-2.9792,-2.9792,-2.9792,-2.9792,-2.9792,-2.9792,-2.9792,-2.9792,-2.9792,-2.9792,-2.9792,-2.9792,-2.9792,-2.9792,-2.9792,-2.9079,-2.7723,-2.6883,-2.5724,-2.4372,-2.3474,-2.3091,-2.3091,-2.3091,-2.3091,-2.3091,-2.3091,-2.3091,-2.3091,-2.3091,-2.3091,-2.3091,-2.3091,-2.3091,-2.3023,-2.2646,-2.2295,-2.1982,-2.1807,-2.126,-2.0723,-2.0635,-2.0605,-2.0605,-2.0605,-2.0605,-2.0605,-2.0605,-2.0605,-2.0605,-2.0605,-2.0401,-1.9678,-1.7698,-1.709,-1.6363,-1.4412,-1.4088,-1.4088,-1.4088,-1.3888,-1.378,-1.4055,-1.3881,-1.37,-1.37,-1.3948,-1.3941,-1.354,-1.336,-1.3173,-1.2904,-1.2625,-1.2498,-1.2498,-1.2498,-1.2498,-1.2498,-1.2498,-1.2612,-1.2884,-1.3153,-1.338,-1.3613,-1.3948,-1.4088,-2.9928,-2.9996,-2.9528,-2.8448,-2.8147,-2.7544,-2.5352,-2.4431,-2.369,-2.2611,-2.2347,-2.2334,-2.2343,-2.3314,-2.4406,-2.5423,-2.616,-2.7128,-2.8662,-2.8888,-2.9101,-2.9729,-2.9792,-2.9792,-2.9792,-2.9792,-2.9792,-2.9792,-2.9792,-2.9792,-2.9792,-2.9792,-2.9792,-2.9792,-2.9792,-2.9792,-2.9792,-2.9792,-2.9792,-2.9792,-2.9792,-2.8712,-2.6637,-2.6565,-2.5305,-2.3256,-2.3135,-2.3091,-2.3091,-2.3091,-2.3091,-2.3091,-2.3091,-2.3091,-2.3091,-2.3091,-2.3091,-2.3091,-2.3091,-2.3091,-2.3023,-2.2646,-2.248,-2.2314,-2.1492,-2.12,-2.1094,-2.0684,-2.0605,-2.0605,-2.0605,-2.0605,-2.0605,-2.0605,-2.0605,-2.0605,-2.0605,-1.9835,-1.8798,-1.7545,-1.6519,-1.5462,-1.4292,-1.4088,-1.4088,-1.4088,-1.4062,-1.4055,-1.4082,-1.4062,-1.4048,-1.4048,-1.4075,-1.3861,-1.33,-1.3427,-1.344,-1.3186,-1.314,-1.3126,-1.3126,-1.3126,-1.3126,-1.3126,-1.3126,-1.314,-1.3166,-1.342,-1.358,-1.3613,-1.3948,-1.4088,-2.9922,-2.9982,-2.9528,-2.8386,-2.7858,-2.7118,-2.5247,-2.3835,-2.2849,-2.2397,-2.2046,-2.192,-2.2246,-2.292,-2.381,-2.4946,-2.5046,-2.5674,-2.7657,-2.7946,-2.8273,-2.9164,-2.9578,-2.9792,-2.9792,-2.9792,-2.9792,-2.9792,-2.9792,-2.9792,-2.9792,-2.9792,-2.9792,-2.9792,-2.9792,-2.9792,-2.9792,-2.9792,-2.9792,-2.9792,-2.9106,-2.7988,-2.6483,-2.5797,-2.4595,-2.3091,-2.3091,-2.3091,-2.3091,-2.3091,-2.3091,-2.3091,-2.3091,-2.3091,-2.3091,-2.3091,-2.3091,-2.3091,-2.3091,-2.2925,-2.2652,-2.2275,-2.1963,-2.1639,-2.1298,-2.1045,-2.0791,-2.0654,-2.0605,-2.0605,-2.0605,-2.0605,-2.0605,-2.0605,-2.0605,-2.0605,-2.0605,-1.9766,-1.8678,-1.7504,-1.6437,-1.5379,-1.4292,-1.4088,-1.4088,-1.4088,-1.4088,-1.4088,-1.4088,-1.4088,-1.4015,-1.3841,-1.3981,-1.3995,-1.3761,-1.364,-1.3553,-1.344,-1.3307,-1.3213,-1.3213,-1.3213,-1.3213,-1.3213,-1.3213,-1.33,-1.3427,-1.3547,-1.3693,-1.3915,-1.4035,-1.4088,-2.9425,-2.9505,-2.9063,-2.8097,-2.7444,-2.6653,-2.5159,-2.3484,-2.2309,-2.2309,-2.187,-2.1656,-2.2209,-2.2732,-2.3421,-2.4387,-2.4393,-2.4958,-2.6992,-2.7281,-2.7695,-2.8762,-2.9289,-2.9528,-2.9528,-2.9691,-2.9792,-2.9792,-2.9792,-2.9792,-2.9792,-2.9792,-2.9792,-2.9792,-2.9792,-2.9792,-2.9792,-2.9792,-2.9792,-2.9792,-2.8636,-2.7522,-2.6483,-2.5336,-2.4168,-2.3091,-2.3091,-2.3091,-2.3091,-2.3091,-2.3091,-2.3091,-2.3091,-2.3091,-2.3091,-2.3091,-2.3091,-2.3091,-2.3091,-2.2818,-2.2441,-2.2021,-2.1592,-2.1171,-2.1074,-2.081,-2.0605,-2.0605,-2.0605,-2.0605,-2.0605,-2.0605,-2.0605,-2.0605,-2.0605,-2.0518,-2.0206,-1.9274,-1.8189,-1.705,-1.5951,-1.4977,-1.425,-1.4088,-1.4088,-1.4088,-1.4088,-1.4088,-1.4088,-1.4088,-1.4008,-1.376,-1.3961,-1.4048,-1.3968,-1.3841,-1.3733,-1.3733,-1.3581,-1.3474,-1.3474,-1.3474,-1.3474,-1.3474,-1.3474,-1.3574,-1.3733,-1.3733,-1.3881,-1.4088,-1.4088,-1.4088,-2.8341,-2.8309,-2.7996,-2.7431,-2.6914,-2.621,-2.5071,-2.3484,-2.2309,-2.2309,-2.187,-2.1656,-2.2209,-2.2732,-2.3296,-2.3916,-2.4456,-2.5398,-2.7055,-2.7281,-2.7695,-2.8762,-2.89,-2.89,-2.89,-2.9453,-2.9792,-2.9792,-2.9792,-2.9792,-2.9792,-2.9792,-2.9792,-2.9792,-2.9792,-2.9792,-2.9792,-2.9792,-2.9792,-2.9792,-2.8636,-2.7522,-2.6483,-2.5336,-2.4168,-2.3091,-2.3091,-2.3091,-2.3091,-2.3091,-2.3091,-2.3091,-2.3091,-2.3091,-2.3091,-2.3091,-2.3091,-2.3091,-2.3091,-2.2818,-2.2441,-2.2021,-2.1592,-2.1112,-2.0742,-2.0605,-2.0605,-2.0605,-2.0605,-2.0605,-2.0605,-2.0605,-2.0605,-2.0605,-2.0605,-2.0323,-1.9244,-1.8109,-1.7009,-1.5944,-1.4859,-1.413,-1.4088,-1.4088,-1.4088,-1.4088,-1.4088,-1.4088,-1.4088,-1.4088,-1.4088,-1.4082,-1.4088,-1.3968,-1.3633,-1.3915,-1.4082,-1.4082,-1.4082,-1.4082,-1.4082,-1.4082,-1.4082,-1.4082,-1.4082,-1.4082,-1.4082,-1.4082,-1.4082,-1.4088,-1.4088,-1.4088,-2.7226,-2.7232,-2.6876,-2.6276,-2.5724,-2.5159,-2.4418,-2.3251,-2.2309,-2.2309,-2.2171,-2.2108,-2.2284,-2.2732,-2.3534,-2.4883,-2.4946,-2.5398,-2.7055,-2.7607,-2.7971,-2.8323,-2.9051,-2.9515,-2.9515,-2.9691,-2.9792,-2.9792,-2.9792,-2.9792,-2.9792,-2.9792,-2.9792,-2.9792,-2.9792,-2.9792,-2.9792,-2.9792,-2.9792,-2.9792,-2.7907,-2.6842,-2.6431,-2.451,-2.343,-2.3091,-2.3091,-2.3091,-2.3091,-2.3091,-2.3091,-2.3091,-2.3091,-2.3091,-2.3091,-2.3091,-2.3091,-2.3052,-2.2812,-2.2441,-2.2012,-2.1582,-2.1143,-2.0752,-2.0644,-2.0605,-2.0605,-2.0605,-2.0605,-2.0605,-2.0605,-2.0605,-2.0605,-2.0605,-2.0605,-2.0323,-1.9234,-1.8109,-1.6968,-1.5902,-1.481,-1.4088,-1.4088,-1.4088,-1.4088,-1.4088,-1.4088,-1.4088,-1.4088,-1.4088,-1.4088,-1.4088,-1.4088,-1.4048,-1.3955,-1.4035,-1.4088,-1.4088,-1.4088,-1.4088,-1.4088,-1.4088,-1.4088,-1.4088,-1.4088,-1.4088,-1.4088,-1.4088,-1.4088,-1.4088,-1.4088,-1.4088,-2.555,-2.5824,-2.5749,-2.5385,-2.4908,-2.4368,-2.3803,-2.2811,-2.1995,-2.1995,-2.1995,-2.2071,-2.2272,-2.2732,-2.3446,-2.4506,-2.4725,-2.5322,-2.6801,-2.7444,-2.7946,-2.836,-2.9038,-2.9553,-2.9779,-2.9792,-2.9792,-2.9792,-2.9792,-2.9792,-2.9792,-2.9792,-2.9792,-2.9792,-2.9792,-2.9792,-2.9792,-2.9792,-2.9792,-2.9753,-2.7557,-2.6524,-2.6431,-2.4145,-2.3091,-2.3091,-2.3091,-2.3091,0.0,-2.3091,-2.3091,-2.3091,-2.3091,-2.3091,-2.3091,-2.3091,-2.2994,-2.2818,-2.2607,-2.2129,-2.1592,-2.1288,-2.0937,-2.0605,-2.0605,-2.0605,-2.0605,-2.0605,-2.0605,-2.0605,-2.0605,-2.0605,-2.0605,-2.0605,-2.0284,-1.9678,-1.8598,-1.7496,-1.6396,-1.5304,-1.4573,-1.4088,-1.4088,-1.4088,-1.4088,-1.4088,-1.4088,-1.4088,-1.4088,-1.4088,-1.4088,-1.4088,-1.4088,-1.4088,-1.4088,-1.4088,-1.4088,-1.4088,-1.4088,-1.4088,-1.4088,-1.4088,-1.4088,-1.4088,-1.4088,-1.4088,-1.4088,-1.4088,-1.4088,-1.4088,-1.4088,-1.3864,0.0,-2.4167,-2.4562,-2.4562,-2.4205,-2.3678,-2.3108,-2.2221,0.0,-2.1493,-2.1493,-2.1669,-2.2259,-2.2732,-2.3095,-2.3258,-2.4161,-2.5247,-2.6348,-2.7002,-2.7758,-2.8825,-2.895,-2.9164,-2.9741,-2.9792,-2.9792,-2.9792,-2.9792,-2.9792,-2.9792,-2.9792,-2.9792,-2.9792,-2.9792,-2.9792,-2.9792,-2.9702,-2.9663,-2.9663,-2.7424,-2.6389,-2.6307,-2.4102,-2.3091,-2.3091,-2.3091,-2.3091,-2.3091,-2.3091,-2.3091,-2.3091,-2.3091,-2.3091,-2.3091,-2.3091,-2.2828,-2.251,-2.248,-2.1924,-2.119,-2.1161,-2.0908,-2.0605,-2.0605,-2.0605,-2.0605,-2.0605,-2.0605,-2.0605,-2.0605,-2.0605,-2.0605,-2.0605,-1.9766,-1.8678,-1.7536,-1.6478,-1.5379,-1.4292,-1.4088,-1.4088,-1.4088,-1.4088,-1.4088,-1.4088,-1.4088,-1.4088,-1.4088,-1.4088,-1.4088,-1.4088,-1.4088,-1.4088,-1.4088,-1.4088,-1.4088,-1.4088,-1.4088,-1.4088,-1.4088,-1.4088,-1.4088,-1.4088,-1.4088,-1.4088,-1.4088,-1.4088,-1.4088,-1.4088,-1.4088,-1.3512,-2.1513,0.0,-2.2272,-2.2272,-2.2171,-2.2046,0.0,-2.1681,-2.1493,-2.1493,-2.1493,-2.1782,-2.2732,-2.2669,-2.302,-2.4745,-2.5234,-2.5661,-2.6399,-2.7341,-2.8323,-2.9453,-2.9591,-2.9641,-2.9779,-2.9792,-2.9792,-2.9792,-2.9792,-2.9792,-2.9792,-2.9792,-2.9792,-2.9792,-2.9792,-2.9792,-2.9792,-2.8937,-2.8518,-2.8466,-2.6243,-2.521,-2.5168,-2.3757,-2.3091,-2.3091,-2.3091,-2.3091,-2.3091,-2.3091,-2.3091,-2.3091,-2.3091,-2.3091,-2.3091,-2.3091,-2.2828,-2.2471,-2.2139,-2.168,-2.1142,-2.083,-2.0693,-2.0605,-2.0605,-2.0605,-2.0605,-2.0605,-2.0605,-2.0605,-2.0605,-2.0605,-2.0605,-2.0605,-1.9766,-1.8678,-1.7536,-1.6478,-1.5379,-1.4292,-1.4088,-1.4088,-1.4088,-1.4088,-1.4088,-1.4088,-1.4088,-1.4088,-1.4088,-1.4088,-1.4088,-1.4088,-1.4088,-1.4088,-1.4088,-1.4088,-1.4088,-1.4088,-1.4088,-1.4088,-1.4088,-1.4088,-1.4088,-1.4088,-1.4088,-1.4088,-1.4088,-1.4088,-1.4088,-1.4088,-1.4088,-1.3955,-2.0368,-2.1054,-2.187,-2.187,-2.187,-2.1794,-2.1543,-2.132,-2.1056,-2.0778,-2.0928,-2.1408,-2.2221,-2.2518,-2.3133,-2.4632,-2.5272,-2.5975,-2.7067,-2.8172,-2.9114,-2.9716,-2.9792,-2.9792,-2.9792,-2.9792,-2.9792,-2.9792,-2.9792,-2.9792,-2.9792,-2.9792,-2.9792,-2.9792,-2.9792,-2.9792,-2.9792,-2.8688,-2.8096,-2.8084,-2.5859,-2.4787,-2.4745,-2.3637,-2.3091,-2.3091,-2.3091,-2.3091,-2.3091,-2.3091,-2.3091,-2.3091,-2.3091,-2.3091,-2.3071,-2.2877,-2.2588,-2.2168,-2.1738,-2.1299,-2.0889,-2.0683,-2.0605,-2.0605,-2.0605,-2.0605,-2.0605,-2.0605,-2.0605,-2.0605,-2.0605,-2.0605,-2.0479,-1.9962,-1.9036,-1.7908,-1.6805,-1.5703,-1.4768,-1.4208,-1.4088,-1.4088,-1.4088,-1.4088,-1.4088,-1.4088,-1.4088,-1.4088,-1.4088,-1.4088,-1.4088,-1.4088,-1.4088,-1.4088,-1.4088,-1.4088,-1.4088,-1.4088,-1.4088,-1.4088,-1.4088,-1.4088,-1.4088,-1.4088,-1.4088,-1.4088,-1.4088,-1.4088,-1.4088,-1.4088,-1.4088,-1.3779,-1.9911,-2.1104,-2.2246,-2.1995,-2.2058,-2.2046,-2.1493,-2.1031,-2.0578,-2.0137,-2.0415,-2.0918,-2.1606,-2.2498,-2.3346,-2.4117,-2.5146,-2.6402,-2.8009,-2.9051,-2.9691,-2.9779,-2.9792,-2.9792,-2.9792,-2.9792,-2.9792,-2.9792,-2.9792,-2.9792,-2.9792,-2.9792,-2.9792,-2.9792,-2.9792,-2.9702,-2.9534,-2.8438,-2.7844,-2.7844,-2.5619,-2.4542,-2.45,-2.3551,-2.3091,-2.3091,-2.3091,-2.3091,-2.3091,-2.3091,-2.3091,-2.3091,-2.3091,-2.3052,-2.2955,-2.2646,-2.2207,-2.1728,-2.1289,-2.0889,-2.0605,-2.0605,-2.0605,-2.0605,-2.0605,-2.0605,-2.0605,-2.0605,-2.0605,-2.0566,-2.0401,-2.0362,-2.0079,-1.8997,-1.7859,-1.6805,-1.5902,-1.4852,-1.4088,-1.4088,-1.4088,-1.4088,-1.4088,-1.4088,-1.4088,-1.4088,-1.4088,-1.4088,-1.4088,-1.4088,-1.4088,-1.4088,-1.4088,-1.4088,-1.4088,-1.4088,-1.4088,-1.4088,-1.4088,-1.4088,-1.4088,-1.4088,-1.4088,-1.4088,-1.4088,-1.4088,-1.4088,-1.4088,-1.4088,-1.4088,-1.4088,-1.3555,-2.0427,-2.1405,-2.197,-2.0552,-2.0903,-2.1468,-2.0943,-2.0754,-2.0792,-2.1154,-2.0955,-2.1144,-2.2581,-2.2995,-2.3584,-2.5109,-2.6289,-2.7444,-2.8599,-2.8913,-2.9239,-2.9729,-2.9792,-2.9792,-2.9792,-2.9792,-2.9792,-2.9792,-2.9792,-2.9792,-2.9792,-2.9792,-2.9792,-2.9792,-2.9792,-2.9326,-2.8386,-2.729,-2.676,-2.6719,-2.4435,-2.3343,-2.3343,-2.3178,-2.3091,-2.3091,-2.3091,-2.3091,-2.3091,-2.3091,-2.3091,-2.3091,-2.3091,-2.2877,-2.2555,-2.2539,-2.197,-2.1229,-2.082,-2.0664,-2.0605,-2.0605,-2.0605,-2.0605,-2.0605,-2.0605,-2.0605,-2.0605,-2.0605,-2.0401,-1.9481,-1.9244,-1.8957,-1.7827,-1.6723,-1.5902,-1.5737,-1.4852,-1.4088,-1.4088,-1.4088,-1.4088,-1.4088,-1.4088,-1.4088,-1.4088,-1.4088,-1.4088,-1.4088,-1.4088,-1.4088,-1.4088,-1.4088,-1.4088,-1.4088,-1.4088,-1.4088,-1.4088,-1.4088,-1.4088,-1.4088,-1.4088,-1.4088,-1.4088,-1.4088,-1.4088,-1.4088,-1.4088,-1.4088,-1.4088,-1.4088,-1.3997,-2.0125,-2.0817,-2.1242,-2.049,-2.133,-2.2234,-2.1681,-2.1358,-2.1207,-2.1443,-2.1307,-2.1559,-2.2857,-2.3597,-2.465,-2.664,-2.7632,-2.8348,-2.8813,-2.9202,-2.949,-2.9767,-2.9792,-2.9792,-2.9792,-2.9792,-2.9792,-2.9792,-2.9792,-2.9792,-2.9792,-2.9792,-2.9792,-2.9792,-2.9792,-2.9236,-2.8124,-2.7046,-2.6182,-2.5546,-2.3887,-2.3091,-2.3091,-2.3091,-2.3091,-2.3091,-2.3091,-2.3091,-2.3091,-2.3091,-2.3091,-2.3091,-2.3091,-2.2838,-2.2451,-2.1951,-2.1426,-2.084,-2.0674,-2.0605,-2.0605,-2.0605,-2.0605,-2.0605,-2.0605,-2.0206,-1.9717,-1.9717,-1.9717,-1.9599,-1.9125,-1.8559,-1.7779,-1.6683,-1.6067,-1.5538,-1.4977,-1.4454,-1.4088,-1.4088,-1.4088,-1.4088,-1.4088,-1.4088,-1.4088,-1.4088,-1.4088,-1.4088,-1.4088,-1.4088,-1.4088,-1.4088,-1.4088,-1.4088,-1.4088,-1.4088,-1.4088,-1.4088,-1.4088,-1.4088,-1.4088,-1.4088,-1.4088,-1.4088,-1.4088,-1.4088,-1.4088,-1.4088,-1.4088,-1.4088,-1.4088,-1.4088,-1.9962,-2.0453,-2.088,-2.088,-2.1807,-2.2681,-2.2506,-2.2083,-2.1794,-2.2184,-2.2159,-2.2372,-2.3321,-2.4525,-2.5988,-2.7808,-2.8687,-2.9126,-2.9126,-2.9515,-2.9792,-2.9792,-2.9792,-2.9792,-2.9792,-2.9792,-2.9792,-2.9792,-2.9792,-2.9792,-2.9792,-2.9792,-2.9792,-2.9792,-2.9534,-2.8858,-2.7723,-2.6666,-2.5672,-2.4787,-2.3637,-2.3091,-2.3091,-2.3091,-2.3091,-2.3091,-2.3091,-2.3091,-2.3091,-2.3091,-2.3091,-2.3081,-2.2984,-2.2633,-2.2077,-2.1357,-2.0859,-2.0605,-2.0605,-2.0605,-2.0605,-2.0605,-2.0605,-2.0605,-2.0605,-1.9835,-1.8997,-1.8997,-1.863,-1.8221,-1.8221,-1.7577,-1.6642,-1.5579,-1.5338,-1.5095,-1.4292,-1.4088,-1.4088,-1.4088,-1.4088,-1.4088,-1.4088,-1.4088,-1.4088,-1.4088,-1.4088,-1.4088,-1.4088,-1.4088,-1.4088,-1.4088,-1.4088,-1.4088,-1.4088,-1.4088,-1.4088,-1.4088,-1.4088,-1.4088,-1.4088,-1.4088,-1.4088,-1.4088,-1.4088,-1.4088,-1.4088,-1.4088,-1.4088,-1.4088,-1.4088,-1.3955,-2.0478,-2.1031,-2.143,-2.143,-2.1518,-2.187,-2.2819,-2.2619,-2.2669,-2.4224,-2.418,-2.4004,-2.4562,-2.6025,-2.7331,-2.7996,-2.9013,-2.9729,-2.9729,-2.9767,-2.9792,-2.9792,-2.9792,-2.9792,-2.9792,-2.9792,-2.9792,-2.9792,-2.9792,-2.9792,-2.9792,-2.9792,-2.9792,-2.9792,-2.8767,-2.7683,-2.6648,-2.5504,-2.4872,-2.4787,-2.3637,-2.3091,-2.3091,-2.3091,-2.3091,-2.3091,-2.3091,-2.3091,-2.3091,-2.3091,-2.3091,-2.3052,-2.2672,-2.2009,-2.1229,-2.0791,-2.0635,-2.0605,-2.0605,-2.0605,-2.0605,-2.0605,-2.0605,-2.0605,-2.0605,-1.9835,-1.8997,-1.8997,-1.7528,-1.5944,-1.5944,-1.5861,-1.5538,-1.4454,-1.4208,-1.4208,-1.413,-1.4088,-1.4088,-1.4088,-1.4088,-1.4088,-1.4088,-1.4088,-1.4088,-1.4088,-1.4088,-1.4088,-1.4088,-1.4088,-1.4088,-1.4088,-1.4088,-1.4088,-1.4088,-1.4088,-1.4088,-1.4088,-1.4088,-1.4088,-1.4088,-1.4088,-1.4088,-1.4088,-1.4088,-1.4088,-1.4088,-1.4088,-1.4088,-1.4088,-1.4088,-1.3512,-1.9987,-2.0275,-2.0614,-2.1305,-2.1493,-2.1782,-2.2857,-2.3221,-2.3728,-2.5034,-2.5134,-2.5272,-2.6189,-2.7143,-2.7971,-2.8524,-2.9277,-2.9792,-2.9792,-2.9792,-2.9792,-2.9792,-2.9792,-2.9792,-2.9792,-2.9792,-2.9792,-2.9792,-2.9792,-2.9792,-2.9792,-2.9792,-2.9792,-2.9792,-2.8688,-2.7562,-2.6513,-2.5378,-2.4457,-2.3757,-2.3299,-2.3091,-2.3091,-2.3091,-2.3091,-2.3091,-2.3091,-2.3091,-2.3091,-2.3091,-2.2945,-2.2643,-2.1951,-2.1483,-2.1142,-2.0732,-2.0605,-2.0605,-2.0605,-2.0605,-2.0605,-2.0605,-2.0605,-2.0479,-1.9805,-1.8829,-1.7779,-1.7123,-1.5869,-1.4852,-1.5538,-1.522,-1.4615,-1.4208,-1.4088,-1.4088,-1.4088,-1.4088,-1.4088,-1.4088,-1.4088,-1.4088,-1.4088,-1.4088,-1.4088,-1.4088,-1.4088,-1.4088,-1.4088,-1.4088,-1.4088,-1.4088,-1.4088,-1.4088,-1.4088,-1.4088,-1.4088,-1.4088,-1.4088,-1.4088,-1.4088,-1.4088,-1.4088,-1.4088,-1.4088,-1.4088,-1.4088,-1.4088,-1.4088,-1.4088,-1.3336,-1.2723,-1.9484,-1.9673,-2.0024,-2.1018,-2.1493,-2.2046,-2.312,-2.3715,-2.4406,-2.5837,-2.6126,-2.6364,-2.7178,-2.7733,-2.8235,-2.8612,-2.9302,-2.9792,-2.9792,-2.9792,-2.9792,-2.9792,-2.9792,-2.9792,-2.9792,-2.9792,-2.9792,-2.9792,-2.9792,-2.9792,-2.9792,-2.9792,-2.9624,-2.9275,-2.8187,-2.7075,-2.5964,-2.484,-2.3887,-2.3091,-2.3091,-2.3091,-2.3091,-2.3091,-2.3091,-2.3091,-2.3091,-2.3091,-2.3091,-2.3091,-2.2769,-2.2246,-2.1483,-2.1103,-2.0986,-2.0713,-2.0605,-2.0605,-2.0605,-2.0605,-2.0605,-2.0605,-2.0362,-1.9962,-1.9244,-1.798,-1.6642,-1.5902,-1.4936,-1.425,-1.5019,-1.465,-1.4088,-1.4088,-1.4088,-1.4088,-1.4088,-1.4088,-1.4088,-1.4088,-1.4088,-1.4088,-1.4088,-1.4088,-1.4088,-1.4088,-1.4088,-1.4088,-1.4088,-1.4088,-1.4088,-1.4088,-1.4088,-1.4088,-1.4088,-1.4088,-1.4088,-1.4088,-1.4088,-1.4088,-1.4088,-1.4088,-1.4088,-1.4088,-1.4088,-1.4088,-1.4088,-1.4088,-1.4088,-1.4088,-1.2857,-1.2114,-1.9146,-1.9384,-1.9949,-2.0566,-2.1506,-2.2623,-2.3753,-2.4017,-2.4632,-2.6864,-2.7293,-2.7329,-2.7329,-2.7745,-2.8109,-2.8109,-2.9063,-2.9792,-2.9792,-2.9792,-2.9792,-2.9792,-2.9792,-2.9792,-2.9792,-2.9792,-2.9792,-2.9792,-2.9792,-2.9792,-2.9792,-2.9792,-2.9287,-2.8136,-2.7046,-2.5922,-2.483,-2.3681,-2.3091,-2.3091,-2.3091,-2.3091,-2.3091,-2.3091,-2.3091,-2.3091,-2.3091,-2.3091,-2.3091,-2.3081,-2.2637,-2.1846,-2.1356,-2.0957,-2.0605,-2.0605,-2.0605,-2.0605,-2.0605,-2.0605,-2.0605,-2.0605,-1.9883,-1.8997,-1.9006,-1.7455,-1.5696,-1.5703,-1.4936,-1.4088,-1.4088,-1.4088,-1.4088,-1.4088,-1.4088,-1.4088,-1.4088,-1.4088,-1.4088,-1.4088,-1.4088,-1.4088,-1.4088,-1.4088,-1.4088,-1.4088,-1.4088,-1.4088,-1.4088,-1.4088,-1.4088,-1.4088,-1.4088,-1.4088,-1.4088,-1.4088,-1.4088,-1.4088,-1.4088,-1.4088,-1.4088,-1.4088,-1.4088,-1.4088,-1.4088,-1.4088,-1.4088,-1.4088,-1.4088,-1.4039,-1.2808,-1.1638,-1.9146,-1.9698,-2.0666,-2.1581,-2.2661,-2.3791,-2.487,-2.5121,-2.5536,-2.6992,-2.7595,-2.7858,-2.7858,-2.831,-2.865,-2.865,-2.9302,-2.9792,-2.9792,-2.9792,-2.9792,-2.9792,-2.9792,-2.9792,-2.9792,-2.9792,-2.9792,-2.9792,-2.9792,-2.9792,-2.9792,-2.9028,-2.8466,-2.8124,-2.6273,-2.5126,-2.4787,-2.3681,-2.3091,-2.3091,-2.2789,-2.2808,-2.3091,-2.3091,-2.3091,-2.3091,-2.3091,-2.3091,-2.3052,-2.25,-2.2109,-2.1816,-2.1055,-2.0723,-2.0605,-2.0605,-2.0605,-2.0605,-2.0605,-2.0605,-2.0605,-2.0605,-1.9883,-1.8838,-1.8069,-1.6805,-1.5538,-1.4776,-1.4334,-1.4088,-1.4088,-1.4088,-1.4088,-1.4088,-1.4088,-1.4088,-1.4088,-1.4088,-1.4088,-1.4088,-1.4088,-1.4088,-1.4088,-1.4088,-1.4088,-1.4088,-1.4088,-1.4088,-1.4088,-1.4088,-1.4088,-1.4088,-1.4088,-1.4088,-1.4088,-1.4088,-1.4088,-1.4088,-1.4088,-1.4088,-1.4088,-1.4088,-1.4088,-1.4088,-1.4088,-1.4088,-1.4088,-1.3252,-1.2808,-1.2808,-1.0826,-0.971,-1.9334,-1.9987,-2.1018,-2.2309,-2.3326,-2.433,-2.5649,-2.6101,-2.6452,-2.7178,-2.772,-2.8109,-2.8109,-2.8561,-2.8888,-2.8888,-2.9415,-2.9792,-2.9792,-2.9792,-2.9792,-2.9792,-2.9792,-2.9792,-2.9792,-2.9792,-2.9792,-2.9792,-2.9792,-2.9792,-2.9792,-2.9157,-2.8347,-2.7493,-2.6171,-2.5052,-2.4125,-2.343,-2.3091,-2.3091,-2.2838,-2.2847,-2.3091,-2.2925,-2.2935,-2.3091,-2.3091,-2.3091,-2.3033,-2.2236,-2.1885,-2.1797,-2.0948,-2.0605,-2.0605,-2.0605,-2.0605,-2.0605,-2.0605,-2.0323,-1.9962,-1.9962,-1.8948,-1.7577,-1.6887,-1.591,-1.4936,-1.4292,-1.4088,-1.4088,-1.4088,-1.4088,-1.4088,-1.4088,-1.4088,-1.4088,-1.4088,-1.4088,-1.4088,-1.4088,-1.4088,-1.4088,-1.4088,-1.4088,-1.4088,-1.4088,-1.4088,-1.4088,-1.4088,-1.4088,-1.4088,-1.4088,-1.4088,-1.4088,-1.4088,-1.4088,-1.4088,-1.4088,-1.4088,-1.4088,-1.4088,-1.4088,-1.4088,-1.4088,-1.3646,-1.3603,-1.4088,-1.2425,-1.1852,-1.2242,-0.9966,-0.889,-1.961,-2.0263,-2.1232,-2.2782,-2.3715,-2.4619,-2.6147,-2.6889,-2.7241,-2.7241,-2.7645,-2.8047,-2.8097,-2.8561,-2.8913,-2.8963,-2.9453,-2.9753,-2.9663,-2.9663,-2.9663,-2.9663,-2.9585,-2.9546,-2.9624,-2.9663,-2.9663,-2.9663,-2.9753,-2.9792,-2.9792,-2.9624,-2.8581,-2.6565,-2.6318,-2.5189,-2.3135,-2.3091,-2.3081,-2.3033,-2.3003,-2.3003,-2.3023,-2.2682,-2.274,-2.3091,-2.3052,-2.3042,-2.2974,-2.2217,-2.1865,-2.1738,-2.0938,-2.0605,-2.0605,-2.0605,-2.0605,-2.0605,-2.0605,-1.9883,-1.8997,-1.8997,-1.7488,-1.5696,-1.5696,-1.4936,-1.4088,-1.4088,-1.4088,-1.4088,-1.4088,-1.4088,-1.4088,-1.4088,-1.4088,-1.4088,-1.4088,-1.4088,-1.4088,-1.4088,-1.4088,-1.4088,-1.4088,-1.4088,-1.4088,-1.4088,-1.4088,-1.4088,-1.4088,-1.4088,-1.4088,-1.4088,-1.4088,-1.4088,-1.4088,-1.4088,-1.4088,-1.4088,-1.4088,-1.4088,-1.4088,-1.4088,-1.4088,-1.4088,-1.2893,-1.2851,-1.3913,-1.1606,-1.0999,-1.1943,-0.9749,-0.8715,-1.9259,-2.0525,-2.2259,-2.3502,-2.4883,-2.6059,-2.6411,-2.6587,-2.6675,-2.6675,-2.7115,-2.7595,-2.8021,-2.8561,-2.9076,-2.9528,-2.9716,-2.9495,-2.8597,-2.8466,-2.8466,-2.8466,-2.7706,-2.7545,-2.8386,-2.8466,-2.8466,-2.8466,-2.9275,-2.9792,-2.9792,-2.8131,-2.6976,-2.6524,-2.4766,-2.3594,-2.3091,-2.3091,-2.2925,-2.2646,-2.2314,-2.2324,-2.2656,-2.2847,-2.3013,-2.3081,-2.275,-2.2646,-2.2607,-2.21,-2.168,-2.1278,-2.082,-2.0605,-2.0605,-2.0605,-2.0605,-2.0605,-2.0605,-1.9883,-1.8997,-1.8997,-1.7488,-1.5696,-1.5696,-1.4936,-1.4088,-1.4088,-1.4088,-1.4088,-1.4088,-1.4088,-1.4088,-1.4088,-1.4088,-1.4088,-1.4088,-1.4088,-1.4088,-1.4088,-1.4088,-1.4088,-1.4088,-1.4088,-1.4088,-1.4088,-1.4088,-1.4088,-1.4088,-1.4088,-1.4088,-1.4088,-1.4088,-1.4088,-1.4088,-1.4088,-1.4088,-1.4088,-1.4088,-1.4088,-1.4088,-1.4088,-1.4088,-1.4088,-1.2893,-1.2413,-1.2681,-1.0394,-0.941,-0.9579,-0.8145,-0.7489,-1.9673,-2.084,-2.2322,-2.3979,-2.5435,-2.6499,-2.6499,-2.6499,-2.6499,-2.6499,-2.6939,-2.7249,-2.7029,-2.7617,-2.81,-2.7912,-2.8084,-2.7999,-2.7412,-2.7319,-2.7319,-2.7319,-2.6842,-2.6924,-2.8016,-2.8096,-2.8347,-2.8858,-2.9195,-2.9173,-2.8725,-2.7541,-2.6438,-2.5428,-2.4231,-2.337,-2.2842,-2.2637,-2.2432,-2.2207,-2.1992,-2.2002,-2.2227,-2.2646,-2.2789,-2.2769,-2.2393,-2.2207,-2.2178,-2.1748,-2.1405,-2.1151,-2.0781,-2.0605,-2.0605,-2.0605,-2.0605,-2.0527,-2.0001,-1.9116,-1.8109,-1.7577,-1.6273,-1.4936,-1.4936,-1.4531,-1.4088,-1.4088,-1.4088,-1.4088,-1.4088,-1.4088,-1.4088,-1.4088,-1.4088,-1.4088,-1.4088,-1.4088,-1.4088,-1.4088,-1.4088,-1.4088,-1.4088,-1.4088,-1.4088,-1.4088,-1.4088,-1.4088,-1.4088,-1.4088,-1.4088,-1.4088,-1.4088,-1.4088,-1.4088,-1.4088,-1.4088,-1.4088,-1.4088,-1.4088,-1.4088,-1.4088,-1.4088,-1.4088,-1.2382,-1.1766,-1.2279,-0.944,-0.8324,-0.889,-0.7665,-0.7095,-1.9899,-2.1018,-2.2284,-2.4418,-2.5711,-2.6499,-2.6499,-2.6499,-2.6465,-2.628,-2.6594,-2.6681,-2.5949,-2.6342,-2.6555,-2.5899,-2.612,-2.6341,-2.6213,-2.6157,-2.6135,-2.6213,-2.5992,-2.6248,-2.7418,-2.7469,-2.7841,-2.8858,-2.8669,-2.8108,-2.7245,-2.6995,-2.6023,-2.4154,-2.3918,-2.337,-2.2402,-2.206,-2.1846,-2.1777,-2.1777,-2.1777,-2.1787,-2.2129,-2.2334,-2.2383,-2.1953,-2.1777,-2.1748,-2.1346,-2.1151,-2.1044,-2.0752,-2.0605,-2.0605,-2.0605,-2.0605,-2.045,-1.9362,-1.827,-1.7131,-1.6067,-1.4977,-1.4088,-1.4088,-1.4088,-1.4088,-1.4088,-1.4088,-1.4088,-1.4088,-1.4088,-1.4088,-1.4088,-1.4088,-1.4088,-1.4088,-1.4088,-1.4088,-1.4088,-1.4088,-1.4088,-1.4088,-1.4088,-1.4088,-1.4088,-1.4088,-1.4088,-1.4088,-1.4088,-1.4088,-1.4088,-1.4088,-1.4088,-1.4088,-1.4088,-1.4088,-1.4088,-1.4088,-1.3997,-1.3779,-1.3779,-1.3695,-1.3519,-1.1606,-1.095,-1.1724,-0.8615,-0.7621,-0.8584,-0.7577,-0.7095,-1.848,-2.065,-2.3296,-2.5059,-2.6009,-2.6499,-2.6499,-2.6499,-2.6233,-2.537,-2.5242,-2.5421,-2.5743,-2.5182,-2.4928,-2.5678,-2.5869,-2.5684,-2.5104,-2.4744,-2.4648,-2.4999,-2.384,-2.3632,-2.5083,-2.4919,-2.4938,-2.543,-2.6339,-2.6632,-2.6069,-2.5565,-2.4769,-2.3627,-2.2706,-2.2129,-2.1973,-2.1914,-2.1699,-2.1278,-2.1278,-2.1278,-2.1288,-2.1337,-2.1611,-2.1943,-2.1473,-2.1278,-2.1278,-2.122,-2.1006,-2.0683,-2.0625,-2.0605,-2.0605,-2.0605,-2.0605,-2.045,-1.9362,-1.827,-1.7131,-1.6067,-1.4977,-1.4088,-1.4088,-1.4088,-1.4088,-1.4088,-1.4088,-1.4088,-1.4088,-1.4088,-1.4088,-1.4088,-1.4088,-1.4088,-1.4088,-1.4088,-1.4088,-1.4088,-1.4088,-1.4088,-1.4088,-1.4088,-1.4088,-1.4088,-1.4088,-1.4088,-1.4088,-1.4088,-1.4088,-1.4088,-1.4088,-1.4088,-1.4088,-1.4088,-1.4088,-1.4088,-1.4088,-1.3646,-1.2589,-1.2547,-1.2072,-1.1085,-1.074,-1.0183,-0.9366,-0.7841,-0.7183,-0.7316,-0.7183,-0.7095,-1.9246,-2.1317,-2.3434,-2.482,-2.5573,-2.6097,-2.6411,-2.6499,-2.6198,-2.5194,-2.4564,-2.4068,-2.3746,-2.3525,-2.3363,-2.3247,-2.3459,-2.3494,-2.3213,-2.303,-2.2989,-2.313,-2.2591,-2.2667,-2.3959,-2.3914,-2.4136,-2.4948,-2.5204,-2.4975,-2.424,-2.3887,-2.3231,-2.2231,-2.1747,-2.1523,-2.1523,-2.1269,-2.1055,-2.0859,-2.0859,-2.0859,-2.0859,-2.0859,-2.1103,-2.1494,-2.1055,-2.0859,-2.0859,-2.0859,-2.0742,-2.0605,-2.0605,-2.0605,-2.0605,-2.0605,-2.0605,-2.0362,-1.863,-1.7698,-1.7017,-1.5345,-1.4489,-1.4088,-1.4088,-1.4088,-1.4088,-1.4088,-1.4088,-1.4088,-1.4088,-1.4088,-1.4088,-1.4088,-1.4088,-1.4088,-1.4088,-1.4088,-1.4088,-1.4088,-1.4088,-1.4088,-1.4088,-1.4088,-1.4088,-1.4088,-1.4088,-1.4088,-1.4088,-1.4088,-1.4088,-1.4088,-1.4088,-1.4088,-1.4088,-1.4088,-1.4088,-1.4088,-1.347,-1.2851,-1.2328,-1.1681,-1.0826,-0.9666,-0.9666,-0.9405,-0.889,-0.7709,-0.7095,-0.7095,-0.7095,-0.7095,-1.9874,-2.1455,-2.2782,-2.4048,-2.4996,-2.5711,-2.6172,-2.6386,-2.6129,-2.4898,-2.4036,-2.311,-2.1886,-2.1948,-2.1953,-2.1291,-2.1504,-2.1758,-2.1865,-2.1787,-2.1768,-2.1875,-2.1787,-2.2066,-2.299,-2.2968,-2.3307,-2.4298,-2.3963,-2.3362,-2.2517,-2.2509,-2.2068,-2.1064,-2.1064,-2.1064,-2.1064,-2.0732,-2.0605,-2.0605,-2.0605,-2.0605,-2.0605,-2.0605,-2.0752,-2.1045,-2.0752,-2.0605,-2.0605,-2.0605,-2.0605,-2.0605,-2.0605,-2.0605,-2.0605,-2.0605,-2.045,-1.9923,-1.798,-1.7131,-1.656,-1.4699,-1.4088,-1.4088,-1.4088,-1.4088,-1.4088,-1.4088,-1.4088,-1.4088,-1.4088,-1.4088,-1.4088,-1.4088,-1.4088,-1.4088,-1.4088,-1.4088,-1.4088,-1.4088,-1.4088,-1.4088,-1.4088,-1.4088,-1.4088,-1.4088,-1.4088,-1.4088,-1.4088,-1.4088,-1.4088,-1.4088,-1.4088,-1.4088,-1.4088,-1.4088,-1.4088,-1.4088,-1.3252,-1.2504,-1.1895,-1.1042,-0.9923,-0.8452,-0.8452,-0.8452,-0.8452,-0.7533,-0.7095,-0.7095,-0.7095,-0.7095,-1.9246,-2.0339,-2.1219,-2.2782,-2.4418,-2.5598,-2.5636,-2.6097,-2.5943,-2.3988,-2.3526,-2.2925,-2.1011,-2.0693,-2.0811,-2.1162,-2.121,-2.1375,-2.1826,-2.1533,-2.1385,-2.1836,-2.1523,-2.1435,-2.1918,-2.1585,-2.1516,-2.2011,-2.2109,-2.1858,-2.1321,-2.1755,-2.1586,-2.0673,-2.0635,-2.0635,-2.0635,-2.0615,-2.0605,-2.0605,-2.0605,-2.0605,-2.0605,-2.0605,-2.0615,-2.0635,-2.0615,-2.0605,-2.0605,-2.0605,-2.0605,-2.0605,-2.0605,-2.0605,-2.0605,-2.0605,-1.9962,-1.8917,-1.7698,-1.6642,-1.5579,-1.4454,-1.4088,-1.4088,-1.4088,-1.4088,-1.4088,-1.4088,-1.4088,-1.4088,-1.4088,-1.4088,-1.4088,-1.4088,-1.4088,-1.4088,-1.4088,-1.4088,-1.4088,-1.4088,-1.4088,-1.4088,-1.4088,-1.4088,-1.4088,-1.4088,-1.4088,-1.4088,-1.4088,-1.4088,-1.4088,-1.4088,-1.4088,-1.4088,-1.4088,-1.4088,-1.4088,-1.4088,-1.4039,-1.2997,-1.0783,-1.0611,-0.9527,-0.7228,-0.7183,-0.7183,-0.7183,-0.7139,-0.7095,-0.7095,-0.7095,-0.7095,-1.8568,-1.9736,-2.0918,-2.1845,-2.302,-2.4117,-2.4481,-2.5259,-2.5268,-2.3015,-2.2867,-2.2513,-2.0516,-2.0419,-2.0654,-2.0781,-2.0801,-2.0859,-2.1055,-2.0908,-2.0869,-2.1055,-2.0898,-2.0869,-2.1065,-2.0898,-2.0869,-2.1065,-2.1084,-2.1003,-2.084,-2.0985,-2.0934,-2.0605,-2.0605,-2.0605,-2.0605,-2.0605,-2.0605,-2.0605,-2.0605,-2.0605,-2.0605,-2.0605,-2.0605,-2.0605,-2.0605,-2.0605,-2.0605,-2.0605,-2.0605,-2.0605,-2.0605,-2.0605,-2.0605,-2.0605,-1.9923,-1.8838,-1.7698,-1.6601,-1.5538,-1.4454,-1.4088,-1.4088,-1.4088,-1.4088,-1.4088,-1.4088,-1.4088,-1.4088,-1.4088,-1.4088,-1.4088,-1.4088,-1.4088,-1.4088,-1.4088,-1.4088,-1.4088,-1.4088,-1.4088,-1.4088,-1.4088,-1.4088,-1.4088,-1.4088,-1.4088,-1.4088,-1.4088,-1.4088,-1.4088,-1.4088,-1.4088,-1.4088,-1.4088,-1.4088,-1.4088,-1.4088,-1.2693,-1.1477,-1.0611,-0.9135,-0.7965,-0.7095,-0.7095,-0.7095,-0.7095,-0.7095,-0.7095,-0.7095,-0.7095,-0.7095,-1.7928,-1.9007,-2.0314,-2.1056,-2.1895,-2.2836,-2.3778,-2.4544,-2.4559,-2.2797,-2.2765,-2.2434,-2.049,-2.0492,-2.0765,-2.0615,-2.0605,-2.0605,-2.0605,-2.0605,-2.0605,-2.0605,-2.0605,-2.0605,-2.0605,-2.0605,-2.0605,-2.0605,-2.0605,-2.0605,-2.0605,-2.0605,-2.0605,-2.0605,-2.0605,-2.0605,-2.0605,-2.0605,-2.0605,-2.0605,-2.0605,-2.0605,-2.0605,-2.0605,-2.0605,-2.0605,-2.0605,-2.0605,-2.0605,-2.0605,-2.0605,-2.0605,-2.0605,-2.0605,-2.0566,-2.0206,-1.9362,-1.827,-1.7131,-1.6075,-1.5061,-1.4328,-1.4088,-1.4088,-1.4088,-1.4088,-1.4088,-1.4088,-1.4088,-1.4088,-1.4088,-1.4088,-1.4088,-1.4088,-1.4088,-1.4088,-1.4088,-1.4088,-1.4088,-1.4088,-1.4088,-1.4088,-1.4088,-1.4088,-1.4088,-1.4088,-1.4088,-1.4088,-1.4088,-1.4088,-1.4088,-1.4088,-1.4088,-1.4088,-1.4088,-1.4088,-1.4088,-1.4088,-1.2254,-1.0994,-1.0611,-0.875,-0.7533,-0.7095,-0.7095,-0.7095,-0.7095,-0.7095,-0.7095,-0.7095,-0.7095,-0.7095,0.0,0.0,0.0,-2.0339,-2.1018,-2.1845,-2.3502,-2.3904,-2.3803,-2.3344,-2.3252,-2.2728,-2.0924,-2.0901,-2.1028,-2.07,-2.0595,-2.0605,-2.0605,-2.0605,-2.0605,-2.0605,-2.0605,-2.0605,-2.0605,-2.0605,-2.0605,-2.0605,-2.0605,-2.0605,-2.0605,-2.0605,-2.0605,-2.0605,-2.0605,-2.0605,-2.0605,-2.0605,-2.0605,-2.0605,-2.0605,-2.0605,-2.0605,-2.0605,-2.0605,-2.0605,-2.0605,-2.0605,-2.0605,-2.0605,-2.0605,-2.0605,-2.0605,-2.0566,-2.045,-1.9362,-1.827,-1.709,-1.6067,-1.5019,-1.4088,-1.4088,-1.4088,-1.4088,-1.4088,-1.4088,-1.4088,-1.4088,-1.4088,-1.4088,-1.4088,-1.4088,-1.4088,-1.4088,-1.4088,-1.4088,-1.4088,-1.4088,-1.4088,-1.4088,-1.4088,-1.4088,-1.4088,-1.4088,-1.4088,-1.4088,-1.4088,-1.4088,-1.4088,-1.4088,-1.4088,-1.4088,-1.4088,-1.4088,-1.4088,-1.4088,-1.4039,-1.4039,-1.2893,-1.1681,-1.0611,-0.9449,-0.8277,-0.7139,-0.7095,-0.7095,-0.7095,-0.7095,-0.7095,-0.7095,-0.7095,-0.7095,-1.6974,0.0,0.0,0.0,0.0,0.0,-2.0778,-2.1594,-2.2089,-2.1708,-2.1989,-2.2028,-2.1185,-2.061,-2.0444,-2.094,-2.0801,-2.0605,-2.0605,-2.0605,-2.0605,-2.0605,-2.0605,-2.0605,-2.0605,-2.0605,-2.0605,-2.0605,-2.0605,-2.0605,-2.0605,-2.0605,-2.0605,-2.0605,-2.0605,-2.0605,-2.0605,-2.0605,-2.0605,-2.0605,-2.0605,-2.0605,-2.0605,-2.0605,-2.0605,-2.0605,-2.0605,-2.0605,-2.0605,-2.0605,-2.0605,-2.0605,-2.0605,-2.0128,-1.9402,-1.9125,-1.7779,-1.6108,-1.582,-1.5019,-1.4088,-1.4088,-1.4088,-1.4088,-1.4088,-1.4088,-1.4088,-1.4088,-1.4088,-1.4088,-1.4088,-1.4088,-1.4088,-1.4088,-1.4088,-1.4088,-1.4088,-1.4088,-1.4088,-1.4088,-1.4088,-1.4088,-1.4088,-1.4088,-1.4088,-1.4088,-1.4088,-1.4088,-1.4088,-1.4088,-1.4088,-1.4088,-1.4088,-1.4088,-1.4088,-1.3294,-1.2808,-1.2808,-1.0956,-0.9705,-0.9366,-0.8233,-0.7445,-0.7095,-0.7095,-0.7095,-0.7095,-0.7095,-0.7095,-0.7095,-0.7095,-0.7095,-1.7526,-1.808,-1.8895,-1.8493,0.0,0.0,-2.0225,-2.0652,-2.0929,-2.145,-2.1824,-2.1957,-2.1562,-2.1195,-2.1016,-2.1167,-2.1005,-2.0801,-2.0615,-2.0605,-2.0605,-2.0605,-2.0605,-2.0605,-2.0605,-2.0605,-2.0605,-2.0605,-2.0605,-2.0605,-2.0605,-2.0605,-2.0605,-2.0605,-2.0605,-2.0605,-2.0605,-2.0605,-2.0605,-2.0605,-2.0605,-2.0605,-2.0605,-2.0605,-2.0605,-2.0605,-2.0605,-2.0605,-2.0605,-2.0605,-2.0605,-2.0605,-2.0605,-1.9923,-1.8957,-1.847,-1.7212,-1.5662,-1.5179,-1.4615,-1.4088,-1.4088,-1.4088,-1.4088,-1.4088,-1.4088,-1.4088,-1.4088,-1.4088,-1.4088,-1.4088,-1.4088,-1.4088,-1.4088,-1.4088,-1.4088,-1.4088,-1.4088,-1.4088,-1.4088,-1.4088,-1.4088,-1.4088,-1.4088,-1.4088,-1.4088,-1.4088,-1.4088,-1.4088,-1.4088,-1.4088,-1.4088,-1.4088,-1.4088,-1.4088,-1.2984,-1.2285,-1.2285,-1.0183,-0.889,-0.889,-0.7753,-0.7095,-0.7095,-0.7095,-0.7095,-0.7095,-0.7095,-0.7095,-0.7095,-0.7095,-0.7095,-1.8656,-1.8757,-1.9271,-1.9623,-1.9045,0.0,-2.0778,-2.0476,-2.025,-2.1807,-2.2133,-2.2064,-2.1891,-2.2127,-2.2063,-2.1271,-2.1105,-2.0946,-2.0679,-2.0615,-2.0605,-2.0605,-2.0605,-2.0605,-2.0605,-2.0605,-2.0605,-2.0605,-2.0605,-2.0605,-2.0605,-2.0605,-2.0605,-2.0605,-2.0605,-2.0605,-2.0605,-2.0605,-2.0605,-2.0605,-2.0605,-2.0605,-2.0605,-2.0605,-2.0605,-2.0605,-2.0605,-2.0605,-2.0605,-2.0605,-2.0605,-2.0605,-2.0605,-1.9883,-1.8678,-1.7658,-1.656,-1.5379,-1.4454,-1.4088,-1.4088,-1.4088,-1.4088,-1.4088,-1.4088,-1.4088,-1.4088,-1.4088,-1.4088,-1.4088,-1.4088,-1.4088,-1.4088,-1.4088,-1.4088,-1.4088,-1.4088,-1.4088,-1.4088,-1.4088,-1.4088,-1.4088,-1.4088,-1.4088,-1.4088,-1.4088,-1.4088,-1.4088,-1.4088,-1.4088,-1.4088,-1.4088,-1.4088,-1.4088,-1.4088,-1.2984,-1.2242,-1.2109,-1.0096,-0.8846,-0.8715,-0.7665,-0.7095,-0.7095,-0.7095,-0.7095,-0.7095,-0.7095,-0.7095,-0.7095,-0.7095,-0.7095,-1.9673,-1.9911,-2.0189,-1.9346,-1.9334,0.0,-1.9484,-1.966,-2.0024,-2.0855,-2.1018,-2.1127,-2.1496,-2.142,-2.1226,-2.1,-2.049,-2.0361,-2.1009,-2.0781,-2.0605,-2.0605,-2.0605,-2.0605,-2.0605,-2.0605,-2.0605,-2.0605,-2.0605,-2.0605,-2.0605,-2.0605,-2.0605,-2.0605,-2.0605,-2.0605,-2.0605,-2.0605,-2.0605,-2.0605,-2.0605,-2.0605,-2.0605,-2.0605,-2.0605,-2.0605,-2.0605,-2.0605,-2.0605,-2.0605,-2.0605,-2.0605,-2.0605,-1.9392,-1.7585,-1.7374,-1.6083,-1.437,-1.4166,-1.4088,-1.4088,-1.4088,-1.4088,-1.4088,-1.4088,-1.4088,-1.4088,-1.4088,-1.4088,-1.4088,-1.4088,-1.4088,-1.4088,-1.4088,-1.4088,-1.4088,-1.4088,-1.4088,-1.4088,-1.4088,-1.4088,-1.4088,-1.4088,-1.4088,-1.4088,-1.4088,-1.4088,-1.4088,-1.4088,-1.4088,-1.4088,-1.4088,-1.4088,-1.4088,-1.4088,-1.2984,-1.1901,-1.0999,-0.9666,-0.8452,-0.7489,-0.7228,-0.7095,-0.7095,-0.7095,-0.7095,-0.7095,-0.7095,-0.7095,-0.7095,-0.7095,-0.7095,-2.0878,-2.088,-2.0968,-2.0401,-2.0024,0.0,0.0,-1.9623,-1.9723,-2.0867,-2.088,-2.0943,-2.1744,-2.1539,-2.1323,-2.1562,-2.0773,-2.0454,-2.1329,-2.0762,-2.0244,-2.0244,-2.0478,-2.0605,-2.0605,-2.0605,-2.0605,-2.0605,-2.0605,-2.0605,-2.0605,-2.0605,-2.0605,-2.0605,-2.0605,-2.0605,-2.0605,-2.0605,-2.0605,-2.0605,-2.0605,-2.0605,-2.0605,-2.0605,-2.0605,-2.0605,-2.0605,-2.0605,-2.0605,-2.0605,-2.0605,-2.0605,-2.0605,-1.9234,-1.7302,-1.7302,-1.5918,-1.4088,-1.4088,-1.4088,-1.4088,-1.4088,-1.4088,-1.4088,-1.4088,-1.4088,-1.4088,-1.4088,-1.4088,-1.4088,-1.4088,-1.4088,-1.4088,-1.4088,-1.4088,-1.4088,-1.4088,-1.4088,-1.4088,-1.4088,-1.4088,-1.4088,-1.4088,-1.4088,-1.4088,-1.4088,-1.4088,-1.4088,-1.4088,-1.4088,-1.4088,-1.4088,-1.4088,-1.4088,-1.4088,-1.2467,-1.1209,-1.0654,-0.8969,-0.7709,-0.7139,-0.7095,-0.7095,-0.7095,-0.7095,-0.7095,-0.7095,-0.7095,-0.7095,-0.7095,-0.7095,-0.7095,-2.2372,-2.2133,-2.2058,-2.1732,-2.1041,-2.0451,0.0,0.0,0.0,-2.0916,-2.083,-2.0805,-2.1669,-2.1556,-2.1443,-2.1782,-2.099,-2.0569,-2.1169,-2.0434,-1.9829,-1.9861,-2.0162,-2.039,-2.0468,-2.041,-2.0429,-2.0595,-2.0449,-2.0429,-2.0595,-2.0605,-2.0605,-2.0605,-2.0605,-2.0605,-2.0605,-2.0605,-2.0605,-2.0605,-2.0605,-2.0605,-2.0605,-2.0605,-2.0605,-2.0605,-2.0605,-2.0605,-2.0605,-2.0605,-2.0605,-2.0605,-2.0605,-1.9234,-1.7302,-1.7302,-1.5918,-1.4088,-1.4088,-1.4088,-1.4088,-1.4088,-1.4088,-1.4088,-1.4088,-1.4088,-1.4088,-1.4088,-1.4088,-1.4088,-1.4088,-1.4088,-1.4088,-1.4088,-1.4088,-1.4088,-1.4088,-1.4088,-1.4088,-1.4088,-1.4088,-1.4088,-1.4088,-1.4088,-1.4088,-1.4088,-1.4088,-1.4088,-1.4088,-1.4088,-1.4088,-1.4088,-1.4088,-1.3997,-1.3779,-1.2035,-1.074,-1.0308,-0.8488,-0.736,-0.7095,-0.7095,-0.7095,-0.7095,-0.7095,-0.7095,-0.7095,-0.7095,-0.7095,-0.7095,-0.7095,-0.7112,-2.4449,-2.4412,-2.4061,-2.2585,-2.2456,-2.223,-2.0338,0.0,-2.0415,-2.0062,0.0,-1.9936,-2.0062,0.0,0.0,-2.0162,-2.0157,-2.0093,-1.9691,-1.9667,-1.9662,-1.9813,-1.9583,-1.958,-1.9951,-1.9648,-1.9783,-2.0546,-1.9863,-1.9766,-2.0566,-2.0605,-2.0605,-2.0605,-2.0605,-2.0605,-2.0605,-2.0605,-2.0605,-2.0605,-2.0605,-2.0605,-2.0605,-2.0605,-2.0605,-2.0605,-2.0605,-2.0605,-2.0605,-2.0605,-2.0605,-2.0605,-2.0605,-1.9234,-1.7302,-1.7302,-1.5918,-1.4088,-1.4088,-1.4088,-1.4088,-1.4088,-1.4088,-1.4088,-1.4088,-1.4088,-1.4088,-1.4088,-1.4088,-1.4088,-1.4088,-1.4088,-1.4088,-1.4088,-1.4088,-1.4088,-1.4088,-1.4088,-1.4088,-1.4088,-1.4088,-1.4088,-1.4088,-1.4088,-1.4088,-1.4088,-1.4088,-1.4088,-1.4088,-1.4088,-1.4088,-1.4088,-1.4088,-1.3688,-1.2589,-1.2242,-1.1252,-0.9235,-0.8846,-0.8233,-0.7139,-0.7095,-0.7095,-0.7095,-0.7095,-0.7095,-0.7095,-0.7095,-0.7095,-0.7095,-0.7095,-0.7214,-2.4876,-2.4788,-2.4462,-2.3108,-2.2694,-2.2246,-2.0691,-2.0264,-2.0214,-2.0314,0.0,0.0,0.0,0.0,0.0,0.0,-1.9973,-1.9817,-2.0122,-1.9582,-1.9246,-1.9366,-1.9648,-1.9848,-1.9829,-1.9255,-1.917,-1.9813,-1.9492,-1.9551,-2.0156,-2.0468,-2.0605,-2.0605,-2.0605,-2.0605,-2.0605,-2.0605,-2.0605,-2.0605,-2.0605,-2.0605,-2.0605,-2.0605,-2.0605,-2.0605,-2.0605,-2.0605,-2.0605,-2.0605,-2.0605,-2.0527,-1.9923,-1.8709,-1.7212,-1.6601,-1.5428,-1.4088,-1.4088,-1.4088,-1.4088,-1.4088,-1.4088,-1.4088,-1.4088,-1.4088,-1.4088,-1.4088,-1.4088,-1.4088,-1.4088,-1.4088,-1.4088,-1.4088,-1.4088,-1.4088,-1.4088,-1.4088,-1.4088,-1.4088,-1.4088,-1.4088,-1.4088,-1.4088,-1.4088,-1.4088,-1.4088,-1.4088,-1.4088,-1.4088,-1.4088,-1.4088,-1.4088,-1.3603,-1.2413,-1.1681,-1.0611,-0.9021,-0.8237,-0.7621,-0.7139,-0.7095,-0.7095,-0.7095,-0.7095,-0.7095,-0.7095,-0.7095,-0.7142,-0.7275,-0.7275,-0.7309,-2.5372,-2.5272,-2.4933,-2.3459,-2.2807,-2.2171,-2.0779,-2.0365,-2.0338,-2.0641,-2.0603,0.0,0.0,0.0,-2.0351,-2.0641,0.0,-1.9916,-2.0385,-1.9702,-1.9147,-1.9176,-1.9511,-1.9586,-1.9188,-1.8482,-1.8354,-1.9062,-1.8896,-1.9102,-1.9873,-2.0215,-2.0478,-2.0595,-2.0605,-2.0605,-2.0605,-2.0605,-2.0605,-2.0605,-2.0605,-2.0605,-2.0605,-2.0605,-2.0605,-2.0605,-2.0605,-2.0605,-2.0605,-2.0605,-2.0605,-2.044,-1.9076,-1.8029,-1.718,-1.6108,-1.5019,-1.4088,-1.4088,-1.4088,-1.4088,-1.4088,-1.4088,-1.4088,-1.4088,-1.4088,-1.4088,-1.4088,-1.4088,-1.4088,-1.4088,-1.4088,-1.4088,-1.4088,-1.4088,-1.4088,-1.4088,-1.4088,-1.4088,-1.4088,-1.4088,-1.4088,-1.4088,-1.4088,-1.4088,-1.4088,-1.4088,-1.4088,-1.4088,-1.4088,-1.4088,-1.4088,-1.4088,-1.347,-1.1943,-1.108,-0.9961,-0.8496,-0.7577,-0.7095,-0.7095,-0.7095,-0.7095,-0.7095,-0.7136,-0.7139,-0.7095,-0.7179,-0.7302,-0.7415,-0.7415,-0.746,-2.6449,-2.6449,-2.5921,-2.3647,-2.3095,-2.2506,-2.0326,-2.0665,-2.1292,-2.0792,-2.1506,-2.2071,-2.1556,-2.1443,-2.1295,0.0,-2.0665,0.0,0.0,-1.9784,-1.9682,-1.9428,-1.8898,-1.8274,-1.7553,-1.7041,-1.7282,-1.8529,-1.79,-1.8164,-1.9824,-1.9922,-2.0127,-2.0595,-2.0605,-2.0605,-2.0605,-2.0605,-2.0605,-2.0605,-2.0605,-2.0605,-2.0605,-2.0605,-2.0605,-2.0605,-2.0605,-2.0605,-2.0605,-2.0605,-2.0605,-2.0401,-1.8181,-1.7334,-1.718,-1.6108,-1.5019,-1.4088,-1.4088,-1.4088,-1.4088,-1.4088,-1.4088,-1.4088,-1.4088,-1.4088,-1.4088,-1.4088,-1.4088,-1.4088,-1.4088,-1.4088,-1.4088,-1.4088,-1.4088,-1.4088,-1.4088,-1.4088,-1.4088,-1.4088,-1.4088,-1.4088,-1.4088,-1.4088,-1.4088,-1.4088,-1.4088,-1.4088,-1.4088,-1.4088,-1.4088,-1.4088,-1.4088,-1.3173,-1.0869,-1.0611,-0.9614,-0.7316,-0.7139,-0.7095,-0.7095,-0.7095,-0.7095,-0.7095,-0.7288,-0.7288,-0.7095,-0.7438,-0.7512,-0.7415,-0.7415,-0.7526,-2.6499,-2.6499,-2.6135,-2.4619,-2.3659,-2.2719,-2.1255,-2.1204,-2.1358,-2.0805,-2.1543,-2.2146,-2.1594,-2.1493,-2.143,0.0,0.0,-2.049,0.0,-1.9196,-1.866,-1.8432,-1.7871,-1.743,-1.7267,-1.6923,-1.6999,-1.7754,-1.7803,-1.8174,-1.8987,-1.9609,-1.998,-2.0127,-2.0458,-2.0605,-2.0605,-2.0605,-2.0605,-2.0605,-2.0605,-2.0605,-2.0605,-2.0605,-2.0605,-2.0605,-2.0605,-2.0605,-2.0605,-2.0605,-2.0605,-2.0362,-1.8141,-1.7302,-1.709,-1.5311,-1.4412,-1.4088,-1.4088,-1.4088,-1.4088,-1.4088,-1.4088,-1.4088,-1.4088,-1.4088,-1.4088,-1.4088,-1.4088,-1.4088,-1.4088,-1.4088,-1.4088,-1.4088,-1.4088,-1.4088,-1.4088,-1.4088,-1.4088,-1.4088,-1.4088,-1.4088,-1.4088,-1.4088,-1.4088,-1.4088,-1.4088,-1.4088,-1.4088,-1.4088,-1.4088,-1.4088,-1.3379,-1.2291,-1.074,-0.9183,-0.7965,-0.7139,-0.7095,-0.7095,-0.7095,-0.7095,-0.7142,-0.7292,-0.7346,-0.7397,-0.7444,-0.755,-0.7621,-0.7662,-0.7662,-0.7716,-2.6499,-2.6499,-2.6235,-2.5096,-2.4249,-2.3358,-2.2083,-2.2096,-2.2221,-2.1656,-2.2272,-2.2862,-2.2698,-2.2347,-2.2008,0.0,0.0,0.0,0.0,-1.8932,-1.8338,-1.7957,-1.7317,-1.6945,-1.695,-1.6397,-1.6348,-1.709,-1.7256,-1.7705,-1.8559,-1.9307,-1.9756,-1.9912,-2.038,-2.0605,-2.0605,-2.0605,-2.0605,-2.0605,-2.0605,-2.0605,-2.0605,-2.0605,-2.0605,-2.0605,-2.0605,-2.0605,-2.0605,-2.0605,-2.0362,-1.9835,-1.8029,-1.705,-1.6519,-1.4741,-1.4088,-1.4088,-1.4088,-1.4088,-1.4088,-1.4088,-1.4088,-1.4088,-1.4088,-1.4088,-1.4088,-1.4088,-1.4088,-1.4088,-1.4088,-1.4088,-1.4088,-1.4088,-1.4088,-1.4088,-1.4088,-1.4088,-1.4088,-1.4088,-1.4088,-1.4088,-1.4088,-1.4175,-1.4208,-1.4102,-1.4088,-1.4088,-1.4088,-1.4088,-1.4088,-1.4088,-1.3027,-1.1681,-1.0139,-0.8229,-0.7095,-0.7095,-0.7095,-0.7095,-0.7095,-0.7149,-0.7272,-0.7415,-0.7475,-0.755,-0.76,-0.7706,-0.7777,-0.7814,-0.7868,-0.7892]},{"header":{"parameterUnit":"m.s-1","parameterCategory":1,"la1":30.6,"la2":29.2853,"lo1":-89.7004,"lo2":-87.6739,"dy":0.0162,"dx":0.0183,"nx":112,"ny":82,"refTime":"2024-05-18T06:00:00:Z","depth":0,"parameterNumber":3,"parameterNumberName":"V-component_of_WINDS"},"data":[0.0,0.0,0.0,0.0,0.0,0.0,0.0,0.0,0.0,0.0,0.0,0.0,0.0,0.0,0.0,0.0,0.0,0.0,0.0,0.0,0.0,0.0,0.0,0.0,0.0,0.0,0.0,0.0,0.0,0.0,0.0,0.0,0.0,0.0,0.0,0.0,0.0,0.0,0.0,0.0,0.0,0.0,0.0,0.0,0.0,0.0,0.0,0.0,0.0,0.0,0.0,0.0,0.0,0.0,0.0,0.0,0.0,0.0,0.0,0.0,0.0,0.0,0.0,0.0,0.0,0.0,0.0,0.0,0.0,0.0,0.0,0.0,0.0,0.0,0.0,0.0,0.0,0.0,0.0,0.0,0.0,0.0,0.0,0.0,0.0,0.0,0.0,0.0,0.0,0.0,2.4592,2.4812,2.5963,2.6691,2.6691,2.6691,2.6082,2.4592,0.0,0.0,0.0,0.0,0.0,0.0,0.0,0.0,0.0,0.0,0.0,0.0,0.0,0.0,0.0,0.0,0.0,0.0,0.0,0.0,0.0,0.0,0.0,0.0,0.0,0.0,0.0,0.0,0.0,0.0,0.0,0.0,0.0,0.0,0.0,0.0,0.0,0.0,0.0,0.0,0.0,0.0,0.0,0.0,0.0,0.0,0.0,0.0,0.0,0.0,0.0,0.0,0.0,0.0,0.0,0.0,0.0,0.0,0.0,0.0,0.0,0.0,0.0,0.0,0.0,0.0,0.0,0.0,0.0,0.0,0.0,0.0,0.0,0.0,0.0,0.0,0.0,0.0,0.0,0.0,0.0,0.0,0.0,0.0,0.0,0.0,0.0,0.0,0.0,0.0,0.0,0.0,0.0,0.0,0.0,0.0,0.0,0.0,0.0,0.0,0.0,0.0,0.0,0.0,2.4982,2.6234,2.6573,2.6691,2.6691,2.6691,2.6082,2.4592,0.0,0.0,0.0,0.0,0.0,0.0,0.0,0.0,0.0,0.0,0.0,0.0,0.0,0.0,0.0,0.0,0.0,0.0,0.0,0.0,0.0,0.0,0.0,0.0,0.0,0.0,0.0,0.0,0.0,0.0,0.0,0.0,0.0,0.0,0.0,0.0,0.0,0.0,0.0,0.0,0.0,0.0,0.0,0.0,0.0,0.0,0.0,0.0,0.0,0.0,0.0,0.0,0.0,0.0,0.0,0.0,0.0,0.0,0.0,0.0,0.0,0.0,0.0,0.0,0.0,0.0,0.0,0.0,0.0,0.0,0.0,0.0,0.0,0.0,0.0,0.0,0.0,0.0,0.0,0.0,0.0,0.0,0.0,0.0,0.0,0.0,0.0,0.0,0.0,0.0,0.0,0.0,0.0,0.0,0.0,0.0,0.0,0.0,0.0,0.0,0.0,0.0,0.0,2.4541,2.5066,2.6539,2.6691,2.6691,2.6691,2.6691,2.6082,2.4592,2.4491,0.0,0.0,0.0,0.0,0.0,0.0,0.0,0.0,0.0,0.0,0.0,0.0,0.0,0.0,0.0,0.0,0.0,0.0,0.0,0.0,0.0,0.0,0.0,0.0,0.0,0.0,0.0,0.0,0.0,0.0,0.0,0.0,0.0,0.0,0.0,0.0,0.0,0.0,0.0,0.0,0.0,0.0,0.0,0.0,0.0,0.0,0.0,0.0,0.0,0.0,0.0,0.0,0.0,0.0,0.0,0.0,0.0,0.0,0.0,0.0,0.0,0.0,0.0,0.0,0.0,0.0,0.0,0.0,0.0,0.0,0.0,0.0,0.0,0.0,0.0,0.0,0.0,0.0,0.0,0.0,0.0,0.0,0.0,0.0,0.0,0.0,0.0,0.0,0.0,0.0,0.0,0.0,0.0,0.0,0.0,0.0,0.0,0.0,0.0,0.0,0.0,0.0,2.5304,2.5642,2.659,2.686,2.6894,2.6708,2.6539,2.5879,2.4575,2.4338,0.0,0.0,0.0,0.0,0.0,0.0,0.0,0.0,0.0,0.0,0.0,0.0,0.0,0.0,0.0,0.0,0.0,0.0,0.0,0.0,0.0,0.0,0.0,0.0,0.0,0.0,0.0,0.0,0.0,0.0,0.0,0.0,0.0,0.0,0.0,0.0,0.0,0.0,0.0,0.0,0.0,0.0,0.0,0.0,0.0,0.0,0.0,0.0,0.0,0.0,0.0,0.0,0.0,0.0,0.0,0.0,0.0,0.0,0.0,0.0,0.0,0.0,0.0,0.0,0.0,0.0,0.0,0.0,0.0,0.0,0.0,0.0,0.0,0.0,0.0,0.0,0.0,0.0,0.0,0.0,0.0,0.0,0.0,0.0,0.0,0.0,0.0,0.0,0.0,0.0,0.0,0.0,0.0,0.0,0.0,0.0,0.0,0.0,0.0,0.0,0.0,0.0,2.6336,2.735,2.6759,2.73,2.7435,2.6759,2.6065,2.5338,2.4541,2.3864,0.0,0.0,0.0,0.0,0.0,0.0,0.0,0.0,0.0,0.0,0.0,0.0,0.0,0.0,0.0,0.0,0.0,0.0,0.0,0.0,0.0,0.0,0.0,0.0,0.0,0.0,0.0,0.0,0.0,0.0,0.0,0.0,0.0,0.0,0.0,0.0,0.0,0.0,0.0,0.0,0.0,0.0,0.0,0.0,0.0,0.0,0.0,0.0,0.0,0.0,0.0,0.0,0.0,0.0,0.0,0.0,0.0,0.0,0.0,0.0,0.0,0.0,0.0,0.0,0.0,0.0,0.0,0.0,0.0,0.0,0.0,0.0,0.0,0.0,0.0,0.0,0.0,0.0,0.0,0.0,0.0,0.0,0.0,0.0,0.0,0.0,0.0,0.0,0.0,0.0,0.0,0.0,0.0,0.0,0.0,0.0,0.0,0.0,0.0,0.0,0.0,0.0,2.5625,2.6674,2.7317,2.7232,2.7199,2.7367,2.6708,2.5778,2.4575,0.0,0.0,0.0,0.0,0.0,0.0,0.0,0.0,0.0,0.0,0.0,0.0,0.0,0.0,0.0,0.0,0.0,0.0,0.0,0.0,0.0,0.0,0.0,0.0,0.0,0.0,0.0,0.0,0.0,0.0,0.0,0.0,0.0,0.0,0.0,0.0,0.0,0.0,0.0,0.0,0.0,0.0,0.0,0.0,0.0,0.0,0.0,0.0,0.0,0.0,0.0,0.0,0.0,0.0,0.0,0.0,0.0,0.0,0.0,0.0,0.0,0.0,0.0,0.0,0.0,0.0,0.0,0.0,0.0,0.0,0.0,0.0,0.0,0.0,0.0,0.0,0.0,0.0,0.0,0.0,0.0,0.0,0.0,0.0,0.0,0.0,0.0,0.0,0.0,0.0,0.0,0.0,0.0,0.0,0.0,0.0,0.0,0.0,0.0,0.0,0.0,0.0,2.444,2.5541,2.659,2.7367,2.7215,2.7165,2.7418,2.6556,2.5574,2.4558,0.0,0.0,0.0,0.0,0.0,0.0,0.0,0.0,0.0,0.0,0.0,0.0,0.0,0.0,0.0,0.0,0.0,0.0,0.0,0.0,0.0,0.0,0.0,0.0,0.0,0.0,0.0,0.0,0.0,0.0,0.0,0.0,0.0,0.0,0.0,0.0,0.0,0.0,0.0,0.0,0.0,0.0,0.0,0.0,0.0,0.0,0.0,0.0,0.0,0.0,0.0,0.0,0.0,0.0,0.0,0.0,0.0,0.0,0.0,0.0,0.0,0.0,0.0,0.0,0.0,0.0,0.0,0.0,0.0,0.0,0.0,0.0,0.0,0.0,0.0,0.0,0.0,0.0,0.0,0.0,0.0,0.0,0.0,0.0,0.0,0.0,0.0,0.0,0.0,0.0,0.0,0.0,0.0,0.0,0.0,0.0,0.0,0.0,0.0,0.0,0.0,0.0,2.4491,2.642,2.7503,2.6793,2.735,2.7503,2.6776,2.5354,2.4508,0.0,0.0,0.0,0.0,0.0,0.0,0.0,0.0,0.0,0.0,0.0,0.0,0.0,0.0,0.0,0.0,0.0,0.0,0.0,0.0,0.0,0.0,0.0,0.0,0.0,0.0,0.0,0.0,0.0,0.0,0.0,0.0,0.0,0.0,0.0,0.0,0.0,0.0,0.0,0.0,0.0,0.0,0.0,0.0,0.0,0.0,0.0,0.0,0.0,0.0,0.0,0.0,0.0,0.0,0.0,0.0,0.0,0.0,0.0,0.0,0.0,0.0,0.0,0.0,0.0,0.0,0.0,0.0,0.0,0.0,0.0,0.0,0.0,0.0,0.0,0.0,0.0,0.0,0.0,0.0,0.0,0.0,0.0,0.0,0.0,0.0,0.0,0.0,0.0,0.0,0.0,0.0,0.0,0.0,0.0,0.0,0.0,0.0,0.0,0.0,0.0,0.0,0.0,2.4491,2.598,2.7148,2.7435,2.7199,2.7148,2.7452,2.6116,2.505,2.4525,0.0,0.0,0.0,0.0,0.0,0.0,0.0,0.0,0.0,0.0,0.0,0.0,0.0,0.0,0.0,0.0,0.0,0.0,0.0,0.0,0.0,0.0,0.0,0.0,0.0,0.0,0.0,0.0,0.0,0.0,0.0,0.0,0.0,0.0,0.0,0.0,0.0,0.0,0.0,0.0,0.0,0.0,0.0,0.0,0.0,0.0,0.0,0.0,0.0,0.0,0.0,0.0,0.0,0.0,0.0,0.0,0.0,0.0,0.0,0.0,0.0,0.0,0.0,0.0,0.0,0.0,0.0,0.0,0.0,0.0,0.0,0.0,0.0,0.0,0.0,0.0,0.0,0.0,0.0,0.0,0.0,0.0,0.0,0.0,0.0,0.0,0.0,0.0,0.0,0.0,0.0,0.0,0.0,0.0,0.0,0.0,0.0,0.0,0.0,0.0,0.0,0.0,2.4491,2.6031,2.7199,2.7351,2.7232,2.7199,2.7351,2.6285,2.5287,2.4541,0.0,0.0,0.0,0.0,0.0,0.0,0.0,0.0,0.0,0.0,0.0,0.0,0.0,0.0,0.0,0.0,0.0,0.0,0.0,0.0,0.0,0.0,0.0,0.0,0.0,0.0,0.0,0.0,0.0,0.0,0.0,0.0,0.0,0.0,0.0,0.0,0.0,0.0,0.0,0.0,0.0,0.0,0.0,0.0,0.0,0.0,0.0,0.0,0.0,0.0,0.0,0.0,0.0,0.0,0.0,0.0,0.0,0.0,0.0,0.0,0.0,0.0,0.0,0.0,0.0,0.0,0.0,0.0,0.0,0.0,0.0,0.0,0.0,0.0,0.0,0.0,0.0,0.0,0.0,0.0,0.0,0.0,0.0,0.0,0.0,0.0,0.0,0.0,0.0,0.0,0.0,0.0,0.0,0.0,0.0,0.0,0.0,0.0,0.0,0.0,0.0,0.0,2.4592,2.6471,2.7536,2.686,2.7401,2.7503,2.6759,2.6031,2.5287,2.4541,0.0,0.0,0.0,0.0,0.0,0.0,0.0,0.0,0.0,0.0,0.0,0.0,0.0,0.0,0.0,0.0,0.0,0.0,0.0,0.0,0.0,0.0,0.0,0.0,0.0,0.0,0.0,0.0,0.0,0.0,0.0,0.0,0.0,0.0,0.0,0.0,0.0,0.0,0.0,0.0,0.0,0.0,0.0,0.0,0.0,0.0,0.0,0.0,0.0,0.0,0.0,0.0,0.0,0.0,0.0,0.0,0.0,0.0,0.0,0.0,2.1396,2.0554,0.0,0.0,0.0,0.0,0.0,0.0,0.0,0.0,0.0,0.0,0.0,0.0,0.0,0.0,0.0,0.0,0.0,0.0,0.0,0.0,0.0,0.0,0.0,0.0,0.0,0.0,0.0,0.0,0.0,0.0,0.0,0.0,0.0,0.0,0.0,0.0,0.0,0.0,0.0,0.0,2.5287,2.6793,2.7739,2.757,2.7705,2.7503,2.6759,2.6031,2.5287,2.4541,2.3122,0.0,0.0,0.0,0.0,0.0,0.0,0.0,0.0,0.0,0.0,0.0,0.0,0.0,0.0,0.0,0.0,0.0,0.0,0.0,0.0,0.0,0.0,0.0,0.0,0.0,0.0,0.0,0.0,0.0,0.0,0.0,0.0,0.0,0.0,0.0,0.0,0.0,0.0,0.0,0.0,0.0,0.0,0.0,0.0,0.0,0.0,0.0,0.0,0.0,0.0,0.0,0.0,0.0,0.0,0.0,0.0,0.0,0.0,0.0,2.3101,2.2099,0.0,0.0,0.0,0.0,0.0,0.0,0.0,0.0,0.0,0.0,0.0,0.0,0.0,0.0,0.0,0.0,0.0,0.0,0.0,0.0,0.0,0.0,0.0,0.0,0.0,0.0,0.0,0.0,0.0,0.0,0.0,0.0,0.0,0.0,0.0,0.0,0.0,0.0,0.0,0.0,2.5017,2.6657,2.7655,2.73,2.7587,2.7503,2.6759,2.6353,2.5909,2.5343,2.389,0.0,0.0,0.0,0.0,0.0,0.0,0.0,0.0,0.0,0.0,0.0,0.0,0.0,0.0,0.0,0.0,0.0,0.0,0.0,0.0,0.0,0.0,0.0,0.0,0.0,0.0,0.0,0.0,0.0,0.0,0.0,0.0,0.0,0.0,0.0,0.0,0.0,0.0,0.0,0.0,0.0,0.0,0.0,0.0,0.0,0.0,0.0,0.0,0.0,0.0,0.0,0.0,0.0,2.6584,2.7111,2.7111,2.7111,2.7111,2.7021,2.536,2.4373,2.3864,2.2697,0.0,0.0,0.0,0.0,0.0,0.0,0.0,0.0,0.0,0.0,0.0,0.0,0.0,0.0,0.0,0.0,0.0,0.0,0.0,0.0,0.0,0.0,2.6945,2.6336,2.7114,2.73,2.4729,0.0,0.0,0.0,0.0,0.0,0.0,0.0,0.0,0.0,0.0,0.0,2.5032,2.6793,2.7773,2.7165,2.7655,2.7638,2.6776,2.6691,2.6534,2.6109,2.4974,2.4038,0.0,0.0,0.0,0.0,0.0,0.0,0.0,0.0,0.0,0.0,0.0,0.0,0.0,0.0,0.0,0.0,0.0,0.0,0.0,0.0,0.0,0.0,0.0,0.0,0.0,0.0,0.0,0.0,0.0,0.0,0.0,0.0,1.9495,1.9048,0.0,0.0,0.0,0.0,0.0,0.0,0.0,0.0,0.0,0.0,0.0,0.0,0.0,2.4986,2.5989,2.6715,2.7439,2.8099,2.885,2.9217,2.9217,2.9217,2.9217,2.9202,2.8906,0.0,2.5285,2.453,0.0,0.0,0.0,0.0,0.0,0.0,0.0,0.0,0.0,0.0,0.0,0.0,0.0,0.0,0.0,0.0,0.0,0.0,0.0,0.0,0.0,0.0,2.8671,2.857,2.8705,2.8535,2.7452,2.6285,2.522,2.4372,2.3695,2.3224,0.0,0.0,0.0,0.0,0.0,0.0,2.7114,2.823,2.8807,2.8705,2.879,2.8265,2.681,2.6691,2.642,2.5723,2.5809,2.527,2.3888,2.3324,0.0,0.0,0.0,0.0,0.0,0.0,0.0,0.0,0.0,0.0,0.0,0.0,0.0,0.0,0.0,0.0,0.0,0.0,0.0,0.0,0.0,0.0,0.0,0.0,0.0,0.0,0.0,0.0,0.0,1.9743,2.0523,2.0505,2.0574,2.0273,0.0,0.0,0.0,0.0,0.0,0.0,0.0,0.0,0.0,2.6496,2.6837,2.7729,2.9346,3.0024,3.0507,3.0806,3.1091,3.1225,3.121,3.0851,3.0687,3.0687,3.0687,2.9804,2.8218,2.6452,2.5181,2.4223,0.0,0.0,0.0,0.0,2.3947,2.426,2.5372,2.5847,2.5995,2.633,0.0,0.0,0.0,0.0,0.0,0.0,0.0,2.7334,2.7334,2.8467,2.9617,2.9617,2.9922,3.0023,2.9261,2.8584,2.7655,2.6065,2.5489,2.4983,2.4169,2.3763,0.0,0.0,0.0,2.6555,2.7761,2.8975,2.9549,2.9098,2.9063,2.8611,2.7467,2.7363,2.733,2.7182,2.6914,2.6551,2.6104,2.5061,2.4166,0.0,0.0,0.0,0.0,0.0,0.0,0.0,0.0,0.0,0.0,0.0,0.0,0.0,0.0,0.0,0.0,0.0,0.0,0.0,0.0,0.0,0.0,0.0,0.0,0.0,0.0,0.0,0.0,2.0894,2.2099,2.2136,2.2702,2.2533,0.0,0.0,0.0,0.0,0.0,0.0,2.6396,2.7072,2.8109,2.9563,2.9753,3.0557,3.2004,3.2497,3.2766,3.2766,3.2766,3.2677,3.2467,3.1974,3.166,3.1511,3.1511,3.1212,3.0597,2.8293,2.6961,2.6258,2.5076,2.4612,2.474,2.5679,2.6044,2.6299,2.8046,2.8576,2.8596,2.9028,2.8827,2.8246,2.7503,0.0,0.0,0.0,0.0,2.8382,2.8382,2.9379,3.0378,3.0378,3.0801,3.1055,3.0497,3.0378,2.977,2.7689,2.7114,2.6623,2.554,2.5295,0.0,2.4993,2.6626,2.8057,2.8626,2.9806,3.0346,2.9745,2.95,2.9074,2.8266,2.8018,2.8006,2.8264,2.7779,2.7544,2.7645,2.6397,2.5338,2.453,0.0,0.0,0.0,0.0,0.0,0.0,0.0,0.0,0.0,0.0,0.0,0.0,0.0,0.0,0.0,0.0,0.0,0.0,0.0,0.0,0.0,0.0,0.0,0.0,0.0,0.0,0.0,0.0,0.0,2.3727,2.5184,0.0,0.0,0.0,0.0,2.4803,2.6995,2.8407,2.8437,3.0807,3.2199,3.2303,3.29,3.3304,3.3395,3.3425,3.344,3.344,3.344,3.3125,3.2512,3.2482,3.2093,3.1511,3.1511,3.1481,3.1346,2.9998,2.9041,2.8382,2.7675,2.739,2.7405,2.7485,2.864,3.0117,2.9534,3.0537,3.2033,3.2084,3.112,2.9854,2.9111,2.8349,0.0,0.0,2.8821,2.9989,2.9989,3.0565,3.114,3.114,3.1173,3.119,3.114,3.114,3.07,2.9179,2.8281,2.7722,2.7655,0.0,2.733,2.7572,2.8465,2.9463,3.0454,3.1015,3.1342,3.129,3.0603,2.9842,2.9107,2.8351,2.7911,2.7926,2.8188,2.8005,2.7259,2.679,2.6153,2.5356,2.3804,0.0,0.0,0.0,0.0,0.0,0.0,0.0,0.0,0.0,0.0,0.0,0.0,0.0,0.0,0.0,0.0,0.0,0.0,0.0,0.0,0.0,0.0,0.0,0.0,0.0,0.0,0.0,0.0,2.6679,2.7763,0.0,2.697,2.8033,2.8735,2.8569,3.0148,3.1308,3.1723,3.2631,3.3335,3.3769,3.4008,3.4337,3.4786,3.4786,3.4786,3.4786,3.4337,3.4039,3.3769,3.3335,3.2781,3.2123,3.2123,3.1899,3.1466,3.1002,3.0432,2.9759,2.9142,2.8888,2.8993,2.9822,3.056,3.1235,3.1797,3.2433,3.3,3.3,3.2662,3.2171,3.1901,3.163,3.139,3.139,3.1816,3.2222,3.2222,3.2425,3.2628,3.2628,3.2239,3.1921,3.1921,3.1549,3.1038,3.0514,2.9803,2.9125,2.8653,2.8491,2.8374,2.8219,2.9569,3.0838,3.1451,3.2349,3.274,3.2218,3.1456,3.0658,2.9873,2.908,2.8614,2.8614,2.8713,2.8439,2.7629,2.6951,2.6227,2.5411,2.4318,2.3382,0.0,0.0,0.0,0.0,0.0,0.0,0.0,0.0,0.0,0.0,0.0,0.0,0.0,0.0,0.0,0.0,0.0,0.0,0.0,0.0,0.0,0.0,0.0,0.0,0.0,2.6431,2.8142,2.8716,3.0033,3.0575,2.9677,3.0758,3.1544,3.1588,3.257,3.3365,3.3799,3.4038,3.4382,3.4801,3.4848,3.504,3.5504,3.5504,3.5504,3.5504,3.504,3.4728,3.4488,3.4054,3.3469,3.2841,3.2841,3.2602,3.2153,3.1929,3.157,3.112,3.0492,3.0388,3.0711,3.1569,3.2165,3.2698,3.3773,3.4129,3.4117,3.3846,3.3778,3.3728,3.3491,3.3406,3.3406,3.3406,3.3406,3.3406,3.3406,3.3406,3.3406,3.3406,3.2831,3.2334,3.2497,3.1939,3.1449,3.1618,3.0997,3.0368,3.001,3.0071,3.0093,2.9826,3.1178,3.2254,3.2393,3.3222,3.3605,3.3073,3.2284,3.1476,3.0668,2.9879,2.9299,2.9023,2.9005,2.8638,2.7835,2.7034,2.6227,2.5411,2.4337,2.3676,2.3391,0.0,0.0,0.0,0.0,0.0,0.0,0.0,0.0,0.0,0.0,0.0,0.0,0.0,0.0,0.0,0.0,0.0,0.0,0.0,0.0,0.0,0.0,0.0,2.6002,2.8598,3.0342,2.9816,3.1973,3.3036,3.175,3.2811,3.3559,3.3559,3.4174,3.4533,3.4533,3.5145,3.5504,3.5504,3.5504,3.5504,3.5504,3.5504,3.5504,3.5504,3.5504,3.516,3.4533,3.4533,3.4174,3.3529,3.3529,3.3514,3.344,3.2841,3.2557,3.2467,3.1765,3.1951,3.2586,3.2614,3.3495,3.4712,3.5362,3.56,3.5481,3.4776,3.4523,3.4387,3.3694,3.3474,3.3474,3.3474,3.3474,3.3474,3.3474,3.3474,3.3474,3.3474,3.2899,3.2485,3.2942,3.2396,3.1968,3.2417,3.1823,3.137,3.1752,3.2196,3.2501,3.2501,3.324,0.0,3.3258,3.355,3.3807,3.3807,3.3091,3.2284,3.147,3.065,2.9849,2.906,2.8987,2.8601,2.7835,2.7034,2.6227,2.5411,2.3896,2.3465,2.419,0.0,0.0,0.0,0.0,0.0,0.0,0.0,0.0,0.0,0.0,0.0,0.0,0.0,0.0,0.0,0.0,0.0,0.0,0.0,0.0,0.0,2.7533,2.9376,2.9226,3.0365,3.169,3.3006,3.38,3.4262,3.4397,3.4741,3.4951,3.4951,3.5115,3.522,3.522,3.54,3.5504,3.5504,3.5504,3.5504,3.5504,3.5504,3.5504,3.5504,3.5504,3.54,3.522,3.522,3.4846,3.4234,3.4234,3.3933,3.3546,3.392,3.3742,3.3119,3.1966,3.1951,3.2668,3.3145,3.4178,3.5362,3.5554,3.56,3.5566,3.5346,3.5295,3.5245,3.5059,3.4991,3.4991,3.4991,3.4991,3.4991,3.4991,3.4991,3.4991,3.4991,3.4438,3.3875,3.38,3.3209,3.2646,3.2523,3.2299,3.2196,3.2299,3.2417,3.2501,3.2501,3.2981,3.3317,3.3214,3.355,3.3807,3.3807,3.3091,3.2284,3.147,3.065,2.9849,2.906,2.8448,2.8026,2.7816,2.7034,2.6227,2.5411,2.5548,2.5144,0.0,0.0,0.0,0.0,0.0,0.0,0.0,0.0,0.0,0.0,0.0,0.0,0.0,0.0,0.0,0.0,0.0,0.0,0.0,0.0,0.0,0.0,2.9505,3.1225,3.2048,3.2512,3.3185,3.4369,3.4758,3.5055,3.5474,3.5504,3.5504,3.5504,3.5504,3.5504,3.5504,3.5504,3.5504,3.5504,3.5504,3.5504,3.5504,3.5504,3.5504,3.5504,3.5504,3.5504,3.5504,3.5504,3.5295,3.4906,3.4906,3.4696,3.437,3.4877,3.4816,3.4278,0.0,0.0,0.0,0.0,3.4934,3.56,3.56,3.56,3.56,3.56,3.56,3.56,3.56,3.56,3.56,3.56,3.56,3.56,3.56,3.56,3.56,3.56,3.5047,3.4504,3.4539,3.3862,3.3248,3.3251,3.3136,0.0,3.3042,3.2903,3.284,3.3011,3.3288,3.3447,3.3447,3.3666,3.3807,3.3807,3.3385,3.2779,3.1971,3.1164,0.0,0.0,0.0,2.8154,2.7805,2.7034,0.0,0.0,0.0,0.0,0.0,2.7152,0.0,0.0,2.6494,2.6586,0.0,0.0,0.0,0.0,0.0,0.0,0.0,0.0,0.0,0.0,0.0,0.0,0.0,0.0,0.0,0.0,3.1241,3.2452,3.4264,3.4578,3.4623,3.4623,3.513,3.5504,3.5504,3.5504,3.5504,3.5504,3.5504,3.5504,3.5504,3.5504,0.0,0.0,0.0,3.5504,3.5504,3.5504,3.5504,3.5504,3.5504,3.5504,3.5504,3.5504,3.5504,3.5504,3.5504,3.5504,3.5524,3.5753,3.5845,3.5797,3.5085,3.472,3.4688,3.5362,3.56,3.56,3.56,0.0,0.0,3.56,3.56,3.56,3.56,3.56,3.56,3.56,3.56,3.56,3.56,3.56,3.56,3.56,3.5115,3.4746,3.5189,3.4525,3.3948,3.4315,3.4142,3.3917,3.3825,3.3508,3.3375,3.3748,3.3807,3.3807,3.3807,3.3807,3.3807,3.3807,3.3807,0.0,3.2674,3.1953,3.1182,3.0393,2.9666,2.8858,2.797,2.742,2.7108,2.7016,2.7108,2.7794,2.9133,2.9225,2.9629,3.0301,2.887,2.8539,0.0,0.0,0.0,0.0,0.0,0.0,0.0,0.0,0.0,0.0,0.0,0.0,0.0,0.0,0.0,3.0417,3.2422,3.4069,3.4459,3.4966,3.531,3.531,3.5429,3.5504,3.5504,3.5504,3.5504,3.5504,3.5504,3.5504,3.5504,3.5504,3.5504,3.5504,3.5504,3.5504,3.5504,3.5504,3.5504,3.5504,3.5504,0.0,3.5504,3.5504,3.5504,3.5504,3.5504,3.5504,3.5619,3.6854,3.7415,3.7345,3.6017,3.5136,3.4688,3.5362,3.56,3.56,3.56,3.56,3.56,3.56,3.56,3.56,3.56,3.56,0.0,3.56,3.56,3.56,3.56,3.56,3.56,3.56,3.5481,3.5462,3.5715,3.5593,3.5349,3.4932,3.482,3.4564,3.3917,3.3734,3.3707,3.3793,3.3807,3.3807,3.3807,3.3807,3.3807,3.3807,3.3807,3.3476,3.2674,3.2454,3.2027,3.1231,3.1029,3.0283,2.8822,2.9861,3.0173,2.9531,3.0136,3.0301,2.9971,3.0613,3.1029,3.1158,3.0846,3.043,0.0,0.0,0.0,0.0,0.0,0.0,0.0,0.0,0.0,0.0,0.0,2.8382,2.937,0.0,3.1734,3.2377,3.3635,3.4638,3.4936,3.5295,3.5504,3.5504,3.5504,3.5504,3.5504,3.5504,3.5504,3.5504,3.5504,3.5504,3.5504,3.5504,3.5504,3.5504,3.5504,3.5504,3.5504,3.5504,3.5504,3.5504,3.5504,3.5504,3.5504,3.5504,3.5504,3.5504,3.5504,3.5504,3.5619,3.7145,3.7601,3.7277,3.6918,3.61,3.5144,3.547,3.56,3.56,3.56,3.56,3.56,3.56,3.56,3.56,3.56,3.56,3.56,3.56,3.56,3.56,3.56,3.56,3.56,3.56,3.56,3.5637,3.5732,3.5502,3.5208,3.4916,3.4608,3.427,3.3862,3.3807,3.3807,3.3807,3.3807,3.3807,3.3807,3.3807,3.3807,3.3807,3.3807,3.3642,3.3238,3.2821,3.2265,3.1452,3.1397,3.1035,3.0228,3.0962,3.1213,3.0797,3.1213,3.1403,3.139,3.1806,3.221,3.2596,3.2596,3.2173,0.0,0.0,0.0,0.0,0.0,0.0,0.0,2.6249,2.6931,2.8289,2.9517,3.0657,3.169,3.2452,3.3245,3.4339,3.4623,3.4861,3.5429,3.5504,3.5504,3.5504,3.5504,3.5504,3.5504,3.5504,3.5504,3.5504,3.5504,3.5504,3.5504,3.5504,3.5504,3.5504,3.5504,3.5504,3.5504,3.5504,3.5504,3.5504,3.5504,3.5504,3.5504,3.5504,3.5504,3.5504,3.5504,3.5587,3.5814,3.7235,3.7446,3.699,3.764,3.7036,3.5802,3.565,3.56,3.56,3.56,3.56,3.56,3.56,3.56,3.56,3.56,3.56,3.56,3.56,3.56,3.56,3.56,3.56,3.56,3.56,3.5481,3.5424,3.5518,3.5104,3.4695,3.4659,3.431,3.399,3.3825,3.3807,3.3807,3.3807,3.3807,3.3807,3.3807,3.3807,3.3807,3.3807,3.3807,3.3807,3.3807,3.322,3.2504,3.1678,3.177,3.1801,3.1641,3.177,3.1874,3.1874,3.1874,3.2192,3.2821,3.2821,3.3183,3.3807,3.3807,3.3458,2.1561,2.2135,2.3389,2.6335,2.6274,2.64,0.0,3.0315,3.0328,3.1689,3.2542,3.311,3.3245,3.3814,3.4339,3.4488,3.4996,3.5415,3.5489,3.5504,3.5504,3.5504,3.5504,3.5504,3.5504,3.5504,3.5504,3.5504,3.5504,3.5504,3.5504,3.5504,3.5504,3.5504,3.5504,3.5504,3.5504,3.5504,3.5504,3.5504,3.5504,3.5504,3.5504,3.5504,3.5504,3.5504,3.5504,3.5863,3.6569,3.7427,3.7737,3.7699,3.7858,3.7398,3.6592,3.5853,3.56,3.56,3.56,3.56,3.56,3.56,3.56,3.56,3.56,3.56,3.56,3.56,3.56,3.56,3.56,3.56,3.56,3.56,3.5115,3.4759,3.5228,3.505,3.4728,3.4485,3.4662,3.4637,3.3917,3.3807,3.3807,3.3807,3.3807,3.3807,3.3807,3.3807,3.3807,3.3807,3.3807,3.3807,3.3807,3.3715,3.333,3.2509,3.3146,3.322,3.2491,3.3146,3.3532,3.3532,3.3532,3.3587,3.3678,3.3678,3.3715,3.3807,3.3807,3.3752,2.4303,2.5369,2.6524,2.7845,2.8326,2.8986,3.1035,3.1271,3.1555,3.3305,3.3873,3.4188,3.4592,3.4891,3.507,3.507,3.5325,3.5504,3.5504,3.5504,3.5504,3.5504,3.5504,3.5504,3.5504,3.5504,3.5504,3.5504,3.5504,3.5504,3.5504,3.5504,3.5504,3.5504,3.5504,3.5504,3.5504,3.5504,3.5504,3.5504,3.5504,3.5504,3.5504,3.5504,3.5504,3.5504,3.5504,3.5926,3.6661,3.7485,3.7785,3.7814,3.7875,3.7449,3.6711,3.591,3.56,3.56,3.56,3.56,3.56,3.56,3.56,3.56,3.56,3.56,3.56,3.56,3.56,3.56,3.56,3.56,3.56,3.56,3.5047,3.4554,3.4793,3.4809,3.4623,3.4064,3.451,3.4894,3.4564,3.4491,3.4491,3.4491,3.41,3.3807,3.3807,3.3807,3.3807,3.3807,3.3807,3.3807,3.3807,3.3807,3.366,3.333,3.3605,3.3642,3.3311,3.3623,3.3807,3.3807,3.3807,3.3807,3.3807,3.3807,3.3807,3.3807,3.3807,3.4045,2.6506,2.7665,2.8682,2.9041,2.9819,3.0731,3.157,3.1914,3.2527,3.4174,3.4653,3.4906,3.5415,3.5504,3.5504,3.5504,3.5504,3.5504,3.5504,3.5504,3.5504,3.5504,3.5504,3.5504,3.5504,3.5504,3.5504,3.5504,3.5504,3.5504,3.5504,3.5504,3.5504,3.5504,3.5504,3.5504,3.5504,3.5504,3.5504,3.5504,3.5504,3.5504,3.5504,3.5504,3.5504,3.5504,3.5504,3.5926,3.6661,3.7485,3.7926,3.8094,3.7935,3.7702,3.7269,3.6039,3.56,3.56,3.56,3.56,3.56,3.56,3.56,3.56,3.56,3.56,3.56,3.56,3.56,3.56,3.56,3.56,3.56,3.56,3.4895,3.4278,3.4636,3.4594,3.4428,3.4194,3.4824,3.5353,3.5353,3.5353,3.5279,3.5041,3.4491,3.4045,3.3825,3.3807,3.3807,3.3807,3.3807,3.3807,3.3807,3.3807,3.3807,3.3807,3.3807,3.3807,3.3807,3.3807,3.3807,3.3807,3.3807,3.3807,3.3807,3.3807,3.3807,3.3807,3.3807,3.4215,2.7445,2.8003,2.8906,3.0133,3.0477,3.0851,3.2183,3.2976,3.3634,3.4354,3.5011,3.5489,3.5504,3.5504,3.5504,3.5504,3.5504,3.5504,3.5504,3.5504,3.5504,3.5504,3.5504,3.5504,3.5504,3.5504,3.5504,3.5504,3.5504,3.5504,3.5504,3.5504,3.5504,3.5504,3.5504,3.5504,3.5504,3.5504,3.5504,3.5504,3.5504,3.5504,3.5504,3.5504,3.5504,3.5504,3.5504,3.5926,3.6661,3.7485,3.8218,3.8797,3.8161,3.8328,3.865,3.6411,3.56,3.56,3.56,3.56,3.56,3.56,3.56,3.56,3.56,3.56,3.56,3.56,3.56,3.56,3.56,3.56,3.56,3.56,3.4484,3.3756,3.5016,3.4458,3.4103,3.5301,3.5942,3.6266,3.6266,3.6266,3.5973,3.5133,3.4986,3.4674,3.3899,3.3807,3.3807,3.3807,3.3807,3.3807,3.3807,3.3807,3.3807,3.3807,3.3807,3.3807,3.3807,3.3807,3.3807,3.3807,3.3807,3.3807,3.3807,3.3807,3.3807,3.3807,3.3807,3.4215,2.8219,2.9044,2.9968,3.0387,3.118,3.2063,3.2961,3.3679,3.4337,3.5026,3.534,3.5504,3.5504,3.5504,3.5504,3.5504,3.5504,3.5504,3.5504,3.5504,3.5504,3.5504,3.5504,3.5504,3.5504,3.5504,3.5504,3.5504,3.5504,3.5504,3.5504,3.5504,3.5504,3.5504,3.5504,3.5504,3.5504,3.5504,3.5504,3.5504,3.5504,3.5504,3.5504,3.5504,3.5504,3.5504,3.5504,3.6227,3.7427,3.769,3.8541,3.963,3.8914,3.8768,3.8785,3.7026,3.64,3.6315,3.5785,3.56,3.56,3.56,3.56,3.56,3.56,3.56,3.56,3.56,3.56,3.56,3.56,3.56,3.56,3.56,3.4861,3.4249,3.4678,3.5018,3.5173,3.5081,3.6175,3.7107,3.7107,3.7107,3.6831,3.5991,3.4926,3.4119,3.3825,3.3807,3.3807,3.3807,3.3807,3.3807,3.3807,3.3807,3.3807,3.3807,3.3807,3.3807,3.3807,3.3807,3.3807,3.3807,3.3807,3.3807,3.3807,3.3807,3.3807,3.3807,3.4344,3.5041,2.922,2.9879,3.0627,3.1106,3.1869,3.2751,3.3649,3.4024,3.4322,3.4996,3.4951,3.4786,3.4786,3.4786,3.4861,3.51,3.513,3.522,3.5474,3.5504,3.5504,3.5504,3.5504,3.5504,3.5504,3.5504,3.5504,3.5504,3.5504,3.5504,3.5504,3.5504,3.5504,3.5504,3.5504,3.5504,3.5504,3.5504,3.5504,3.5504,3.5504,3.5504,3.5504,3.5504,3.5504,3.5504,3.5782,3.6631,3.7822,3.8092,3.8941,4.0028,3.9276,3.9157,3.9199,3.7438,3.6981,3.7026,3.5955,3.56,3.56,3.56,3.56,3.56,3.56,3.56,3.56,3.56,3.56,3.56,3.56,3.56,3.56,3.56,3.5047,3.4621,3.5092,3.5469,3.5787,3.5901,3.6842,3.7695,3.7903,3.7694,3.7327,3.6813,3.5293,3.4105,3.3844,3.3807,3.3807,3.3807,3.3807,3.3807,3.3807,3.3807,3.3807,3.3807,3.3807,3.3807,3.3807,3.3807,3.3807,3.3807,3.3807,3.3807,3.3807,3.3807,3.3807,3.3825,3.4619,3.5463,3.0402,3.0612,3.0971,3.2243,3.2587,3.2931,3.4174,3.3963,3.3709,3.4339,3.3918,3.3484,3.3455,3.3499,3.3739,3.4354,3.4518,3.4756,3.5415,3.5504,3.5504,3.5504,3.5504,3.5504,3.5504,3.5504,3.5504,3.5504,3.5504,3.5504,3.5504,3.5504,3.5504,3.5504,3.5504,3.5504,3.5504,3.5504,3.5504,3.5504,3.5504,3.5504,3.5504,3.5537,3.5554,3.5587,3.6337,3.713,3.7892,3.8608,3.9368,4.0028,3.9326,3.9486,3.9842,3.7709,3.7347,3.7753,3.6225,3.5667,3.56,3.56,3.56,3.56,3.56,3.56,3.56,3.56,3.56,3.56,3.56,3.56,3.56,3.56,3.5081,3.4878,3.6111,3.5824,3.5852,3.7541,3.7911,3.8099,3.8611,3.8065,3.7547,3.7511,3.6119,3.4766,3.3972,3.3825,3.3807,3.3807,3.3844,3.3844,3.3807,3.3844,3.3844,3.3807,3.3807,3.3807,3.3807,3.3807,3.3807,3.3807,3.3807,3.3807,3.3807,3.3807,3.3825,3.388,3.4692,3.5518,3.1197,3.1988,3.2811,3.3155,3.3619,3.3933,3.3784,3.3993,3.4159,3.3814,3.3619,3.335,3.2856,3.3559,3.4159,3.3799,3.4592,3.5295,3.5489,3.5504,3.5504,3.5504,3.5504,3.5504,3.5504,3.5504,3.5504,3.5504,3.5504,3.5504,3.5504,3.5504,3.5504,3.5504,3.5504,3.5504,3.5504,3.5504,3.5504,3.5504,3.5504,3.5504,3.5537,3.6054,3.6337,3.6353,3.716,3.7933,3.8635,3.8827,3.9368,4.0079,3.9893,3.9943,3.9977,3.886,3.8548,3.8582,3.7652,3.6546,3.56,3.56,3.56,3.56,3.56,3.56,3.56,3.56,3.56,3.56,3.56,3.56,3.56,3.56,3.5447,3.5407,3.5732,3.5963,3.6377,3.7212,3.7981,3.8546,3.8692,3.8524,3.8193,3.7584,3.6615,3.5661,3.4802,3.4174,3.3807,3.3807,3.4325,3.4454,3.3844,3.4344,3.4435,3.3844,3.3807,3.3807,3.3807,3.3807,3.3807,3.3807,3.3807,3.3807,3.3807,3.3807,3.4119,3.4711,3.5555,3.6413,3.2288,3.2931,3.3559,3.3858,3.3978,3.3948,3.3589,3.3335,3.2991,3.2317,3.1973,3.1659,3.13,3.2302,3.3155,3.308,3.4188,3.516,3.5459,3.5504,3.5504,3.5504,3.5504,3.5504,3.5504,3.5504,3.5504,3.5504,3.5504,3.5504,3.5504,3.5504,3.5504,3.5504,3.5504,3.5504,3.5504,3.5504,3.5504,3.5504,3.5504,3.5504,3.5537,3.6244,3.6615,3.6661,3.7774,3.8525,3.8935,3.9289,3.9688,4.0096,4.0096,4.0096,4.0011,3.9259,3.8988,3.8886,3.8159,3.7324,3.6597,3.6597,3.64,3.6129,3.6129,3.5893,3.56,3.56,3.56,3.56,3.56,3.56,3.56,3.56,3.56,3.56,3.56,3.5849,3.627,3.7039,3.7826,3.8415,3.8658,3.8707,3.856,3.8083,3.7037,3.6248,3.6119,3.5073,3.4325,3.4325,3.5059,3.5224,3.4399,3.4747,3.4656,3.3844,3.3807,3.3807,3.3807,3.3807,3.3807,3.3807,3.3807,3.3807,3.3807,3.4156,3.4564,3.5041,3.6266,3.707,3.3469,3.3694,3.3873,3.4384,3.4038,3.3559,3.3305,3.2318,3.1286,3.0537,2.9953,2.9577,2.946,3.0597,3.169,3.2258,3.3559,3.4711,3.5415,3.5504,3.5504,3.5504,3.5504,3.5504,3.5504,3.5504,3.5504,3.5504,3.5504,3.5504,3.5504,3.5504,3.5504,3.5504,3.5504,3.5504,3.5504,3.5504,3.5504,3.5504,3.5504,3.5554,3.5668,3.643,3.6813,3.6978,3.8425,3.9059,3.9113,3.9808,4.0096,4.0096,4.0096,4.0096,4.0028,3.9377,3.914,3.9039,3.8413,3.8193,3.8159,3.7973,3.7466,3.6931,3.6829,3.6315,3.5735,3.5633,3.56,3.56,3.56,3.56,3.56,3.56,3.56,3.56,3.56,3.5667,3.5989,3.7001,3.7578,3.8065,3.8611,3.8707,3.8707,3.8707,3.7422,3.6707,3.7419,3.6046,3.5041,3.5169,3.5936,3.6064,3.5078,3.5114,3.4784,3.3862,3.3807,3.3807,3.3807,3.3807,3.3807,3.3807,3.3807,3.3807,3.3807,3.4619,3.5059,3.5206,3.6762,3.7566,3.4309,3.4726,3.5055,3.4623,3.4414,3.3873,3.2213,3.1675,3.1167,2.9983,2.9681,2.9442,2.8876,3.0255,3.154,3.1645,3.326,3.4711,3.5415,3.5504,3.5504,3.5504,3.5504,3.5504,3.5504,3.5504,3.5504,3.5504,3.5504,3.5504,3.5504,3.5504,3.5504,3.5504,3.5504,3.5504,3.5504,3.5504,3.5504,3.5504,3.5504,3.5814,3.6446,3.7219,3.7933,3.8564,3.9489,3.9901,3.9901,4.0045,4.0096,4.0096,4.0096,4.0096,4.0079,3.996,3.991,3.9893,3.9774,3.9723,3.9537,3.8311,3.7821,3.7601,3.6998,3.6711,3.6451,3.5785,3.56,3.56,3.56,3.56,3.56,3.56,3.56,3.56,3.56,3.5963,3.6457,3.7095,3.7578,3.8065,3.8611,3.8707,3.8707,3.8707,3.79,3.7345,3.7474,3.6046,3.5279,3.6009,3.6813,3.667,3.5133,3.5661,3.5422,3.3899,3.3807,3.3807,3.3807,3.3807,3.3807,3.3807,3.3807,3.3807,3.3807,3.4619,3.5371,3.6101,3.7052,3.786,3.4921,3.525,3.534,3.4683,3.4249,3.344,3.145,3.0464,2.9729,2.8768,2.8289,2.8064,2.8053,2.94,3.0627,3.0913,3.2377,3.3814,3.4831,3.4966,3.51,3.5459,3.5504,3.5504,3.5504,3.5504,3.5504,3.5504,3.5504,3.5504,3.5504,3.5504,3.5504,3.5504,3.5504,3.5504,3.5504,3.5504,3.5504,3.5504,3.5504,3.5894,3.663,3.7427,3.8189,3.8935,3.9756,4.0096,4.0096,4.0096,4.0096,4.0096,4.0096,4.0096,4.0096,4.0096,4.0096,4.0096,4.0096,4.0096,3.9926,3.8819,3.821,3.7838,3.7483,3.6806,3.6096,3.5701,3.56,3.56,3.56,3.56,3.56,3.56,3.56,3.56,3.56,3.5805,3.6228,3.7039,3.7378,3.779,3.858,3.8707,3.8707,3.8707,3.8025,3.7658,3.8065,3.7055,3.6468,3.6886,3.7643,3.7624,3.6395,3.6303,3.5752,3.4491,3.4027,3.3807,3.3807,3.3807,3.3807,3.3807,3.3807,3.4009,3.4417,3.5261,3.6119,3.6942,3.7734,3.8322,3.4922,3.5255,3.531,3.4472,3.3873,3.2931,3.0791,2.9415,2.8368,2.7555,2.6971,2.6752,2.7285,2.8483,2.9624,3.0372,3.1509,3.2811,3.4294,3.4503,3.4758,3.5429,3.5504,3.5504,3.5504,3.5504,3.5504,3.5504,3.5504,3.5504,3.5504,3.5504,3.5504,3.5504,3.5504,3.5504,3.5504,3.5504,3.5504,3.5504,3.5504,3.599,3.6873,3.7515,3.8318,3.9193,3.985,4.0096,4.0096,4.0096,4.0096,4.0096,4.0096,4.0096,4.0096,4.0096,4.0096,4.0096,4.0096,4.0096,3.9977,3.9225,3.8616,3.8075,3.777,3.6823,3.5802,3.565,3.56,3.56,3.56,3.56,3.56,3.56,3.56,3.56,3.56,3.5694,3.6054,3.7001,3.7285,3.7632,3.8546,3.8707,3.8707,3.8707,3.8157,3.7988,3.8615,3.8138,3.7768,3.7768,3.8322,3.8303,3.7327,3.6831,3.6193,3.5334,3.4688,3.4339,3.4339,3.4339,3.4339,3.4339,3.4339,3.4651,3.5279,3.6138,3.6886,3.7529,3.8322,3.8707,3.3605,3.443,3.519,3.3903,3.3544,3.2826,3.028,2.9116,2.8233,2.6946,2.6632,2.6617,2.6686,2.7784,2.9086,3.0298,3.1107,3.2258,3.4234,3.4503,3.4758,3.5429,3.5504,3.5504,3.5504,3.5504,3.5504,3.5504,3.5504,3.5504,3.5504,3.5504,3.5504,3.5504,3.5504,3.5504,3.5504,3.5504,3.5504,3.5504,3.5504,3.6258,3.769,3.7764,3.8596,3.9978,4.007,4.0096,4.0096,4.0096,4.0096,4.0096,4.0096,4.0096,4.0096,4.0096,4.0096,4.0096,4.0096,4.0096,3.9977,3.9225,3.8937,3.865,3.732,3.6812,3.6535,3.5825,3.56,3.56,3.56,3.56,3.56,3.56,3.56,3.56,3.56,3.5968,3.6498,3.7095,3.7542,3.8032,3.8611,3.8707,3.8707,3.8707,3.8634,3.8615,3.8689,3.8634,3.8597,3.8597,3.867,3.8083,3.6541,3.7015,3.7052,3.6229,3.6101,3.6064,3.6064,3.6064,3.6064,3.6064,3.6064,3.6101,3.6174,3.6997,3.7437,3.7529,3.8322,3.8707,3.3086,3.4339,3.519,3.3829,3.32,3.2317,3.0088,2.8468,2.723,2.6692,2.6273,2.6123,2.6512,2.7375,2.8438,2.9729,2.9849,3.0597,3.2961,3.3305,3.3694,3.4756,3.525,3.5504,3.5504,3.5504,3.5504,3.5504,3.5504,3.5504,3.5504,3.5504,3.5504,3.5504,3.5504,3.5504,3.5504,3.5504,3.5504,3.5504,3.5943,3.6722,3.7822,3.8246,3.9076,4.0096,4.0096,4.0096,4.0096,4.0096,4.0096,4.0096,4.0096,4.0096,4.0096,4.0096,4.0096,4.0096,4.0096,3.9808,3.9334,3.8582,3.8041,3.7574,3.6981,3.6451,3.6011,3.5684,3.56,3.56,3.56,3.56,3.56,3.56,3.56,3.56,3.56,3.6028,3.656,3.7114,3.7578,3.8065,3.8611,3.8707,3.8707,3.8707,3.8707,3.8707,3.8707,3.8707,3.8505,3.8028,3.8414,3.845,3.7808,3.7603,3.7364,3.7052,3.656,3.6303,3.6303,3.6303,3.6303,3.6303,3.6303,3.6541,3.7015,3.7345,3.7749,3.823,3.856,3.8707,3.2323,3.3718,3.4637,3.3484,3.2706,3.1764,2.9983,2.8049,2.6587,2.6587,2.6063,2.5809,2.6467,2.7151,2.7974,2.9127,2.9071,2.9744,3.2168,3.2512,3.3006,3.4354,3.4906,3.519,3.519,3.5385,3.5504,3.5504,3.5504,3.5504,3.5504,3.5504,3.5504,3.5504,3.5504,3.5504,3.5504,3.5504,3.5504,3.5504,3.6244,3.7024,3.7822,3.8553,3.9342,4.0096,4.0096,4.0096,4.0096,4.0096,4.0096,4.0096,4.0096,4.0096,4.0096,4.0096,4.0096,4.0096,4.0096,3.9622,3.887,3.8142,3.7398,3.6761,3.6502,3.6045,3.56,3.56,3.56,3.56,3.56,3.56,3.56,3.56,3.56,3.5627,3.5805,3.6249,3.6783,3.7304,3.7808,3.8267,3.8627,3.8707,3.8707,3.8707,3.8707,3.8707,3.8707,3.8707,3.8487,3.7933,3.8358,3.8597,3.8377,3.8028,3.786,3.786,3.7312,3.7019,3.7019,3.7019,3.7019,3.7019,3.7019,3.7294,3.786,3.786,3.8138,3.8707,3.8707,3.8707,3.1065,3.2351,3.3365,3.2691,3.2004,3.1167,2.9879,2.8049,2.6587,2.6587,2.6063,2.5809,2.6467,2.7151,2.7824,2.8502,2.9146,3.0268,3.2243,3.2512,3.3006,3.4354,3.4518,3.4518,3.4518,3.51,3.5504,3.5504,3.5504,3.5504,3.5504,3.5504,3.5504,3.5504,3.5504,3.5504,3.5504,3.5504,3.5504,3.5504,3.6244,3.7024,3.7822,3.8553,3.9342,4.0096,4.0096,4.0096,4.0096,4.0096,4.0096,4.0096,4.0096,4.0096,4.0096,4.0096,4.0096,4.0096,4.0096,3.9622,3.887,3.8142,3.7398,3.666,3.5836,3.56,3.56,3.56,3.56,3.56,3.56,3.56,3.56,3.56,3.56,3.5739,3.6287,3.6823,3.7323,3.779,3.8334,3.8692,3.8707,3.8707,3.8707,3.8707,3.8707,3.8707,3.8707,3.8707,3.8707,3.8689,3.8707,3.8377,3.7584,3.823,3.8689,3.8689,3.8689,3.8689,3.8689,3.8689,3.8689,3.8689,3.8689,3.8689,3.8689,3.8689,3.8689,3.8707,3.8707,3.8707,2.9517,3.0984,3.1959,3.1315,3.0657,2.9983,2.9101,2.7709,2.6587,2.6587,2.6422,2.6348,2.6557,2.7151,2.8109,2.9654,2.9729,3.0268,3.2243,3.2901,3.3335,3.3754,3.4622,3.5175,3.5175,3.5385,3.5504,3.5504,3.5504,3.5504,3.5504,3.5504,3.5504,3.5504,3.5504,3.5504,3.5504,3.5504,3.5504,3.5504,3.6783,3.7544,3.7835,3.9129,3.9876,4.0096,4.0096,4.0096,4.0096,4.0096,4.0096,4.0096,4.0096,4.0096,4.0096,4.0096,4.0096,4.0028,3.9512,3.887,3.8125,3.7381,3.662,3.5943,3.5667,3.56,3.56,3.56,3.56,3.56,3.56,3.56,3.56,3.56,3.56,3.5739,3.627,3.6823,3.7341,3.7807,3.8332,3.8707,3.8707,3.8707,3.8707,3.8707,3.8707,3.8707,3.8707,3.8707,3.8707,3.8707,3.8707,3.8597,3.834,3.856,3.8707,3.8707,3.8707,3.8707,3.8707,3.8707,3.8707,3.8707,3.8707,3.8707,3.8707,3.8707,3.8707,3.8707,3.8707,3.8707,2.8376,2.9904,3.0687,3.0253,2.9684,2.9041,2.8368,2.7186,2.6213,2.6213,2.6213,2.6303,2.6542,2.7151,2.8004,2.9205,2.9532,3.0178,3.1869,3.2706,3.3305,3.3799,3.4607,3.522,3.5489,3.5504,3.5504,3.5504,3.5504,3.5504,3.5504,3.5504,3.5504,3.5504,3.5504,3.5504,3.5504,3.5504,3.5504,3.5537,3.7071,3.7793,3.7835,3.9401,4.0096,4.0096,4.0096,4.0096,0.0,4.0096,4.0096,4.0096,4.0096,4.0096,4.0096,4.0096,3.9926,3.9622,3.9157,3.8328,3.7398,3.6965,3.6265,3.56,3.56,3.56,3.56,3.56,3.56,3.56,3.56,3.56,3.56,3.56,3.5761,3.6054,3.66,3.7097,3.7596,3.8117,3.8465,3.8707,3.8707,3.8707,3.8707,3.8707,3.8707,3.8707,3.8707,3.8707,3.8707,3.8707,3.8707,3.8707,3.8707,3.8707,3.8707,3.8707,3.8707,3.8707,3.8707,3.8707,3.8707,3.8707,3.8707,3.8707,3.8707,3.8707,3.8707,3.8707,3.8707,3.8747,0.0,2.8801,2.9337,2.9337,2.8846,2.8218,2.76,2.6482,0.0,2.5615,2.5615,2.5824,2.6527,2.7151,2.7585,2.7779,2.8858,3.0088,3.1331,3.2108,3.308,3.4429,3.4578,3.4833,3.5444,3.5504,3.5504,3.5504,3.5504,3.5504,3.5504,3.5504,3.5504,3.5504,3.5504,3.5504,3.5504,3.5554,3.5587,3.5587,3.7145,3.7863,3.7921,3.9428,4.0096,4.0096,4.0096,4.0096,4.0096,4.0096,4.0096,4.0096,4.0096,4.0096,4.0096,4.0096,3.9639,3.8988,3.8937,3.7973,3.6795,3.6745,3.6214,3.56,3.56,3.56,3.56,3.56,3.56,3.56,3.56,3.56,3.56,3.56,3.6028,3.656,3.7078,3.756,3.8065,3.8611,3.8707,3.8707,3.8707,3.8707,3.8707,3.8707,3.8707,3.8707,3.8707,3.8707,3.8707,3.8707,3.8707,3.8707,3.8707,3.8707,3.8707,3.8707,3.8707,3.8707,3.8707,3.8707,3.8707,3.8707,3.8707,3.8707,3.8707,3.8707,3.8707,3.8707,3.8707,3.8829,2.5188,0.0,2.6542,2.6542,2.6422,2.6273,0.0,2.5839,2.5615,2.5615,2.5615,2.5959,2.7151,2.7076,2.7495,2.949,3.0073,3.0582,3.1391,3.2512,3.3754,3.51,3.5265,3.5325,3.5489,3.5504,3.5504,3.5504,3.5504,3.5504,3.5504,3.5504,3.5504,3.5504,3.5504,3.5504,3.5504,3.6054,3.6337,3.6353,3.7917,3.8635,3.8663,3.9636,4.0096,4.0096,4.0096,4.0096,4.0096,4.0096,4.0096,4.0096,4.0096,4.0096,4.0096,4.0096,3.9639,3.892,3.8345,3.755,3.6711,3.6079,3.5752,3.56,3.56,3.56,3.56,3.56,3.56,3.56,3.56,3.56,3.56,3.56,3.6028,3.656,3.7078,3.756,3.8065,3.8611,3.8707,3.8707,3.8707,3.8707,3.8707,3.8707,3.8707,3.8707,3.8707,3.8707,3.8707,3.8707,3.8707,3.8707,3.8707,3.8707,3.8707,3.8707,3.8707,3.8707,3.8707,3.8707,3.8707,3.8707,3.8707,3.8707,3.8707,3.8707,3.8707,3.8707,3.8707,3.8735,2.406,2.5091,2.6063,2.6063,2.6063,2.5974,2.5674,2.5352,2.5038,2.4762,2.4941,2.5457,2.6482,2.6896,2.763,2.9355,3.0118,3.0956,3.2258,3.3574,3.4696,3.5415,3.5504,3.5504,3.5504,3.5504,3.5504,3.5504,3.5504,3.5504,3.5504,3.5504,3.5504,3.5504,3.5504,3.5504,3.5504,3.6228,3.6615,3.66,3.8157,3.8908,3.8935,3.9731,4.0096,4.0096,4.0096,4.0096,4.0096,4.0096,4.0096,4.0096,4.0096,4.0096,4.0062,3.9723,3.9123,3.8396,3.7652,3.6891,3.618,3.5735,3.56,3.56,3.56,3.56,3.56,3.56,3.56,3.56,3.56,3.56,3.565,3.592,3.6374,3.6921,3.7415,3.7911,3.8348,3.8643,3.8707,3.8707,3.8707,3.8707,3.8707,3.8707,3.8707,3.8707,3.8707,3.8707,3.8707,3.8707,3.8707,3.8707,3.8707,3.8707,3.8707,3.8707,3.8707,3.8707,3.8707,3.8707,3.8707,3.8707,3.8707,3.8707,3.8707,3.8707,3.8707,3.8707,3.8707,3.8777,2.3729,2.5151,2.6512,2.6213,2.6288,2.6273,2.5615,2.5008,2.447,2.3999,2.4276,2.4874,2.5749,2.6811,2.7884,2.8742,2.9968,3.1465,3.338,3.4622,3.5385,3.5489,3.5504,3.5504,3.5504,3.5504,3.5504,3.5504,3.5504,3.5504,3.5504,3.5504,3.5504,3.5504,3.5504,3.5554,3.5668,3.6399,3.6783,3.6783,3.8342,3.9086,3.9113,3.9782,4.0096,4.0096,4.0096,4.0096,4.0096,4.0096,4.0096,4.0096,4.0096,4.0028,3.9859,3.9225,3.8464,3.7635,3.6874,3.618,3.56,3.56,3.56,3.56,3.56,3.56,3.56,3.56,3.56,3.5622,3.5694,3.5717,3.5854,3.6395,3.6923,3.7415,3.7807,3.8316,3.8707,3.8707,3.8707,3.8707,3.8707,3.8707,3.8707,3.8707,3.8707,3.8707,3.8707,3.8707,3.8707,3.8707,3.8707,3.8707,3.8707,3.8707,3.8707,3.8707,3.8707,3.8707,3.8707,3.8707,3.8707,3.8707,3.8707,3.8707,3.8707,3.8707,3.8707,3.8707,3.8707,3.8815,2.4291,2.551,2.6183,2.4492,2.4911,2.5585,2.4903,2.4679,2.4724,2.5211,2.4918,2.5143,2.6971,2.7465,2.8169,2.9924,3.133,3.2706,3.4159,3.4533,3.4846,3.5429,3.5504,3.5504,3.5504,3.5504,3.5504,3.5504,3.5504,3.5504,3.5504,3.5504,3.5504,3.5504,3.5504,3.5814,3.6415,3.7219,3.7602,3.7632,3.9199,3.9927,3.9927,4.0045,4.0096,4.0096,4.0096,4.0096,4.0096,4.0096,4.0096,4.0096,4.0096,3.9723,3.9165,3.9039,3.8149,3.6863,3.6062,3.5701,3.56,3.56,3.56,3.56,3.56,3.56,3.56,3.56,3.56,3.5694,3.6161,3.6287,3.6416,3.696,3.7451,3.7807,3.7876,3.8316,3.8707,3.8707,3.8707,3.8707,3.8707,3.8707,3.8707,3.8707,3.8707,3.8707,3.8707,3.8707,3.8707,3.8707,3.8707,3.8707,3.8707,3.8707,3.8707,3.8707,3.8707,3.8707,3.8707,3.8707,3.8707,3.8707,3.8707,3.8707,3.8707,3.8707,3.8707,3.8707,3.8707,3.8719,2.3984,2.4754,2.5315,2.4365,2.542,2.6497,2.5839,2.5397,2.5217,2.5555,2.5337,2.5636,2.73,2.8184,2.9442,3.1749,3.2931,3.3784,3.4414,3.4801,3.5145,3.5474,3.5504,3.5504,3.5504,3.5504,3.5504,3.5504,3.5504,3.5504,3.5504,3.5504,3.5504,3.5504,3.5504,3.5863,3.6569,3.7397,3.8007,3.8414,3.9558,4.0096,4.0096,4.0096,4.0096,4.0096,4.0096,4.0096,4.0096,4.0096,4.0096,4.0096,4.0096,3.9656,3.8886,3.8115,3.711,3.6096,3.5718,3.56,3.56,3.56,3.56,3.56,3.56,3.5805,3.6032,3.6032,3.6032,3.6097,3.635,3.662,3.6962,3.747,3.7737,3.798,3.8267,3.853,3.8707,3.8707,3.8707,3.8707,3.8707,3.8707,3.8707,3.8707,3.8707,3.8707,3.8707,3.8707,3.8707,3.8707,3.8707,3.8707,3.8707,3.8707,3.8707,3.8707,3.8707,3.8707,3.8707,3.8707,3.8707,3.8707,3.8707,3.8707,3.8707,3.8707,3.8707,3.8707,3.8707,3.8707,2.3789,2.4321,2.4829,2.4829,2.5989,2.7091,2.6881,2.6318,2.5974,2.6437,2.6408,2.6662,2.7854,2.9292,3.0971,3.314,3.4188,3.4711,3.4711,3.5175,3.5504,3.5504,3.5504,3.5504,3.5504,3.5504,3.5504,3.5504,3.5504,3.5504,3.5504,3.5504,3.5504,3.5504,3.5668,3.6117,3.6873,3.7645,3.833,3.8908,3.9731,4.0096,4.0096,4.0096,4.0096,4.0096,4.0096,4.0096,4.0096,4.0096,4.0096,4.0079,3.991,3.93,3.8335,3.6992,3.6129,3.56,3.56,3.56,3.56,3.56,3.56,3.56,3.56,3.5968,3.6395,3.6395,3.6563,3.6746,3.6746,3.7058,3.7488,3.7963,3.8082,3.82,3.8611,3.8707,3.8707,3.8707,3.8707,3.8707,3.8707,3.8707,3.8707,3.8707,3.8707,3.8707,3.8707,3.8707,3.8707,3.8707,3.8707,3.8707,3.8707,3.8707,3.8707,3.8707,3.8707,3.8707,3.8707,3.8707,3.8707,3.8707,3.8707,3.8707,3.8707,3.8707,3.8707,3.8707,3.8707,3.8735,2.435,2.5008,2.554,2.554,2.5644,2.6063,2.7255,2.7016,2.7076,2.8933,2.8816,2.8607,2.9337,3.1016,3.2572,3.3365,3.4577,3.5429,3.5429,3.5474,3.5504,3.5504,3.5504,3.5504,3.5504,3.5504,3.5504,3.5504,3.5504,3.5504,3.5504,3.5504,3.5504,3.5504,3.6165,3.6904,3.7706,3.8442,3.8854,3.8908,3.9731,4.0096,4.0096,4.0096,4.0096,4.0096,4.0096,4.0096,4.0096,4.0096,4.0096,4.0028,3.9368,3.8217,3.6863,3.6011,3.565,3.56,3.56,3.56,3.56,3.56,3.56,3.56,3.56,3.5968,3.6395,3.6395,3.706,3.779,3.779,3.7825,3.798,3.853,3.8643,3.8643,3.8692,3.8707,3.8707,3.8707,3.8707,3.8707,3.8707,3.8707,3.8707,3.8707,3.8707,3.8707,3.8707,3.8707,3.8707,3.8707,3.8707,3.8707,3.8707,3.8707,3.8707,3.8707,3.8707,3.8707,3.8707,3.8707,3.8707,3.8707,3.8707,3.8707,3.8707,3.8707,3.8707,3.8707,3.8707,3.8829,2.3819,2.4163,2.4567,2.539,2.5615,2.5959,2.73,2.7735,2.8278,2.9834,2.9953,3.0118,3.121,3.2347,3.3335,3.3993,3.4891,3.5504,3.5504,3.5504,3.5504,3.5504,3.5504,3.5504,3.5504,3.5504,3.5504,3.5504,3.5504,3.5504,3.5504,3.5504,3.5504,3.5504,3.6228,3.6994,3.7777,3.8525,3.9139,3.9636,3.9952,4.0096,4.0096,4.0096,4.0096,4.0096,4.0096,4.0096,4.0096,4.0096,3.9842,3.9317,3.8115,3.7303,3.6711,3.591,3.56,3.56,3.56,3.56,3.56,3.56,3.56,3.565,3.6006,3.646,3.6962,3.7249,3.7843,3.8316,3.798,3.815,3.8449,3.8643,3.8707,3.8707,3.8707,3.8707,3.8707,3.8707,3.8707,3.8707,3.8707,3.8707,3.8707,3.8707,3.8707,3.8707,3.8707,3.8707,3.8707,3.8707,3.8707,3.8707,3.8707,3.8707,3.8707,3.8707,3.8707,3.8707,3.8707,3.8707,3.8707,3.8707,3.8707,3.8707,3.8707,3.8707,3.8707,3.8707,3.8869,3.9013,2.3272,2.3445,2.3864,2.4993,2.5615,2.6273,2.7615,2.8263,2.9086,3.0791,3.1135,3.142,3.2318,3.3051,3.3649,3.4098,3.4921,3.5504,3.5504,3.5504,3.5504,3.5504,3.5504,3.5504,3.5504,3.5504,3.5504,3.5504,3.5504,3.5504,3.5504,3.5504,3.5619,3.5831,3.6569,3.7352,3.8133,3.8897,3.9558,4.0096,4.0096,4.0096,4.0096,4.0096,4.0096,4.0096,4.0096,4.0096,4.0096,4.0096,3.9537,3.8531,3.7303,3.6643,3.6349,3.5785,3.56,3.56,3.56,3.56,3.56,3.56,3.5717,3.592,3.6287,3.6865,3.7488,3.7807,3.8283,3.8627,3.8251,3.8415,3.8707,3.8707,3.8707,3.8707,3.8707,3.8707,3.8707,3.8707,3.8707,3.8707,3.8707,3.8707,3.8707,3.8707,3.8707,3.8707,3.8707,3.8707,3.8707,3.8707,3.8707,3.8707,3.8707,3.8707,3.8707,3.8707,3.8707,3.8707,3.8707,3.8707,3.8707,3.8707,3.8707,3.8707,3.8707,3.8707,3.8707,3.8707,3.899,3.9165,2.2868,2.3152,2.3774,2.4455,2.563,2.6961,2.8308,2.8622,2.9355,3.1944,3.2527,3.2497,3.2497,3.3066,3.3499,3.3499,3.4637,3.5504,3.5504,3.5504,3.5504,3.5504,3.5504,3.5504,3.5504,3.5504,3.5504,3.5504,3.5504,3.5504,3.5504,3.5504,3.5846,3.6584,3.7397,3.8161,3.8881,3.9705,4.0096,4.0096,4.0096,4.0096,4.0096,4.0096,4.0096,4.0096,4.0096,4.0096,4.0096,4.0079,3.9208,3.7838,3.7083,3.6299,3.56,3.56,3.56,3.56,3.56,3.56,3.56,3.56,3.5963,3.6395,3.6412,3.7116,3.7893,3.7911,3.8283,3.8707,3.8707,3.8707,3.8707,3.8707,3.8707,3.8707,3.8707,3.8707,3.8707,3.8707,3.8707,3.8707,3.8707,3.8707,3.8707,3.8707,3.8707,3.8707,3.8707,3.8707,3.8707,3.8707,3.8707,3.8707,3.8707,3.8707,3.8707,3.8707,3.8707,3.8707,3.8707,3.8707,3.8707,3.8707,3.8707,3.8707,3.8707,3.8707,3.8707,3.8704,3.8985,3.9289,2.2868,2.3475,2.4575,2.5719,2.7006,2.8353,2.9639,2.9939,3.0432,3.2168,3.2886,3.32,3.32,3.3739,3.4219,3.4219,3.4921,3.5504,3.5504,3.5504,3.5504,3.5504,3.5504,3.5504,3.5504,3.5504,3.5504,3.5504,3.5504,3.5504,3.5504,3.6006,3.6353,3.6569,3.7873,3.869,3.8908,3.9705,4.0096,4.0096,3.9571,3.9605,4.0096,4.0096,4.0096,4.0096,4.0096,4.0096,4.0028,3.8971,3.8294,3.7787,3.6468,3.5802,3.56,3.56,3.56,3.56,3.56,3.56,3.56,3.56,3.5963,3.6478,3.6843,3.7415,3.798,3.8366,3.8596,3.8707,3.8707,3.8707,3.8707,3.8707,3.8707,3.8707,3.8707,3.8707,3.8707,3.8707,3.8707,3.8707,3.8707,3.8707,3.8707,3.8707,3.8707,3.8707,3.8707,3.8707,3.8707,3.8707,3.8707,3.8707,3.8707,3.8707,3.8707,3.8707,3.8707,3.8707,3.8707,3.8707,3.8707,3.8707,3.8707,3.8707,3.8707,3.8898,3.8985,3.8985,3.9541,3.987,2.3092,2.3819,2.4993,2.6587,2.7799,2.8996,3.0567,3.1106,3.1524,3.2318,3.3036,3.3499,3.3499,3.4038,3.4503,3.4503,3.5055,3.5504,3.5504,3.5504,3.5504,3.5504,3.5504,3.5504,3.5504,3.5504,3.5504,3.5504,3.5504,3.5504,3.5504,3.5926,3.6446,3.707,3.7991,3.8761,3.9368,3.9876,4.0096,4.0096,3.9656,3.9673,4.0096,3.9808,3.9825,4.0096,4.0096,4.0096,3.9994,3.8514,3.7905,3.7753,3.6191,3.56,3.56,3.56,3.56,3.56,3.56,3.5739,3.592,3.592,3.6399,3.7058,3.7378,3.7825,3.8283,3.8611,3.8707,3.8707,3.8707,3.8707,3.8707,3.8707,3.8707,3.8707,3.8707,3.8707,3.8707,3.8707,3.8707,3.8707,3.8707,3.8707,3.8707,3.8707,3.8707,3.8707,3.8707,3.8707,3.8707,3.8707,3.8707,3.8707,3.8707,3.8707,3.8707,3.8707,3.8707,3.8707,3.8707,3.8707,3.8707,3.8707,3.8803,3.8818,3.8707,3.9109,3.9225,3.9125,3.9786,4.0101,2.337,2.4148,2.5247,2.721,2.8263,2.934,3.1092,3.1974,3.2392,3.2392,3.2946,3.3425,3.3484,3.4038,3.4533,3.4593,3.51,3.5537,3.5587,3.5587,3.5587,3.5587,3.5651,3.5683,3.5619,3.5587,3.5587,3.5587,3.5537,3.5504,3.5504,3.5619,3.6337,3.7764,3.7937,3.8695,4.007,4.0096,4.0079,3.9994,3.9943,3.9943,3.9977,3.9385,3.9486,4.0096,4.0028,4.0011,3.9893,3.8481,3.7872,3.7652,3.6174,3.56,3.56,3.56,3.56,3.56,3.56,3.5963,3.6395,3.6395,3.7079,3.7893,3.7893,3.8283,3.8707,3.8707,3.8707,3.8707,3.8707,3.8707,3.8707,3.8707,3.8707,3.8707,3.8707,3.8707,3.8707,3.8707,3.8707,3.8707,3.8707,3.8707,3.8707,3.8707,3.8707,3.8707,3.8707,3.8707,3.8707,3.8707,3.8707,3.8707,3.8707,3.8707,3.8707,3.8707,3.8707,3.8707,3.8707,3.8707,3.8707,3.8707,3.8957,3.8971,3.875,3.9339,3.9493,3.9218,3.984,4.0139,2.3002,2.4515,2.6527,2.8008,2.9654,3.0987,3.1406,3.1615,3.172,3.172,3.2243,3.2886,3.3395,3.4038,3.4651,3.519,3.5415,3.5701,3.6275,3.6353,3.6353,3.6353,3.6935,3.7055,3.6415,3.6353,3.6353,3.6353,3.5831,3.5504,3.5504,3.6662,3.7472,3.7793,3.8968,3.9756,4.0096,4.0096,3.9808,3.9225,3.865,3.8667,3.9242,3.9673,3.996,4.0079,3.9503,3.9225,3.9157,3.8278,3.755,3.6948,3.5971,3.56,3.56,3.56,3.56,3.56,3.56,3.5963,3.6395,3.6395,3.7079,3.7893,3.7893,3.8283,3.8707,3.8707,3.8707,3.8707,3.8707,3.8707,3.8707,3.8707,3.8707,3.8707,3.8707,3.8707,3.8707,3.8707,3.8707,3.8707,3.8707,3.8707,3.8707,3.8707,3.8707,3.8707,3.8707,3.8707,3.8707,3.8707,3.8707,3.8707,3.8707,3.8707,3.8707,3.8707,3.8707,3.8707,3.8707,3.8707,3.8707,3.8707,3.8957,3.9072,3.9027,3.9656,3.9962,3.9901,4.0258,4.0406,2.3445,2.4837,2.6602,2.8577,3.0313,3.1511,3.1511,3.1511,3.1511,3.1511,3.2034,3.2691,3.3378,3.4333,3.5248,3.5967,3.6353,3.6738,3.713,3.7174,3.7174,3.7174,3.7544,3.7485,3.6676,3.6615,3.6446,3.6117,3.5416,3.5155,3.5472,3.6301,3.7064,3.7788,3.859,3.9185,3.9563,3.9208,3.8853,3.8464,3.8091,3.8108,3.8497,3.9225,3.9571,3.9537,3.8785,3.8464,3.8413,3.7669,3.7168,3.6728,3.5904,3.56,3.56,3.56,3.56,3.5644,3.5898,3.6333,3.6823,3.7058,3.7649,3.8283,3.8283,3.8481,3.8707,3.8707,3.8707,3.8707,3.8707,3.8707,3.8707,3.8707,3.8707,3.8707,3.8707,3.8707,3.8707,3.8707,3.8707,3.8707,3.8707,3.8707,3.8707,3.8707,3.8707,3.8707,3.8707,3.8707,3.8707,3.8707,3.8707,3.8707,3.8707,3.8707,3.8707,3.8707,3.8707,3.8707,3.8707,3.8707,3.8707,3.8707,3.9122,3.9251,3.9093,3.9894,4.0242,4.0101,4.0372,4.0496,2.3663,2.4993,2.6557,2.9101,3.0642,3.1511,3.1511,3.1511,3.1539,3.1668,3.2118,3.2729,3.3362,3.4563,3.5723,3.6561,3.7217,3.7706,3.7962,3.7882,3.785,3.7962,3.7995,3.7748,3.7053,3.6869,3.6613,3.6117,3.509,3.4866,3.5667,3.5661,3.6232,3.7551,3.7725,3.8136,3.8802,3.821,3.7838,3.7719,3.7719,3.7719,3.7736,3.8328,3.8684,3.8768,3.8024,3.7719,3.7669,3.7066,3.6728,3.6541,3.5853,3.56,3.56,3.56,3.56,3.5689,3.6224,3.6744,3.7267,3.7737,3.8267,3.8707,3.8707,3.8707,3.8707,3.8707,3.8707,3.8707,3.8707,3.8707,3.8707,3.8707,3.8707,3.8707,3.8707,3.8707,3.8707,3.8707,3.8707,3.8707,3.8707,3.8707,3.8707,3.8707,3.8707,3.8707,3.8707,3.8707,3.8707,3.8707,3.8707,3.8707,3.8707,3.8707,3.8707,3.8707,3.8707,3.8719,3.8777,3.8777,3.8807,3.8848,3.9339,3.9486,3.9264,4.0101,4.0381,4.0167,4.0389,4.0496,2.2024,2.4665,2.7824,2.9864,3.0928,3.1511,3.1511,3.1511,3.1682,3.2327,3.2527,3.2758,3.3398,3.4187,3.519,3.6502,3.6773,3.7283,3.8564,3.8193,3.8045,3.8679,3.8809,3.8753,3.8625,3.8008,3.7856,3.8421,3.6004,3.5103,3.6464,3.6007,3.6039,3.6821,3.7511,3.7945,3.8058,3.7956,3.7584,3.6948,3.6948,3.6948,3.6965,3.7049,3.7432,3.8007,3.7286,3.6948,3.6948,3.6846,3.6383,3.5735,3.5633,3.56,3.56,3.56,3.56,3.5689,3.6224,3.6744,3.7267,3.7737,3.8267,3.8707,3.8707,3.8707,3.8707,3.8707,3.8707,3.8707,3.8707,3.8707,3.8707,3.8707,3.8707,3.8707,3.8707,3.8707,3.8707,3.8707,3.8707,3.8707,3.8707,3.8707,3.8707,3.8707,3.8707,3.8707,3.8707,3.8707,3.8707,3.8707,3.8707,3.8707,3.8707,3.8707,3.8707,3.8707,3.8707,3.8803,3.9036,3.9049,3.9178,3.9469,3.9564,3.9731,3.9972,4.0339,4.0481,4.0457,4.0481,4.0496,2.2936,2.5405,2.7989,2.9579,3.0477,3.1032,3.1406,3.1511,3.171,3.2465,3.2895,3.3356,3.3992,3.4713,3.5549,3.6578,3.7091,3.7599,3.8254,3.8045,3.7978,3.8304,3.8353,3.8194,3.7699,3.7357,3.7167,3.7075,3.5498,3.5013,3.6022,3.5834,3.6031,3.6725,3.7104,3.728,3.728,3.684,3.6468,3.6129,3.6129,3.6129,3.6129,3.6129,3.6552,3.7229,3.6468,3.6129,3.6129,3.6129,3.5926,3.56,3.56,3.56,3.56,3.56,3.56,3.5717,3.6563,3.7001,3.734,3.81,3.8496,3.8707,3.8707,3.8707,3.8707,3.8707,3.8707,3.8707,3.8707,3.8707,3.8707,3.8707,3.8707,3.8707,3.8707,3.8707,3.8707,3.8707,3.8707,3.8707,3.8707,3.8707,3.8707,3.8707,3.8707,3.8707,3.8707,3.8707,3.8707,3.8707,3.8707,3.8707,3.8707,3.8707,3.8707,3.8707,3.8844,3.8971,3.9099,3.9276,3.9541,3.988,3.988,3.9943,4.0101,4.0364,4.0496,4.0496,4.0496,4.0496,2.3633,2.557,2.721,2.8723,2.9789,3.0642,3.1122,3.1376,3.1768,3.2668,3.3235,3.3862,3.4688,3.5295,3.5911,3.6692,3.7246,3.7686,3.7872,3.7736,3.7702,3.7889,3.7736,3.7461,3.7062,3.6846,3.6585,3.6194,3.5195,3.4964,3.586,3.5588,3.5749,3.6485,3.6485,3.6485,3.6485,3.591,3.56,3.56,3.56,3.56,3.56,3.56,3.5943,3.6451,3.5853,3.56,3.56,3.56,3.56,3.56,3.56,3.56,3.56,3.56,3.5689,3.5941,3.6865,3.7267,3.7524,3.8417,3.8707,3.8707,3.8707,3.8707,3.8707,3.8707,3.8707,3.8707,3.8707,3.8707,3.8707,3.8707,3.8707,3.8707,3.8707,3.8707,3.8707,3.8707,3.8707,3.8707,3.8707,3.8707,3.8707,3.8707,3.8707,3.8707,3.8707,3.8707,3.8707,3.8707,3.8707,3.8707,3.8707,3.8707,3.8707,3.8707,3.8898,3.9063,3.9212,3.9481,3.9797,4.0195,4.0195,4.0195,4.0195,4.0397,4.0496,4.0496,4.0496,4.0496,2.2936,2.4186,2.5232,2.721,2.9101,3.0507,3.0552,3.1032,3.1894,3.3245,3.3598,3.3987,3.5316,3.5571,3.5864,3.6654,3.6829,3.7117,3.7804,3.7297,3.7134,3.7821,3.728,3.7127,3.7773,3.7199,3.7081,3.7742,3.5815,3.5236,3.6652,3.5414,3.4968,3.5628,3.565,3.565,3.565,3.5616,3.56,3.56,3.56,3.56,3.56,3.56,3.5616,3.565,3.5616,3.56,3.56,3.56,3.56,3.56,3.56,3.56,3.56,3.56,3.592,3.6437,3.7001,3.7488,3.7963,3.853,3.8707,3.8707,3.8707,3.8707,3.8707,3.8707,3.8707,3.8707,3.8707,3.8707,3.8707,3.8707,3.8707,3.8707,3.8707,3.8707,3.8707,3.8707,3.8707,3.8707,3.8707,3.8707,3.8707,3.8707,3.8707,3.8707,3.8707,3.8707,3.8707,3.8707,3.8707,3.8707,3.8707,3.8707,3.8707,3.8707,3.8704,3.8984,3.9552,3.9599,3.9874,4.0473,4.0481,4.0481,4.0481,4.0489,4.0496,4.0496,4.0496,4.0496,2.2128,2.3468,2.4874,2.6033,2.7495,2.8742,2.9175,3.0103,3.1134,3.2044,3.2581,3.3299,3.4656,3.5278,3.5684,3.5994,3.6028,3.6129,3.6377,3.6214,3.6146,3.6377,3.6197,3.6146,3.6394,3.6197,3.6146,3.6394,3.5704,3.548,3.6005,3.5536,3.5362,3.56,3.56,3.56,3.56,3.56,3.56,3.56,3.56,3.56,3.56,3.56,3.56,3.56,3.56,3.56,3.56,3.56,3.56,3.56,3.56,3.56,3.56,3.56,3.5941,3.6478,3.7001,3.7506,3.798,3.853,3.8707,3.8707,3.8707,3.8707,3.8707,3.8707,3.8707,3.8707,3.8707,3.8707,3.8707,3.8707,3.8707,3.8707,3.8707,3.8707,3.8707,3.8707,3.8707,3.8707,3.8707,3.8707,3.8707,3.8707,3.8707,3.8707,3.8707,3.8707,3.8707,3.8707,3.8707,3.8707,3.8707,3.8707,3.8707,3.8707,3.9064,3.9377,3.9599,3.9965,4.0274,4.0496,4.0496,4.0496,4.0496,4.0496,4.0496,4.0496,4.0496,4.0496,2.1365,2.2652,2.4156,2.5038,2.6093,2.7215,2.8338,2.925,3.0125,3.102,3.155,3.2264,3.3601,3.4443,3.5076,3.5526,3.56,3.56,3.56,3.56,3.56,3.56,3.56,3.56,3.56,3.56,3.56,3.56,3.56,3.56,3.56,3.56,3.56,3.56,3.56,3.56,3.56,3.56,3.56,3.56,3.56,3.56,3.56,3.56,3.56,3.56,3.56,3.56,3.56,3.56,3.56,3.56,3.56,3.56,3.5622,3.5805,3.6224,3.6744,3.7267,3.7755,3.8234,3.8578,3.8707,3.8707,3.8707,3.8707,3.8707,3.8707,3.8707,3.8707,3.8707,3.8707,3.8707,3.8707,3.8707,3.8707,3.8707,3.8707,3.8707,3.8707,3.8707,3.8707,3.8707,3.8707,3.8707,3.8707,3.8707,3.8707,3.8707,3.8707,3.8707,3.8707,3.8707,3.8707,3.8707,3.8707,3.8707,3.8707,3.9163,3.9474,3.9599,4.0091,4.0397,4.0496,4.0496,4.0496,4.0496,4.0496,4.0496,4.0496,4.0496,4.0496,0.0,0.0,0.0,2.4186,2.4993,2.6033,2.8008,2.8487,2.8876,3.0217,3.0509,3.0926,3.222,3.3046,3.3981,3.5318,3.5583,3.56,3.56,3.56,3.56,3.56,3.56,3.56,3.56,3.56,3.56,3.56,3.56,3.56,3.56,3.56,3.56,3.56,3.56,3.56,3.56,3.56,3.56,3.56,3.56,3.56,3.56,3.56,3.56,3.56,3.56,3.56,3.56,3.56,3.56,3.56,3.56,3.5622,3.5689,3.6224,3.6744,3.7285,3.7737,3.8251,3.8707,3.8707,3.8707,3.8707,3.8707,3.8707,3.8707,3.8707,3.8707,3.8707,3.8707,3.8707,3.8707,3.8707,3.8707,3.8707,3.8707,3.8707,3.8707,3.8707,3.8707,3.8707,3.8707,3.8707,3.8707,3.8707,3.8707,3.8707,3.8707,3.8707,3.8707,3.8707,3.8707,3.8707,3.8707,3.8707,3.8704,3.8704,3.8957,3.9276,3.9599,3.9932,4.0232,4.0489,4.0496,4.0496,4.0496,4.0496,4.0496,4.0496,4.0496,4.0496,2.0228,0.0,0.0,0.0,0.0,0.0,2.4762,2.5734,2.6796,2.8099,2.8721,2.9499,3.0824,3.1585,3.248,3.3921,3.4964,3.56,3.56,3.56,3.56,3.56,3.56,3.56,3.56,3.56,3.56,3.56,3.56,3.56,3.56,3.56,3.56,3.56,3.56,3.56,3.56,3.56,3.56,3.56,3.56,3.56,3.56,3.56,3.56,3.56,3.56,3.56,3.56,3.56,3.56,3.56,3.56,3.5849,3.6203,3.635,3.6962,3.772,3.7842,3.8251,3.8707,3.8707,3.8707,3.8707,3.8707,3.8707,3.8707,3.8707,3.8707,3.8707,3.8707,3.8707,3.8707,3.8707,3.8707,3.8707,3.8707,3.8707,3.8707,3.8707,3.8707,3.8707,3.8707,3.8707,3.8707,3.8707,3.8707,3.8707,3.8707,3.8707,3.8707,3.8707,3.8707,3.8707,3.8707,3.8884,3.8985,3.8985,3.9505,3.9851,3.9972,4.0241,4.0414,4.0496,4.0496,4.0496,4.0496,4.0496,4.0496,4.0496,4.0496,4.0496,2.0887,2.1595,2.2568,2.2039,0.0,0.0,2.4103,2.4612,2.522,2.6786,2.7437,2.8104,2.9407,3.0199,3.1011,3.2131,3.3696,3.4964,3.5526,3.56,3.56,3.56,3.56,3.56,3.56,3.56,3.56,3.56,3.56,3.56,3.56,3.56,3.56,3.56,3.56,3.56,3.56,3.56,3.56,3.56,3.56,3.56,3.56,3.56,3.56,3.56,3.56,3.56,3.56,3.56,3.56,3.56,3.56,3.5941,3.6416,3.6643,3.7229,3.7929,3.8167,3.8449,3.8707,3.8707,3.8707,3.8707,3.8707,3.8707,3.8707,3.8707,3.8707,3.8707,3.8707,3.8707,3.8707,3.8707,3.8707,3.8707,3.8707,3.8707,3.8707,3.8707,3.8707,3.8707,3.8707,3.8707,3.8707,3.8707,3.8707,3.8707,3.8707,3.8707,3.8707,3.8707,3.8707,3.8707,3.8707,3.8947,3.9112,3.9112,3.9731,4.0101,4.0101,4.0356,4.0496,4.0496,4.0496,4.0496,4.0496,4.0496,4.0496,4.0496,4.0496,4.0496,2.2233,2.2403,2.3017,2.3385,2.2697,0.0,2.4762,2.4403,2.4133,2.5989,2.6378,2.6766,2.7957,2.8836,2.9546,3.0098,3.1961,3.3848,3.5194,3.5526,3.56,3.56,3.56,3.56,3.56,3.56,3.56,3.56,3.56,3.56,3.56,3.56,3.56,3.56,3.56,3.56,3.56,3.56,3.56,3.56,3.56,3.56,3.56,3.56,3.56,3.56,3.56,3.56,3.56,3.56,3.56,3.56,3.56,3.5963,3.656,3.702,3.7524,3.8065,3.853,3.8707,3.8707,3.8707,3.8707,3.8707,3.8707,3.8707,3.8707,3.8707,3.8707,3.8707,3.8707,3.8707,3.8707,3.8707,3.8707,3.8707,3.8707,3.8707,3.8707,3.8707,3.8707,3.8707,3.8707,3.8707,3.8707,3.8707,3.8707,3.8707,3.8707,3.8707,3.8707,3.8707,3.8707,3.8707,3.8707,3.8947,3.9125,3.9147,3.9754,4.011,4.0139,4.0372,4.0496,4.0496,4.0496,4.0496,4.0496,4.0496,4.0496,4.0496,4.0496,4.0496,2.3445,2.3729,2.4007,2.3107,2.3041,0.0,2.3272,2.343,2.3864,2.4799,2.4993,2.5234,2.6019,2.711,2.7976,2.8122,3.0235,3.2348,3.3786,3.493,3.56,3.56,3.56,3.56,3.56,3.56,3.56,3.56,3.56,3.56,3.56,3.56,3.56,3.56,3.56,3.56,3.56,3.56,3.56,3.56,3.56,3.56,3.56,3.56,3.56,3.56,3.56,3.56,3.56,3.56,3.56,3.56,3.56,3.6186,3.7076,3.7154,3.7773,3.8562,3.8658,3.8707,3.8707,3.8707,3.8707,3.8707,3.8707,3.8707,3.8707,3.8707,3.8707,3.8707,3.8707,3.8707,3.8707,3.8707,3.8707,3.8707,3.8707,3.8707,3.8707,3.8707,3.8707,3.8707,3.8707,3.8707,3.8707,3.8707,3.8707,3.8707,3.8707,3.8707,3.8707,3.8707,3.8707,3.8707,3.8707,3.8947,3.9231,3.9493,3.988,4.0195,4.0406,4.0473,4.0496,4.0496,4.0496,4.0496,4.0496,4.0496,4.0496,4.0496,4.0496,4.0496,2.4881,2.4829,2.4933,2.4313,2.3864,0.0,0.0,2.3385,2.3505,2.4814,2.4829,2.4903,2.5914,2.6363,2.6687,2.7047,2.8989,3.0612,3.1033,3.3387,3.5064,3.5064,3.538,3.56,3.56,3.56,3.56,3.56,3.56,3.56,3.56,3.56,3.56,3.56,3.56,3.56,3.56,3.56,3.56,3.56,3.56,3.56,3.56,3.56,3.56,3.56,3.56,3.56,3.56,3.56,3.56,3.56,3.56,3.627,3.7209,3.7209,3.7843,3.8707,3.8707,3.8707,3.8707,3.8707,3.8707,3.8707,3.8707,3.8707,3.8707,3.8707,3.8707,3.8707,3.8707,3.8707,3.8707,3.8707,3.8707,3.8707,3.8707,3.8707,3.8707,3.8707,3.8707,3.8707,3.8707,3.8707,3.8707,3.8707,3.8707,3.8707,3.8707,3.8707,3.8707,3.8707,3.8707,3.8707,3.8707,3.9095,3.9414,3.9587,4.0043,4.0364,4.0489,4.0496,4.0496,4.0496,4.0496,4.0496,4.0496,4.0496,4.0496,4.0496,4.0496,4.0496,2.6662,2.6378,2.6288,2.5899,2.5076,2.4373,0.0,0.0,0.0,2.4926,2.4769,2.4739,2.5824,2.5689,2.5555,2.5959,2.7665,2.8704,2.8093,3.1093,3.3496,3.3886,3.466,3.5228,3.5363,3.5261,3.5295,3.5583,3.5329,3.5295,3.5583,3.56,3.56,3.56,3.56,3.56,3.56,3.56,3.56,3.56,3.56,3.56,3.56,3.56,3.56,3.56,3.56,3.56,3.56,3.56,3.56,3.56,3.56,3.627,3.7209,3.7209,3.7843,3.8707,3.8707,3.8707,3.8707,3.8707,3.8707,3.8707,3.8707,3.8707,3.8707,3.8707,3.8707,3.8707,3.8707,3.8707,3.8707,3.8707,3.8707,3.8707,3.8707,3.8707,3.8707,3.8707,3.8707,3.8707,3.8707,3.8707,3.8707,3.8707,3.8707,3.8707,3.8707,3.8707,3.8707,3.8707,3.8707,3.8719,3.8777,3.921,3.9564,3.9679,4.0148,4.0449,4.0496,4.0496,4.0496,4.0496,4.0496,4.0496,4.0496,4.0496,4.0496,4.0496,4.0496,4.0593,2.9202,2.9157,2.8738,2.6916,2.6821,2.6551,2.4238,0.0,2.4276,2.3909,0.0,2.3759,2.3909,0.0,0.0,2.4029,2.5569,2.6604,2.5954,2.7763,2.9848,3.1631,3.2916,3.3914,3.4556,3.4032,3.418,3.5498,3.4404,3.4235,3.5532,3.56,3.56,3.56,3.56,3.56,3.56,3.56,3.56,3.56,3.56,3.56,3.56,3.56,3.56,3.56,3.56,3.56,3.56,3.56,3.56,3.56,3.56,3.627,3.7209,3.7209,3.7843,3.8707,3.8707,3.8707,3.8707,3.8707,3.8707,3.8707,3.8707,3.8707,3.8707,3.8707,3.8707,3.8707,3.8707,3.8707,3.8707,3.8707,3.8707,3.8707,3.8707,3.8707,3.8707,3.8707,3.8707,3.8707,3.8707,3.8707,3.8707,3.8707,3.8707,3.8707,3.8707,3.8707,3.8707,3.8707,3.8707,3.8788,3.9036,3.9125,3.9401,4.0002,4.011,4.0241,4.0489,4.0496,4.0496,4.0496,4.0496,4.0496,4.0496,4.0496,4.0496,4.0496,4.0496,4.0912,2.9711,2.9606,2.9217,2.76,2.7106,2.6512,2.4605,2.4096,2.4036,2.4156,0.0,0.0,0.0,0.0,0.0,0.0,2.5166,2.571,2.5072,2.6645,2.86,3.062,3.1066,3.1609,3.2677,3.277,3.3203,3.423,3.3761,3.3863,3.4912,3.5363,3.56,3.56,3.56,3.56,3.56,3.56,3.56,3.56,3.56,3.56,3.56,3.56,3.56,3.56,3.56,3.56,3.56,3.56,3.56,3.5644,3.5941,3.6522,3.7229,3.7506,3.8066,3.8707,3.8707,3.8707,3.8707,3.8707,3.8707,3.8707,3.8707,3.8707,3.8707,3.8707,3.8707,3.8707,3.8707,3.8707,3.8707,3.8707,3.8707,3.8707,3.8707,3.8707,3.8707,3.8707,3.8707,3.8707,3.8707,3.8707,3.8707,3.8707,3.8707,3.8707,3.8707,3.8707,3.8707,3.8707,3.8707,3.8818,3.9072,3.9276,3.9599,4.0071,4.026,4.0381,4.0489,4.0496,4.0496,4.0496,4.0496,4.0496,4.0496,4.0496,4.0766,4.1258,4.1258,4.145,3.0238,3.0118,2.9714,2.8019,2.724,2.6422,2.4709,2.4216,2.4238,2.4545,2.45,0.0,0.0,0.0,2.4253,2.4545,0.0,2.5037,2.4402,2.5503,2.703,2.8835,2.9339,2.9945,3.1008,3.1298,3.187,3.3017,3.273,3.3085,3.4421,3.5013,3.538,3.5583,3.56,3.56,3.56,3.56,3.56,3.56,3.56,3.56,3.56,3.56,3.56,3.56,3.56,3.56,3.56,3.56,3.56,3.5672,3.6354,3.6862,3.7266,3.772,3.8251,3.8707,3.8707,3.8707,3.8707,3.8707,3.8707,3.8707,3.8707,3.8707,3.8707,3.8707,3.8707,3.8707,3.8707,3.8707,3.8707,3.8707,3.8707,3.8707,3.8707,3.8707,3.8707,3.8707,3.8707,3.8707,3.8707,3.8707,3.8707,3.8707,3.8707,3.8707,3.8707,3.8707,3.8707,3.8707,3.8707,3.8844,3.9218,3.945,3.9767,4.0186,4.0389,4.0496,4.0496,4.0496,4.0496,4.0496,4.0727,4.0746,4.0496,4.0977,4.1412,4.1788,4.1788,4.2038,3.1451,3.1451,3.0823,2.8244,2.7585,2.6881,2.4223,2.4627,2.5375,2.4724,2.563,2.6303,2.5689,2.5555,2.5322,0.0,2.4627,0.0,0.0,2.3683,2.4197,2.5491,2.7821,2.953,3.0099,2.9516,3.0008,3.2175,3.1004,3.1461,3.4336,3.4506,3.4861,3.5583,3.56,3.56,3.56,3.56,3.56,3.56,3.56,3.56,3.56,3.56,3.56,3.56,3.56,3.56,3.56,3.56,3.56,3.5694,3.6766,3.7173,3.7266,3.772,3.8251,3.8707,3.8707,3.8707,3.8707,3.8707,3.8707,3.8707,3.8707,3.8707,3.8707,3.8707,3.8707,3.8707,3.8707,3.8707,3.8707,3.8707,3.8707,3.8707,3.8707,3.8707,3.8707,3.8707,3.8707,3.8707,3.8707,3.8707,3.8707,3.8707,3.8707,3.8707,3.8707,3.8707,3.8707,3.8707,3.8707,3.8946,3.9529,3.9599,3.9853,4.0457,4.0489,4.0496,4.0496,4.0496,4.0496,4.0496,4.1335,4.1335,4.0496,4.2181,4.2604,4.1788,4.1788,4.2681,3.1511,3.1511,3.1077,2.934,2.8259,2.7136,2.533,2.527,2.5397,2.4739,2.5674,2.6393,2.5734,2.5615,2.554,0.0,0.0,2.4365,0.0,2.2877,2.2788,2.3966,2.637,2.7961,2.8108,2.8658,2.9517,3.0751,3.0835,3.1478,3.297,3.3964,3.4607,3.4861,3.5346,3.56,3.56,3.56,3.56,3.56,3.56,3.56,3.56,3.56,3.56,3.56,3.56,3.56,3.56,3.56,3.56,3.5717,3.6786,3.7209,3.7285,3.8135,3.8546,3.8707,3.8707,3.8707,3.8707,3.8707,3.8707,3.8707,3.8707,3.8707,3.8707,3.8707,3.8707,3.8707,3.8707,3.8707,3.8707,3.8707,3.8707,3.8707,3.8707,3.8707,3.8707,3.8707,3.8707,3.8707,3.8707,3.8707,3.8707,3.8707,3.8707,3.8707,3.8707,3.8707,3.8707,3.8707,3.8855,3.9131,3.9564,3.9974,4.0274,4.0489,4.0496,4.0496,4.0496,4.0496,4.0766,4.1354,4.1662,4.195,4.222,4.2816,4.322,4.3451,4.3451,4.3758,3.1511,3.1511,3.1197,2.9909,2.8963,2.7899,2.6318,2.6333,2.6482,2.5809,2.6542,2.7245,2.7051,2.6632,2.6228,0.0,0.0,0.0,0.0,2.2562,2.2395,2.3297,2.5021,2.628,2.6671,2.7357,2.8315,2.96,2.9888,3.0666,3.2226,3.344,3.4218,3.4489,3.5211,3.56,3.56,3.56,3.56,3.56,3.56,3.56,3.56,3.56,3.56,3.56,3.56,3.56,3.56,3.56,3.5717,3.5968,3.6862,3.7304,3.7542,3.8401,3.8707,3.8707,3.8707,3.8707,3.8707,3.8707,3.8707,3.8707,3.8707,3.8707,3.8707,3.8707,3.8707,3.8707,3.8707,3.8707,3.8707,3.8707,3.8707,3.8707,3.8707,3.8707,3.8707,3.8707,3.8707,3.8707,3.8707,3.8946,3.9038,3.8744,3.8707,3.8707,3.8707,3.8707,3.8707,3.8707,3.8933,3.9276,3.9742,4.0221,4.0496,4.0496,4.0496,4.0496,4.0496,4.0804,4.1239,4.1788,4.2393,4.2816,4.3104,4.3701,4.4105,4.4316,4.4624,4.4759]}]]